<?xml version="1.0" encoding="utf-8"?><gpx version="1.0" creator="SportyPal" xmlns:xsi="http://www.w3.org/2001/XMLSchema-instance" xmlns="http://www.topografix.com/GPX/1/0" xsi:schemaLocation="http://www.topografix.com/GPX/1/0 http://www.topografix.com/GPX/1/0/gpx.xsd">
<trk>
<name>SportyPalTrack</name>
<desc>The track description</desc>
<trkseg>
<trkpt lat="32.72310601" lon="35.24405511">
<ele>291.9</ele>
<time>2011-12-24T08:57:51Z</time>
</trkpt>
<trkpt lat="32.723108636" lon="35.244046142">
<ele>289.84</ele>
<time>2011-12-24T08:57:56Z</time>
</trkpt>
<trkpt lat="32.723105486" lon="35.244050262">
<ele>289.41999999999996</ele>
<time>2011-12-24T08:58:01Z</time>
</trkpt>
<trkpt lat="32.723103372" lon="35.24400855">
<ele>284.93999999999994</ele>
<time>2011-12-24T08:58:06Z</time>
</trkpt>
<trkpt lat="32.723107784" lon="35.243859516">
<ele>277.44</ele>
<time>2011-12-24T08:58:11Z</time>
</trkpt>
<trkpt lat="32.723135372" lon="35.243773552">
<ele>277.68</ele>
<time>2011-12-24T08:58:16Z</time>
</trkpt>
<trkpt lat="32.723155306" lon="35.243668624">
<ele>278.38</ele>
<time>2011-12-24T08:58:21Z</time>
</trkpt>
<trkpt lat="32.723173692" lon="35.243598192">
<ele>276.74</ele>
<time>2011-12-24T08:58:26Z</time>
</trkpt>
<trkpt lat="32.723184382" lon="35.243520032">
<ele>274.15999999999997</ele>
<time>2011-12-24T08:58:31Z</time>
</trkpt>
<trkpt lat="32.72319122" lon="35.243441662">
<ele>274.14</ele>
<time>2011-12-24T08:58:36Z</time>
</trkpt>
<trkpt lat="32.723190504" lon="35.243356452">
<ele>274.32</ele>
<time>2011-12-24T08:58:41Z</time>
</trkpt>
<trkpt lat="32.723192088" lon="35.243278726">
<ele>274.18</ele>
<time>2011-12-24T08:58:46Z</time>
</trkpt>
<trkpt lat="32.723200062" lon="35.243202034">
<ele>273.52</ele>
<time>2011-12-24T08:58:51Z</time>
</trkpt>
<trkpt lat="32.72322538" lon="35.243119132">
<ele>273.52</ele>
<time>2011-12-24T08:58:56Z</time>
</trkpt>
<trkpt lat="32.723223282" lon="35.243028314">
<ele>270.34</ele>
<time>2011-12-24T08:59:01Z</time>
</trkpt>
<trkpt lat="32.72321273" lon="35.242951514">
<ele>267.06</ele>
<time>2011-12-24T08:59:06Z</time>
</trkpt>
<trkpt lat="32.7232084225" lon="35.242883515">
<ele>266.55</ele>
<time>2011-12-24T08:59:10Z</time>
</trkpt>
<trkpt lat="32.7232425925" lon="35.2428184875">
<ele>261.65</ele>
<time>2011-12-24T08:59:14Z</time>
</trkpt>
<trkpt lat="32.723257702" lon="35.24274958">
<ele>259.96</ele>
<time>2011-12-24T08:59:19Z</time>
</trkpt>
<trkpt lat="32.7232620525" lon="35.242685025">
<ele>259.525</ele>
<time>2011-12-24T08:59:23Z</time>
</trkpt>
<trkpt lat="32.723265106" lon="35.242631448">
<ele>261.74</ele>
<time>2011-12-24T08:59:28Z</time>
</trkpt>
<trkpt lat="32.72328793" lon="35.242595854">
<ele>260.36</ele>
<time>2011-12-24T08:59:33Z</time>
</trkpt>
<trkpt lat="32.72327901" lon="35.242583695">
<ele>260.625</ele>
<time>2011-12-24T08:59:37Z</time>
</trkpt>
<trkpt lat="32.72325925" lon="35.24259357">
<ele>261.4</ele>
<time>2011-12-24T08:59:41Z</time>
</trkpt>
<trkpt lat="32.723211976" lon="35.242619576">
<ele>261.86</ele>
<time>2011-12-24T08:59:46Z</time>
</trkpt>
<trkpt lat="32.72314635" lon="35.242603285">
<ele>261.05</ele>
<time>2011-12-24T08:59:50Z</time>
</trkpt>
<trkpt lat="32.7231196975" lon="35.24253936">
<ele>261.525</ele>
<time>2011-12-24T08:59:54Z</time>
</trkpt>
<trkpt lat="32.723101072" lon="35.242474156">
<ele>261.2</ele>
<time>2011-12-24T08:59:59Z</time>
</trkpt>
<trkpt lat="32.72307933" lon="35.242405475">
<ele>261.675</ele>
<time>2011-12-24T09:00:03Z</time>
</trkpt>
<trkpt lat="32.723064548" lon="35.24233536">
<ele>261.5</ele>
<time>2011-12-24T09:00:08Z</time>
</trkpt>
<trkpt lat="32.72305874" lon="35.24225125">
<ele>259.25</ele>
<time>2011-12-24T09:00:12Z</time>
</trkpt>
<trkpt lat="32.723022862" lon="35.242193358">
<ele>260.16</ele>
<time>2011-12-24T09:00:17Z</time>
</trkpt>
<trkpt lat="32.722974565" lon="35.2421237675">
<ele>261.75</ele>
<time>2011-12-24T09:00:21Z</time>
</trkpt>
<trkpt lat="32.722945115" lon="35.2420737075">
<ele>262.25</ele>
<time>2011-12-24T09:00:25Z</time>
</trkpt>
<trkpt lat="32.722922965" lon="35.24203286">
<ele>261.4</ele>
<time>2011-12-24T09:00:29Z</time>
</trkpt>
<trkpt lat="32.722891784" lon="35.241968212">
<ele>257.4</ele>
<time>2011-12-24T09:00:34Z</time>
</trkpt>
<trkpt lat="32.722872338" lon="35.241902884">
<ele>255.22000000000003</ele>
<time>2011-12-24T09:00:39Z</time>
</trkpt>
<trkpt lat="32.722861356" lon="35.24187798">
<ele>254.97999999999996</ele>
<time>2011-12-24T09:00:44Z</time>
</trkpt>
<trkpt lat="32.722852982" lon="35.241794308">
<ele>253.08</ele>
<time>2011-12-24T09:00:49Z</time>
</trkpt>
<trkpt lat="32.72281602" lon="35.241714274">
<ele>252.78000000000003</ele>
<time>2011-12-24T09:00:54Z</time>
</trkpt>
<trkpt lat="32.722771702" lon="35.241633288">
<ele>251.84</ele>
<time>2011-12-24T09:00:59Z</time>
</trkpt>
<trkpt lat="32.722743312" lon="35.241526314">
<ele>251.66</ele>
<time>2011-12-24T09:01:04Z</time>
</trkpt>
<trkpt lat="32.7227214075" lon="35.2414761425">
<ele>252.75</ele>
<time>2011-12-24T09:01:08Z</time>
</trkpt>
<trkpt lat="32.722701104" lon="35.241428472">
<ele>252.53999999999996</ele>
<time>2011-12-24T09:01:13Z</time>
</trkpt>
<trkpt lat="32.72268893" lon="35.241355158">
<ele>249.66</ele>
<time>2011-12-24T09:01:18Z</time>
</trkpt>
<trkpt lat="32.72266052" lon="35.2412652275">
<ele>249.85</ele>
<time>2011-12-24T09:01:22Z</time>
</trkpt>
<trkpt lat="32.7226566" lon="35.241178205">
<ele>249.375</ele>
<time>2011-12-24T09:01:26Z</time>
</trkpt>
<trkpt lat="32.722653074" lon="35.241092134">
<ele>249.34</ele>
<time>2011-12-24T09:01:31Z</time>
</trkpt>
<trkpt lat="32.722630738" lon="35.241006526">
<ele>248.24</ele>
<time>2011-12-24T09:01:36Z</time>
</trkpt>
<trkpt lat="32.722612218" lon="35.240907104">
<ele>247.33999999999997</ele>
<time>2011-12-24T09:01:41Z</time>
</trkpt>
<trkpt lat="32.722603648" lon="35.240812842">
<ele>245.7</ele>
<time>2011-12-24T09:01:46Z</time>
</trkpt>
<trkpt lat="32.722598392" lon="35.24070984">
<ele>246.04000000000002</ele>
<time>2011-12-24T09:01:51Z</time>
</trkpt>
<trkpt lat="32.7226076975" lon="35.2406511725">
<ele>246.35000000000002</ele>
<time>2011-12-24T09:01:55Z</time>
</trkpt>
<trkpt lat="32.722630174" lon="35.2405931">
<ele>247.26</ele>
<time>2011-12-24T09:02:00Z</time>
</trkpt>
<trkpt lat="32.7226335" lon="35.2405067425">
<ele>247.6</ele>
<time>2011-12-24T09:02:04Z</time>
</trkpt>
<trkpt lat="32.722623448" lon="35.240420502">
<ele>246.32000000000002</ele>
<time>2011-12-24T09:02:09Z</time>
</trkpt>
<trkpt lat="32.722646172" lon="35.240348208">
<ele>245.32</ele>
<time>2011-12-24T09:02:14Z</time>
</trkpt>
<trkpt lat="32.722657446" lon="35.240300486">
<ele>245.74</ele>
<time>2011-12-24T09:02:19Z</time>
</trkpt>
<trkpt lat="32.7226735725" lon="35.2402355125">
<ele>246.6</ele>
<time>2011-12-24T09:02:23Z</time>
</trkpt>
<trkpt lat="32.722691874" lon="35.240169144">
<ele>248.32</ele>
<time>2011-12-24T09:02:28Z</time>
</trkpt>
<trkpt lat="32.7227218325" lon="35.240140485">
<ele>247.1</ele>
<time>2011-12-24T09:02:32Z</time>
</trkpt>
<trkpt lat="32.722751666" lon="35.24011713">
<ele>244.56000000000003</ele>
<time>2011-12-24T09:02:37Z</time>
</trkpt>
<trkpt lat="32.722787465" lon="35.24006636">
<ele>243.175</ele>
<time>2011-12-24T09:02:41Z</time>
</trkpt>
<trkpt lat="32.7228199875" lon="35.2400000975">
<ele>243.47500000000002</ele>
<time>2011-12-24T09:02:45Z</time>
</trkpt>
<trkpt lat="32.72285302" lon="35.239923976">
<ele>243.95999999999998</ele>
<time>2011-12-24T09:02:50Z</time>
</trkpt>
<trkpt lat="32.72288939" lon="35.23986473">
<ele>242.575</ele>
<time>2011-12-24T09:02:54Z</time>
</trkpt>
<trkpt lat="32.722901145" lon="35.239826205">
<ele>241.675</ele>
<time>2011-12-24T09:02:58Z</time>
</trkpt>
<trkpt lat="32.722924242" lon="35.239720208">
<ele>240.7</ele>
<time>2011-12-24T09:03:03Z</time>
</trkpt>
<trkpt lat="32.722981488" lon="35.239618112">
<ele>241.56</ele>
<time>2011-12-24T09:03:08Z</time>
</trkpt>
<trkpt lat="32.723029015" lon="35.23954719">
<ele>242.7</ele>
<time>2011-12-24T09:03:12Z</time>
</trkpt>
<trkpt lat="32.723060474" lon="35.239486694">
<ele>243.7</ele>
<time>2011-12-24T09:03:17Z</time>
</trkpt>
<trkpt lat="32.7230516375" lon="35.2394205375">
<ele>244.9</ele>
<time>2011-12-24T09:03:21Z</time>
</trkpt>
<trkpt lat="32.72299714" lon="35.239386942">
<ele>244.88000000000002</ele>
<time>2011-12-24T09:03:26Z</time>
</trkpt>
<trkpt lat="32.722918826" lon="35.239409676">
<ele>244.64000000000001</ele>
<time>2011-12-24T09:03:31Z</time>
</trkpt>
<trkpt lat="32.722870154" lon="35.239434234">
<ele>244.0</ele>
<time>2011-12-24T09:03:36Z</time>
</trkpt>
<trkpt lat="32.722841542" lon="35.239481008">
<ele>244.2</ele>
<time>2011-12-24T09:03:41Z</time>
</trkpt>
<trkpt lat="32.722838532" lon="35.239519144">
<ele>244.08</ele>
<time>2011-12-24T09:03:46Z</time>
</trkpt>
<trkpt lat="32.722837884" lon="35.239519466">
<ele>243.78000000000003</ele>
<time>2011-12-24T09:03:51Z</time>
</trkpt>
<trkpt lat="32.7228165325" lon="35.2395294525">
<ele>243.74999999999997</ele>
<time>2011-12-24T09:03:55Z</time>
</trkpt>
<trkpt lat="32.72277324" lon="35.239581148">
<ele>244.14000000000001</ele>
<time>2011-12-24T09:04:00Z</time>
</trkpt>
<trkpt lat="32.722732648" lon="35.239611622">
<ele>243.38000000000002</ele>
<time>2011-12-24T09:04:05Z</time>
</trkpt>
<trkpt lat="32.72266212" lon="35.239603228">
<ele>240.4</ele>
<time>2011-12-24T09:04:10Z</time>
</trkpt>
<trkpt lat="32.722651095" lon="35.2395643275">
<ele>240.54999999999998</ele>
<time>2011-12-24T09:04:14Z</time>
</trkpt>
<trkpt lat="32.7226582075" lon="35.239538785">
<ele>239.52499999999998</ele>
<time>2011-12-24T09:04:18Z</time>
</trkpt>
<trkpt lat="32.72268949" lon="35.23947625">
<ele>238.84</ele>
<time>2011-12-24T09:04:23Z</time>
</trkpt>
<trkpt lat="32.72271162" lon="35.239423954">
<ele>236.85999999999999</ele>
<time>2011-12-24T09:04:28Z</time>
</trkpt>
<trkpt lat="32.722737154" lon="35.239379338">
<ele>237.04000000000002</ele>
<time>2011-12-24T09:04:33Z</time>
</trkpt>
<trkpt lat="32.722786742" lon="35.23930476">
<ele>237.3</ele>
<time>2011-12-24T09:04:38Z</time>
</trkpt>
<trkpt lat="32.7228113225" lon="35.239223475">
<ele>238.6</ele>
<time>2011-12-24T09:04:42Z</time>
</trkpt>
<trkpt lat="32.722840995" lon="35.239182235">
<ele>236.27500000000003</ele>
<time>2011-12-24T09:04:46Z</time>
</trkpt>
<trkpt lat="32.722864798" lon="35.239147886">
<ele>234.95999999999998</ele>
<time>2011-12-24T09:04:51Z</time>
</trkpt>
<trkpt lat="32.7228903125" lon="35.23909883">
<ele>232.97500000000002</ele>
<time>2011-12-24T09:04:55Z</time>
</trkpt>
<trkpt lat="32.722932736" lon="35.23904273">
<ele>233.72000000000003</ele>
<time>2011-12-24T09:05:00Z</time>
</trkpt>
<trkpt lat="32.72296604" lon="35.2389836775">
<ele>234.5</ele>
<time>2011-12-24T09:05:04Z</time>
</trkpt>
<trkpt lat="32.722990226" lon="35.23893355">
<ele>234.94</ele>
<time>2011-12-24T09:05:09Z</time>
</trkpt>
<trkpt lat="32.72304571" lon="35.238855605">
<ele>233.9</ele>
<time>2011-12-24T09:05:13Z</time>
</trkpt>
<trkpt lat="32.723069534" lon="35.238778614">
<ele>231.78000000000003</ele>
<time>2011-12-24T09:05:18Z</time>
</trkpt>
<trkpt lat="32.7231032625" lon="35.2387250975">
<ele>232.25</ele>
<time>2011-12-24T09:05:22Z</time>
</trkpt>
<trkpt lat="32.7231369" lon="35.238636696">
<ele>233.66000000000003</ele>
<time>2011-12-24T09:05:27Z</time>
</trkpt>
<trkpt lat="32.72316509" lon="35.238580315">
<ele>233.65</ele>
<time>2011-12-24T09:05:31Z</time>
</trkpt>
<trkpt lat="32.72319877" lon="35.238536255">
<ele>233.425</ele>
<time>2011-12-24T09:05:35Z</time>
</trkpt>
<trkpt lat="32.7232533175" lon="35.2384822">
<ele>233.7</ele>
<time>2011-12-24T09:05:39Z</time>
</trkpt>
<trkpt lat="32.723296584" lon="35.238428176">
<ele>234.8</ele>
<time>2011-12-24T09:05:44Z</time>
</trkpt>
<trkpt lat="32.723344604" lon="35.23834714">
<ele>236.23999999999995</ele>
<time>2011-12-24T09:05:49Z</time>
</trkpt>
<trkpt lat="32.723389166" lon="35.238297732">
<ele>235.0</ele>
<time>2011-12-24T09:05:54Z</time>
</trkpt>
<trkpt lat="32.723442332" lon="35.238231054">
<ele>233.04000000000002</ele>
<time>2011-12-24T09:05:59Z</time>
</trkpt>
<trkpt lat="32.723491758" lon="35.238143922">
<ele>231.32</ele>
<time>2011-12-24T09:06:04Z</time>
</trkpt>
<trkpt lat="32.723529578" lon="35.238089764">
<ele>231.16</ele>
<time>2011-12-24T09:06:09Z</time>
</trkpt>
<trkpt lat="32.723554884" lon="35.238039832">
<ele>232.06</ele>
<time>2011-12-24T09:06:14Z</time>
</trkpt>
<trkpt lat="32.723612706" lon="35.237995312">
<ele>230.04000000000002</ele>
<time>2011-12-24T09:06:19Z</time>
</trkpt>
<trkpt lat="32.7236629475" lon="35.237957375">
<ele>229.02499999999998</ele>
<time>2011-12-24T09:06:23Z</time>
</trkpt>
<trkpt lat="32.723699746" lon="35.237930268">
<ele>226.56</ele>
<time>2011-12-24T09:06:28Z</time>
</trkpt>
<trkpt lat="32.72375697" lon="35.237886682">
<ele>224.82</ele>
<time>2011-12-24T09:06:33Z</time>
</trkpt>
<trkpt lat="32.72381506" lon="35.237820036">
<ele>225.85999999999999</ele>
<time>2011-12-24T09:06:38Z</time>
</trkpt>
<trkpt lat="32.723869735" lon="35.237777655">
<ele>228.275</ele>
<time>2011-12-24T09:06:42Z</time>
</trkpt>
<trkpt lat="32.723907204" lon="35.237738524">
<ele>230.7</ele>
<time>2011-12-24T09:06:47Z</time>
</trkpt>
<trkpt lat="32.7239390675" lon="35.23770145">
<ele>230.82500000000002</ele>
<time>2011-12-24T09:06:51Z</time>
</trkpt>
<trkpt lat="32.72399953" lon="35.237661862">
<ele>233.47999999999996</ele>
<time>2011-12-24T09:06:56Z</time>
</trkpt>
<trkpt lat="32.72406943" lon="35.23762554">
<ele>234.35</ele>
<time>2011-12-24T09:07:00Z</time>
</trkpt>
<trkpt lat="32.724114916" lon="35.23757617">
<ele>235.7</ele>
<time>2011-12-24T09:07:05Z</time>
</trkpt>
<trkpt lat="32.724167502" lon="35.237545884">
<ele>234.27999999999997</ele>
<time>2011-12-24T09:07:10Z</time>
</trkpt>
<trkpt lat="32.724220175" lon="35.2374970775">
<ele>238.87499999999997</ele>
<time>2011-12-24T09:07:14Z</time>
</trkpt>
<trkpt lat="32.724264176" lon="35.23747103">
<ele>240.64000000000001</ele>
<time>2011-12-24T09:07:19Z</time>
</trkpt>
<trkpt lat="32.7243179575" lon="35.2374389975">
<ele>241.275</ele>
<time>2011-12-24T09:07:23Z</time>
</trkpt>
<trkpt lat="32.724358228" lon="35.237393136">
<ele>239.7</ele>
<time>2011-12-24T09:07:28Z</time>
</trkpt>
<trkpt lat="32.724404502" lon="35.237355066">
<ele>237.78000000000003</ele>
<time>2011-12-24T09:07:33Z</time>
</trkpt>
<trkpt lat="32.72443406" lon="35.237296768">
<ele>238.53999999999996</ele>
<time>2011-12-24T09:07:38Z</time>
</trkpt>
<trkpt lat="32.724492566" lon="35.23725885">
<ele>236.58</ele>
<time>2011-12-24T09:07:43Z</time>
</trkpt>
<trkpt lat="32.724552036" lon="35.237218788">
<ele>236.08</ele>
<time>2011-12-24T09:07:48Z</time>
</trkpt>
<trkpt lat="32.724602466" lon="35.237211232">
<ele>237.83999999999997</ele>
<time>2011-12-24T09:07:53Z</time>
</trkpt>
<trkpt lat="32.72461597" lon="35.2371970625">
<ele>237.675</ele>
<time>2011-12-24T09:07:57Z</time>
</trkpt>
<trkpt lat="32.724617712" lon="35.237194378">
<ele>237.5</ele>
<time>2011-12-24T09:08:02Z</time>
</trkpt>
<trkpt lat="32.7246183675" lon="35.237192385">
<ele>237.6</ele>
<time>2011-12-24T09:08:06Z</time>
</trkpt>
<trkpt lat="32.7246023225" lon="35.2371990925">
<ele>236.97500000000002</ele>
<time>2011-12-24T09:08:10Z</time>
</trkpt>
<trkpt lat="32.724584126" lon="35.237209036">
<ele>236.78000000000003</ele>
<time>2011-12-24T09:08:15Z</time>
</trkpt>
<trkpt lat="32.724554934" lon="35.237231124">
<ele>238.61999999999998</ele>
<time>2011-12-24T09:08:20Z</time>
</trkpt>
<trkpt lat="32.7245044925" lon="35.2372400475">
<ele>237.15</ele>
<time>2011-12-24T09:08:24Z</time>
</trkpt>
<trkpt lat="32.72449347" lon="35.237228516">
<ele>235.94</ele>
<time>2011-12-24T09:08:29Z</time>
</trkpt>
<trkpt lat="32.7244969625" lon="35.2372226975">
<ele>236.55</ele>
<time>2011-12-24T09:08:33Z</time>
</trkpt>
<trkpt lat="32.724493856" lon="35.237214968">
<ele>237.48000000000002</ele>
<time>2011-12-24T09:08:38Z</time>
</trkpt>
<trkpt lat="32.7245001975" lon="35.237205795">
<ele>235.02499999999998</ele>
<time>2011-12-24T09:08:42Z</time>
</trkpt>
<trkpt lat="32.724518486" lon="35.237136274">
<ele>234.88000000000002</ele>
<time>2011-12-24T09:08:47Z</time>
</trkpt>
<trkpt lat="32.724529775" lon="35.237084935">
<ele>236.10000000000002</ele>
<time>2011-12-24T09:08:51Z</time>
</trkpt>
<trkpt lat="32.724554358" lon="35.237049046">
<ele>237.01999999999998</ele>
<time>2011-12-24T09:08:56Z</time>
</trkpt>
<trkpt lat="32.72457369" lon="35.23698787">
<ele>234.29999999999998</ele>
<time>2011-12-24T09:09:00Z</time>
</trkpt>
<trkpt lat="32.7246004075" lon="35.2369382625">
<ele>228.57500000000002</ele>
<time>2011-12-24T09:09:04Z</time>
</trkpt>
<trkpt lat="32.724624886" lon="35.236875696">
<ele>227.22000000000003</ele>
<time>2011-12-24T09:09:09Z</time>
</trkpt>
<trkpt lat="32.724639385" lon="35.236807345">
<ele>223.175</ele>
<time>2011-12-24T09:09:13Z</time>
</trkpt>
<trkpt lat="32.724651836" lon="35.236785112">
<ele>223.92000000000002</ele>
<time>2011-12-24T09:09:18Z</time>
</trkpt>
<trkpt lat="32.7246502925" lon="35.236773915">
<ele>223.925</ele>
<time>2011-12-24T09:09:22Z</time>
</trkpt>
<trkpt lat="32.724648996" lon="35.236770194">
<ele>224.18</ele>
<time>2011-12-24T09:09:27Z</time>
</trkpt>
<trkpt lat="32.7246551525" lon="35.2367548375">
<ele>223.675</ele>
<time>2011-12-24T09:09:31Z</time>
</trkpt>
<trkpt lat="32.724663508" lon="35.236692908">
<ele>223.16</ele>
<time>2011-12-24T09:09:36Z</time>
</trkpt>
<trkpt lat="32.724675035" lon="35.2366444975">
<ele>223.45</ele>
<time>2011-12-24T09:09:40Z</time>
</trkpt>
<trkpt lat="32.72469769" lon="35.2366100875">
<ele>223.925</ele>
<time>2011-12-24T09:09:44Z</time>
</trkpt>
<trkpt lat="32.724731388" lon="35.236542938">
<ele>223.93999999999997</ele>
<time>2011-12-24T09:09:49Z</time>
</trkpt>
<trkpt lat="32.7247475475" lon="35.2364920825">
<ele>224.35</ele>
<time>2011-12-24T09:09:53Z</time>
</trkpt>
<trkpt lat="32.72476384" lon="35.236430346">
<ele>227.5</ele>
<time>2011-12-24T09:09:58Z</time>
</trkpt>
<trkpt lat="32.7248139875" lon="35.2363706075">
<ele>231.04999999999998</ele>
<time>2011-12-24T09:10:02Z</time>
</trkpt>
<trkpt lat="32.7248627325" lon="35.2363080375">
<ele>232.625</ele>
<time>2011-12-24T09:10:06Z</time>
</trkpt>
<trkpt lat="32.724905042" lon="35.23623327">
<ele>231.64000000000001</ele>
<time>2011-12-24T09:10:11Z</time>
</trkpt>
<trkpt lat="32.724923268" lon="35.236158004">
<ele>232.01999999999998</ele>
<time>2011-12-24T09:10:16Z</time>
</trkpt>
<trkpt lat="32.724948335" lon="35.2360796625">
<ele>234.52499999999998</ele>
<time>2011-12-24T09:10:20Z</time>
</trkpt>
<trkpt lat="32.7249694125" lon="35.23603118">
<ele>234.45</ele>
<time>2011-12-24T09:10:24Z</time>
</trkpt>
<trkpt lat="32.724987486" lon="35.236003862">
<ele>234.6</ele>
<time>2011-12-24T09:10:29Z</time>
</trkpt>
<trkpt lat="32.724997525" lon="35.23598742">
<ele>232.45000000000002</ele>
<time>2011-12-24T09:10:33Z</time>
</trkpt>
<trkpt lat="32.725000582" lon="35.23596911">
<ele>232.4</ele>
<time>2011-12-24T09:10:38Z</time>
</trkpt>
<trkpt lat="32.725000375" lon="35.2359556075">
<ele>232.95</ele>
<time>2011-12-24T09:10:42Z</time>
</trkpt>
<trkpt lat="32.725001502" lon="35.235951034">
<ele>232.82</ele>
<time>2011-12-24T09:10:47Z</time>
</trkpt>
<trkpt lat="32.725031155" lon="35.2358460375">
<ele>231.5</ele>
<time>2011-12-24T09:10:51Z</time>
</trkpt>
<trkpt lat="32.725077756" lon="35.235736032">
<ele>231.51999999999998</ele>
<time>2011-12-24T09:10:56Z</time>
</trkpt>
<trkpt lat="32.725091728" lon="35.235694058">
<ele>230.56</ele>
<time>2011-12-24T09:11:01Z</time>
</trkpt>
<trkpt lat="32.725098834" lon="35.235646182">
<ele>230.74</ele>
<time>2011-12-24T09:11:06Z</time>
</trkpt>
<trkpt lat="32.7251111475" lon="35.235596785">
<ele>230.475</ele>
<time>2011-12-24T09:11:10Z</time>
</trkpt>
<trkpt lat="32.725136472" lon="35.235549202">
<ele>229.76</ele>
<time>2011-12-24T09:11:15Z</time>
</trkpt>
<trkpt lat="32.7251707375" lon="35.235445805">
<ele>229.825</ele>
<time>2011-12-24T09:11:19Z</time>
</trkpt>
<trkpt lat="32.7251811325" lon="35.23533795">
<ele>228.5</ele>
<time>2011-12-24T09:11:23Z</time>
</trkpt>
<trkpt lat="32.725211454" lon="35.235308274">
<ele>225.45999999999998</ele>
<time>2011-12-24T09:11:28Z</time>
</trkpt>
<trkpt lat="32.72526554" lon="35.235218512">
<ele>224.43999999999997</ele>
<time>2011-12-24T09:11:33Z</time>
</trkpt>
<trkpt lat="32.725315914" lon="35.235119044">
<ele>224.8</ele>
<time>2011-12-24T09:11:38Z</time>
</trkpt>
<trkpt lat="32.72535852" lon="35.235046726">
<ele>225.51999999999998</ele>
<time>2011-12-24T09:11:43Z</time>
</trkpt>
<trkpt lat="32.72537227" lon="35.234998572">
<ele>225.16</ele>
<time>2011-12-24T09:11:48Z</time>
</trkpt>
<trkpt lat="32.725365804" lon="35.23499014">
<ele>223.94</ele>
<time>2011-12-24T09:11:53Z</time>
</trkpt>
<trkpt lat="32.725368212" lon="35.234982492">
<ele>223.0</ele>
<time>2011-12-24T09:11:58Z</time>
</trkpt>
<trkpt lat="32.725372355" lon="35.23496924">
<ele>221.925</ele>
<time>2011-12-24T09:12:02Z</time>
</trkpt>
<trkpt lat="32.72536893" lon="35.2349561625">
<ele>220.75</ele>
<time>2011-12-24T09:12:06Z</time>
</trkpt>
<trkpt lat="32.725376612" lon="35.234905794">
<ele>217.48000000000002</ele>
<time>2011-12-24T09:12:11Z</time>
</trkpt>
<trkpt lat="32.7254175675" lon="35.234871145">
<ele>211.89999999999998</ele>
<time>2011-12-24T09:12:15Z</time>
</trkpt>
<trkpt lat="32.7254584575" lon="35.234819865">
<ele>209.975</ele>
<time>2011-12-24T09:12:19Z</time>
</trkpt>
<trkpt lat="32.7255086" lon="35.2347786575">
<ele>209.05</ele>
<time>2011-12-24T09:12:23Z</time>
</trkpt>
<trkpt lat="32.725539252" lon="35.234723354">
<ele>208.18</ele>
<time>2011-12-24T09:12:28Z</time>
</trkpt>
<trkpt lat="32.7255583125" lon="35.23467566">
<ele>209.325</ele>
<time>2011-12-24T09:12:32Z</time>
</trkpt>
<trkpt lat="32.7255678475" lon="35.234629755">
<ele>209.725</ele>
<time>2011-12-24T09:12:36Z</time>
</trkpt>
<trkpt lat="32.725585852" lon="35.234554492">
<ele>209.71999999999997</ele>
<time>2011-12-24T09:12:41Z</time>
</trkpt>
<trkpt lat="32.725619024" lon="35.234470016">
<ele>208.51999999999998</ele>
<time>2011-12-24T09:12:46Z</time>
</trkpt>
<trkpt lat="32.72564879" lon="35.2343924275">
<ele>210.175</ele>
<time>2011-12-24T09:12:50Z</time>
</trkpt>
<trkpt lat="32.72568887" lon="35.234307328">
<ele>210.0</ele>
<time>2011-12-24T09:12:55Z</time>
</trkpt>
<trkpt lat="32.7257228875" lon="35.2342411725">
<ele>208.27499999999998</ele>
<time>2011-12-24T09:12:59Z</time>
</trkpt>
<trkpt lat="32.725746766" lon="35.234187844">
<ele>209.56</ele>
<time>2011-12-24T09:13:04Z</time>
</trkpt>
<trkpt lat="32.725783" lon="35.2341438275">
<ele>207.60000000000002</ele>
<time>2011-12-24T09:13:08Z</time>
</trkpt>
<trkpt lat="32.72582896" lon="35.234096452">
<ele>205.18</ele>
<time>2011-12-24T09:13:13Z</time>
</trkpt>
<trkpt lat="32.725880332" lon="35.234026198">
<ele>206.74</ele>
<time>2011-12-24T09:13:18Z</time>
</trkpt>
<trkpt lat="32.7259097775" lon="35.2340112275">
<ele>205.4</ele>
<time>2011-12-24T09:13:22Z</time>
</trkpt>
<trkpt lat="32.725939784" lon="35.233991912">
<ele>204.72</ele>
<time>2011-12-24T09:13:27Z</time>
</trkpt>
<trkpt lat="32.7259944525" lon="35.233956635">
<ele>205.875</ele>
<time>2011-12-24T09:13:31Z</time>
</trkpt>
<trkpt lat="32.72606034" lon="35.233919834">
<ele>203.37999999999997</ele>
<time>2011-12-24T09:13:36Z</time>
</trkpt>
<trkpt lat="32.72610748" lon="35.233881382">
<ele>203.92</ele>
<time>2011-12-24T09:13:41Z</time>
</trkpt>
<trkpt lat="32.72615399" lon="35.233847008">
<ele>205.6</ele>
<time>2011-12-24T09:13:46Z</time>
</trkpt>
<trkpt lat="32.7261925225" lon="35.23380434">
<ele>205.90000000000003</ele>
<time>2011-12-24T09:13:50Z</time>
</trkpt>
<trkpt lat="32.7262153575" lon="35.233754455">
<ele>206.9</ele>
<time>2011-12-24T09:13:54Z</time>
</trkpt>
<trkpt lat="32.726229664" lon="35.233698564">
<ele>206.24</ele>
<time>2011-12-24T09:13:59Z</time>
</trkpt>
<trkpt lat="32.726223622" lon="35.233643246">
<ele>205.78000000000003</ele>
<time>2011-12-24T09:14:04Z</time>
</trkpt>
<trkpt lat="32.7262194525" lon="35.23359267">
<ele>205.4</ele>
<time>2011-12-24T09:14:08Z</time>
</trkpt>
<trkpt lat="32.726196795" lon="35.2335340875">
<ele>203.425</ele>
<time>2011-12-24T09:14:12Z</time>
</trkpt>
<trkpt lat="32.726165218" lon="35.233470872">
<ele>203.84</ele>
<time>2011-12-24T09:14:17Z</time>
</trkpt>
<trkpt lat="32.726154985" lon="35.2334169">
<ele>203.52499999999998</ele>
<time>2011-12-24T09:14:21Z</time>
</trkpt>
<trkpt lat="32.726123486" lon="35.233326096">
<ele>205.2</ele>
<time>2011-12-24T09:14:26Z</time>
</trkpt>
<trkpt lat="32.726096522" lon="35.23325447">
<ele>206.16</ele>
<time>2011-12-24T09:14:31Z</time>
</trkpt>
<trkpt lat="32.726102374" lon="35.233192554">
<ele>206.51999999999998</ele>
<time>2011-12-24T09:14:36Z</time>
</trkpt>
<trkpt lat="32.72609968" lon="35.233111555">
<ele>204.3</ele>
<time>2011-12-24T09:14:40Z</time>
</trkpt>
<trkpt lat="32.726106312" lon="35.233049486">
<ele>202.84</ele>
<time>2011-12-24T09:14:45Z</time>
</trkpt>
<trkpt lat="32.726143538" lon="35.232971808">
<ele>201.68</ele>
<time>2011-12-24T09:14:50Z</time>
</trkpt>
<trkpt lat="32.726167122" lon="35.23287426">
<ele>201.71999999999997</ele>
<time>2011-12-24T09:14:55Z</time>
</trkpt>
<trkpt lat="32.726191765" lon="35.2327834025">
<ele>202.45</ele>
<time>2011-12-24T09:14:59Z</time>
</trkpt>
<trkpt lat="32.726183114" lon="35.23270842">
<ele>202.12</ele>
<time>2011-12-24T09:15:04Z</time>
</trkpt>
<trkpt lat="32.726144922" lon="35.232645454">
<ele>199.74</ele>
<time>2011-12-24T09:15:09Z</time>
</trkpt>
<trkpt lat="32.726090618" lon="35.232581804">
<ele>197.95999999999998</ele>
<time>2011-12-24T09:15:14Z</time>
</trkpt>
<trkpt lat="32.726022942" lon="35.232552002">
<ele>197.52</ele>
<time>2011-12-24T09:15:19Z</time>
</trkpt>
<trkpt lat="32.725927612" lon="35.232543102">
<ele>197.18</ele>
<time>2011-12-24T09:15:24Z</time>
</trkpt>
<trkpt lat="32.725834098" lon="35.23256403">
<ele>197.1</ele>
<time>2011-12-24T09:15:29Z</time>
</trkpt>
<trkpt lat="32.725758148" lon="35.232599868">
<ele>197.68</ele>
<time>2011-12-24T09:15:34Z</time>
</trkpt>
<trkpt lat="32.725679874" lon="35.232610938">
<ele>199.16</ele>
<time>2011-12-24T09:15:39Z</time>
</trkpt>
<trkpt lat="32.725598212" lon="35.232613362">
<ele>201.3</ele>
<time>2011-12-24T09:15:44Z</time>
</trkpt>
<trkpt lat="32.72553918" lon="35.23262424">
<ele>202.12</ele>
<time>2011-12-24T09:15:49Z</time>
</trkpt>
<trkpt lat="32.725473208" lon="35.232639284">
<ele>202.78</ele>
<time>2011-12-24T09:15:54Z</time>
</trkpt>
<trkpt lat="32.7254139" lon="35.232633974">
<ele>203.58</ele>
<time>2011-12-24T09:15:59Z</time>
</trkpt>
<trkpt lat="32.72536458" lon="35.23262487">
<ele>202.89999999999998</ele>
<time>2011-12-24T09:16:03Z</time>
</trkpt>
<trkpt lat="32.725300174" lon="35.232615648">
<ele>203.38</ele>
<time>2011-12-24T09:16:08Z</time>
</trkpt>
<trkpt lat="32.725238264" lon="35.232622946">
<ele>204.16000000000003</ele>
<time>2011-12-24T09:16:13Z</time>
</trkpt>
<trkpt lat="32.7251995275" lon="35.232649685">
<ele>205.375</ele>
<time>2011-12-24T09:16:17Z</time>
</trkpt>
<trkpt lat="32.7251863875" lon="35.2326856175">
<ele>204.5</ele>
<time>2011-12-24T09:16:21Z</time>
</trkpt>
<trkpt lat="32.725167462" lon="35.232737394">
<ele>202.78</ele>
<time>2011-12-24T09:16:26Z</time>
</trkpt>
<trkpt lat="32.725160068" lon="35.232800484">
<ele>200.2</ele>
<time>2011-12-24T09:16:31Z</time>
</trkpt>
<trkpt lat="32.725149154" lon="35.232861452">
<ele>198.04000000000002</ele>
<time>2011-12-24T09:16:36Z</time>
</trkpt>
<trkpt lat="32.7251167175" lon="35.232921555">
<ele>198.425</ele>
<time>2011-12-24T09:16:40Z</time>
</trkpt>
<trkpt lat="32.72509444" lon="35.232969412">
<ele>197.9</ele>
<time>2011-12-24T09:16:45Z</time>
</trkpt>
<trkpt lat="32.725055982" lon="35.232991882">
<ele>196.35999999999999</ele>
<time>2011-12-24T09:16:50Z</time>
</trkpt>
<trkpt lat="32.72500883" lon="35.233040378">
<ele>197.08</ele>
<time>2011-12-24T09:16:55Z</time>
</trkpt>
<trkpt lat="32.72497631" lon="35.233061735">
<ele>198.95000000000002</ele>
<time>2011-12-24T09:16:59Z</time>
</trkpt>
<trkpt lat="32.724940938" lon="35.233076264">
<ele>198.48000000000002</ele>
<time>2011-12-24T09:17:04Z</time>
</trkpt>
<trkpt lat="32.724891236" lon="35.23313175">
<ele>197.66</ele>
<time>2011-12-24T09:17:09Z</time>
</trkpt>
<trkpt lat="32.724838574" lon="35.233174472">
<ele>198.42</ele>
<time>2011-12-24T09:17:14Z</time>
</trkpt>
<trkpt lat="32.724810425" lon="35.2332095">
<ele>199.15</ele>
<time>2011-12-24T09:17:18Z</time>
</trkpt>
<trkpt lat="32.7247791625" lon="35.2332416925">
<ele>199.625</ele>
<time>2011-12-24T09:17:22Z</time>
</trkpt>
<trkpt lat="32.724749868" lon="35.233298896">
<ele>201.64000000000001</ele>
<time>2011-12-24T09:17:27Z</time>
</trkpt>
<trkpt lat="32.7247190425" lon="35.233361065">
<ele>201.7</ele>
<time>2011-12-24T09:17:31Z</time>
</trkpt>
<trkpt lat="32.724709496" lon="35.233373986">
<ele>200.85999999999999</ele>
<time>2011-12-24T09:17:36Z</time>
</trkpt>
<trkpt lat="32.72470127" lon="35.2333640325">
<ele>202.4</ele>
<time>2011-12-24T09:17:40Z</time>
</trkpt>
<trkpt lat="32.724700908" lon="35.233371664">
<ele>202.46</ele>
<time>2011-12-24T09:17:45Z</time>
</trkpt>
<trkpt lat="32.724678284" lon="35.233399648">
<ele>201.48000000000002</ele>
<time>2011-12-24T09:17:50Z</time>
</trkpt>
<trkpt lat="32.724639195" lon="35.233408985">
<ele>199.775</ele>
<time>2011-12-24T09:17:54Z</time>
</trkpt>
<trkpt lat="32.7246167375" lon="35.233429935">
<ele>200.525</ele>
<time>2011-12-24T09:17:58Z</time>
</trkpt>
<trkpt lat="32.7245950675" lon="35.233464065">
<ele>201.35</ele>
<time>2011-12-24T09:18:02Z</time>
</trkpt>
<trkpt lat="32.724564656" lon="35.233481812">
<ele>201.97999999999996</ele>
<time>2011-12-24T09:18:07Z</time>
</trkpt>
<trkpt lat="32.724534858" lon="35.23350524">
<ele>201.22000000000003</ele>
<time>2011-12-24T09:18:12Z</time>
</trkpt>
<trkpt lat="32.724499982" lon="35.233522948">
<ele>203.2</ele>
<time>2011-12-24T09:18:17Z</time>
</trkpt>
<trkpt lat="32.7244952925" lon="35.233522855">
<ele>203.475</ele>
<time>2011-12-24T09:18:21Z</time>
</trkpt>
<trkpt lat="32.7244941775" lon="35.233522875">
<ele>203.25</ele>
<time>2011-12-24T09:18:25Z</time>
</trkpt>
<trkpt lat="32.724494918" lon="35.233522856">
<ele>202.8</ele>
<time>2011-12-24T09:18:30Z</time>
</trkpt>
<trkpt lat="32.724486644" lon="35.233529216">
<ele>204.0</ele>
<time>2011-12-24T09:18:35Z</time>
</trkpt>
<trkpt lat="32.7244633725" lon="35.233548195">
<ele>204.20000000000002</ele>
<time>2011-12-24T09:18:39Z</time>
</trkpt>
<trkpt lat="32.724435395" lon="35.233577525">
<ele>204.52499999999998</ele>
<time>2011-12-24T09:18:43Z</time>
</trkpt>
<trkpt lat="32.724390474" lon="35.23360114">
<ele>206.42</ele>
<time>2011-12-24T09:18:48Z</time>
</trkpt>
<trkpt lat="32.7243512275" lon="35.23362504">
<ele>205.8</ele>
<time>2011-12-24T09:18:52Z</time>
</trkpt>
<trkpt lat="32.724331672" lon="35.2336602">
<ele>206.27999999999997</ele>
<time>2011-12-24T09:18:57Z</time>
</trkpt>
<trkpt lat="32.7243199625" lon="35.233668895">
<ele>205.27499999999998</ele>
<time>2011-12-24T09:19:01Z</time>
</trkpt>
<trkpt lat="32.724287086" lon="35.233683952">
<ele>204.8</ele>
<time>2011-12-24T09:19:06Z</time>
</trkpt>
<trkpt lat="32.724240992" lon="35.23372852">
<ele>205.58</ele>
<time>2011-12-24T09:19:11Z</time>
</trkpt>
<trkpt lat="32.724204515" lon="35.2337485425">
<ele>205.5</ele>
<time>2011-12-24T09:19:15Z</time>
</trkpt>
<trkpt lat="32.72418368" lon="35.233755172">
<ele>204.17999999999998</ele>
<time>2011-12-24T09:19:20Z</time>
</trkpt>
<trkpt lat="32.72415247" lon="35.2337840775">
<ele>203.225</ele>
<time>2011-12-24T09:19:24Z</time>
</trkpt>
<trkpt lat="32.72411953" lon="35.2338080825">
<ele>202.22500000000002</ele>
<time>2011-12-24T09:19:28Z</time>
</trkpt>
<trkpt lat="32.724100628" lon="35.233822626">
<ele>201.56</ele>
<time>2011-12-24T09:19:33Z</time>
</trkpt>
<trkpt lat="32.7240914875" lon="35.233813585">
<ele>200.125</ele>
<time>2011-12-24T09:19:37Z</time>
</trkpt>
<trkpt lat="32.72407019" lon="35.23384446">
<ele>199.95000000000002</ele>
<time>2011-12-24T09:19:41Z</time>
</trkpt>
<trkpt lat="32.7240534" lon="35.233881424">
<ele>199.78</ele>
<time>2011-12-24T09:19:46Z</time>
</trkpt>
<trkpt lat="32.7240442575" lon="35.2338840775">
<ele>199.75</ele>
<time>2011-12-24T09:19:50Z</time>
</trkpt>
<trkpt lat="32.724038378" lon="35.23391016">
<ele>200.48000000000002</ele>
<time>2011-12-24T09:19:55Z</time>
</trkpt>
<trkpt lat="32.7240372525" lon="35.2339175725">
<ele>200.72500000000002</ele>
<time>2011-12-24T09:19:59Z</time>
</trkpt>
<trkpt lat="32.724015596" lon="35.233917358">
<ele>200.98</ele>
<time>2011-12-24T09:20:04Z</time>
</trkpt>
<trkpt lat="32.7239732875" lon="35.23393096">
<ele>201.02499999999998</ele>
<time>2011-12-24T09:20:08Z</time>
</trkpt>
<trkpt lat="32.72393318" lon="35.233990402">
<ele>201.68</ele>
<time>2011-12-24T09:20:13Z</time>
</trkpt>
<trkpt lat="32.723907655" lon="35.2340209275">
<ele>201.3</ele>
<time>2011-12-24T09:20:17Z</time>
</trkpt>
<trkpt lat="32.72388049" lon="35.23404918">
<ele>201.95999999999998</ele>
<time>2011-12-24T09:20:22Z</time>
</trkpt>
<trkpt lat="32.7238420325" lon="35.2340855025">
<ele>203.3</ele>
<time>2011-12-24T09:20:26Z</time>
</trkpt>
<trkpt lat="32.723808862" lon="35.234114054">
<ele>203.92000000000002</ele>
<time>2011-12-24T09:20:31Z</time>
</trkpt>
<trkpt lat="32.723776215" lon="35.2341539075">
<ele>204.35</ele>
<time>2011-12-24T09:20:35Z</time>
</trkpt>
<trkpt lat="32.723761046" lon="35.234179492">
<ele>204.26</ele>
<time>2011-12-24T09:20:40Z</time>
</trkpt>
<trkpt lat="32.723750975" lon="35.2341959425">
<ele>203.7</ele>
<time>2011-12-24T09:20:44Z</time>
</trkpt>
<trkpt lat="32.7237367925" lon="35.23422169">
<ele>203.025</ele>
<time>2011-12-24T09:20:48Z</time>
</trkpt>
<trkpt lat="32.7237065" lon="35.234266102">
<ele>202.99999999999997</ele>
<time>2011-12-24T09:20:53Z</time>
</trkpt>
<trkpt lat="32.7236736225" lon="35.2343026925">
<ele>203.65</ele>
<time>2011-12-24T09:20:57Z</time>
</trkpt>
<trkpt lat="32.723669398" lon="35.23425782">
<ele>204.61999999999998</ele>
<time>2011-12-24T09:21:02Z</time>
</trkpt>
<trkpt lat="32.723681805" lon="35.2342087475">
<ele>205.6</ele>
<time>2011-12-24T09:21:06Z</time>
</trkpt>
<trkpt lat="32.723693564" lon="35.234162988">
<ele>207.2</ele>
<time>2011-12-24T09:21:11Z</time>
</trkpt>
<trkpt lat="32.72369477" lon="35.23411053">
<ele>208.84</ele>
<time>2011-12-24T09:21:16Z</time>
</trkpt>
<trkpt lat="32.723668708" lon="35.234141796">
<ele>209.47999999999996</ele>
<time>2011-12-24T09:21:21Z</time>
</trkpt>
<trkpt lat="32.723650904" lon="35.234169766">
<ele>209.01999999999998</ele>
<time>2011-12-24T09:21:26Z</time>
</trkpt>
<trkpt lat="32.723649234" lon="35.234211926">
<ele>208.98000000000002</ele>
<time>2011-12-24T09:21:31Z</time>
</trkpt>
<trkpt lat="32.7236145325" lon="35.234238355">
<ele>209.5</ele>
<time>2011-12-24T09:21:35Z</time>
</trkpt>
<trkpt lat="32.723574446" lon="35.234276424">
<ele>209.21999999999997</ele>
<time>2011-12-24T09:21:40Z</time>
</trkpt>
<trkpt lat="32.7235491925" lon="35.23432637">
<ele>209.1</ele>
<time>2011-12-24T09:21:44Z</time>
</trkpt>
<trkpt lat="32.72352371" lon="35.234379954">
<ele>209.08</ele>
<time>2011-12-24T09:21:49Z</time>
</trkpt>
<trkpt lat="32.7234927375" lon="35.2344366775">
<ele>209.20000000000002</ele>
<time>2011-12-24T09:21:53Z</time>
</trkpt>
<trkpt lat="32.7234626575" lon="35.2344816225">
<ele>207.87500000000003</ele>
<time>2011-12-24T09:21:57Z</time>
</trkpt>
<trkpt lat="32.723417264" lon="35.23455475">
<ele>209.01999999999998</ele>
<time>2011-12-24T09:22:02Z</time>
</trkpt>
<trkpt lat="32.7233656625" lon="35.234619695">
<ele>210.14999999999998</ele>
<time>2011-12-24T09:22:06Z</time>
</trkpt>
<trkpt lat="32.723318252" lon="35.234677252">
<ele>210.5</ele>
<time>2011-12-24T09:22:11Z</time>
</trkpt>
<trkpt lat="32.7232741" lon="35.234739228">
<ele>210.24</ele>
<time>2011-12-24T09:22:16Z</time>
</trkpt>
<trkpt lat="32.723247095" lon="35.23479837">
<ele>208.52499999999998</ele>
<time>2011-12-24T09:22:20Z</time>
</trkpt>
<trkpt lat="32.72323285" lon="35.234863104">
<ele>206.97999999999996</ele>
<time>2011-12-24T09:22:25Z</time>
</trkpt>
<trkpt lat="32.7231938675" lon="35.234932465">
<ele>207.025</ele>
<time>2011-12-24T09:22:29Z</time>
</trkpt>
<trkpt lat="32.723154292" lon="35.2349946">
<ele>206.82000000000002</ele>
<time>2011-12-24T09:22:34Z</time>
</trkpt>
<trkpt lat="32.7231042325" lon="35.2350585975">
<ele>207.95</ele>
<time>2011-12-24T09:22:38Z</time>
</trkpt>
<trkpt lat="32.723064862" lon="35.235109642">
<ele>207.85999999999999</ele>
<time>2011-12-24T09:22:43Z</time>
</trkpt>
<trkpt lat="32.723022136" lon="35.235168412">
<ele>209.07999999999998</ele>
<time>2011-12-24T09:22:48Z</time>
</trkpt>
<trkpt lat="32.722981966" lon="35.235215128">
<ele>209.06</ele>
<time>2011-12-24T09:22:53Z</time>
</trkpt>
<trkpt lat="32.7229431425" lon="35.235262805">
<ele>208.875</ele>
<time>2011-12-24T09:22:57Z</time>
</trkpt>
<trkpt lat="32.722896162" lon="35.235298918">
<ele>209.1</ele>
<time>2011-12-24T09:23:02Z</time>
</trkpt>
<trkpt lat="32.7228605225" lon="35.235344225">
<ele>209.02500000000003</ele>
<time>2011-12-24T09:23:06Z</time>
</trkpt>
<trkpt lat="32.722818754" lon="35.235388216">
<ele>209.01999999999998</ele>
<time>2011-12-24T09:23:11Z</time>
</trkpt>
<trkpt lat="32.722772774" lon="35.235441922">
<ele>209.06</ele>
<time>2011-12-24T09:23:16Z</time>
</trkpt>
<trkpt lat="32.722741255" lon="35.23548882">
<ele>207.85000000000002</ele>
<time>2011-12-24T09:23:20Z</time>
</trkpt>
<trkpt lat="32.722702842" lon="35.235540018">
<ele>207.9</ele>
<time>2011-12-24T09:23:25Z</time>
</trkpt>
<trkpt lat="32.722676065" lon="35.235569015">
<ele>207.70000000000002</ele>
<time>2011-12-24T09:23:29Z</time>
</trkpt>
<trkpt lat="32.722665378" lon="35.235582854">
<ele>207.3</ele>
<time>2011-12-24T09:23:34Z</time>
</trkpt>
<trkpt lat="32.7226334175" lon="35.23562866">
<ele>206.575</ele>
<time>2011-12-24T09:23:38Z</time>
</trkpt>
<trkpt lat="32.722596268" lon="35.23567877">
<ele>206.51999999999998</ele>
<time>2011-12-24T09:23:43Z</time>
</trkpt>
<trkpt lat="32.72255277" lon="35.235736854">
<ele>207.4</ele>
<time>2011-12-24T09:23:48Z</time>
</trkpt>
<trkpt lat="32.72252678" lon="35.23576695">
<ele>206.95999999999998</ele>
<time>2011-12-24T09:23:53Z</time>
</trkpt>
<trkpt lat="32.722471556" lon="35.235820264">
<ele>206.72000000000003</ele>
<time>2011-12-24T09:23:58Z</time>
</trkpt>
<trkpt lat="32.7224301025" lon="35.235868945">
<ele>208.4</ele>
<time>2011-12-24T09:24:02Z</time>
</trkpt>
<trkpt lat="32.722380276" lon="35.2359272">
<ele>209.62000000000003</ele>
<time>2011-12-24T09:24:07Z</time>
</trkpt>
<trkpt lat="32.7223385225" lon="35.235979225">
<ele>209.07500000000002</ele>
<time>2011-12-24T09:24:11Z</time>
</trkpt>
<trkpt lat="32.722300884" lon="35.236038456">
<ele>208.3</ele>
<time>2011-12-24T09:24:16Z</time>
</trkpt>
<trkpt lat="32.722257414" lon="35.236093272">
<ele>209.03999999999996</ele>
<time>2011-12-24T09:24:21Z</time>
</trkpt>
<trkpt lat="32.72222173" lon="35.236137306">
<ele>208.0</ele>
<time>2011-12-24T09:24:26Z</time>
</trkpt>
<trkpt lat="32.7221824925" lon="35.236170415">
<ele>207.75</ele>
<time>2011-12-24T09:24:30Z</time>
</trkpt>
<trkpt lat="32.72214789" lon="35.23621911">
<ele>207.75</ele>
<time>2011-12-24T09:24:34Z</time>
</trkpt>
<trkpt lat="32.722102355" lon="35.236276425">
<ele>208.525</ele>
<time>2011-12-24T09:24:38Z</time>
</trkpt>
<trkpt lat="32.72205916" lon="35.23635055">
<ele>208.52000000000004</ele>
<time>2011-12-24T09:24:43Z</time>
</trkpt>
<trkpt lat="32.722025568" lon="35.236412974">
<ele>207.32</ele>
<time>2011-12-24T09:24:48Z</time>
</trkpt>
<trkpt lat="32.72197353" lon="35.23645218">
<ele>207.38000000000002</ele>
<time>2011-12-24T09:24:53Z</time>
</trkpt>
<trkpt lat="32.721933138" lon="35.236495386">
<ele>207.28000000000003</ele>
<time>2011-12-24T09:24:58Z</time>
</trkpt>
<trkpt lat="32.721893016" lon="35.236540194">
<ele>206.78000000000003</ele>
<time>2011-12-24T09:25:03Z</time>
</trkpt>
<trkpt lat="32.721863896" lon="35.236610748">
<ele>206.34</ele>
<time>2011-12-24T09:25:08Z</time>
</trkpt>
<trkpt lat="32.721820552" lon="35.23669004">
<ele>207.84</ele>
<time>2011-12-24T09:25:13Z</time>
</trkpt>
<trkpt lat="32.7217931675" lon="35.2367392825">
<ele>209.35</ele>
<time>2011-12-24T09:25:17Z</time>
</trkpt>
<trkpt lat="32.721747134" lon="35.236779408">
<ele>210.13999999999996</ele>
<time>2011-12-24T09:25:22Z</time>
</trkpt>
<trkpt lat="32.7217105" lon="35.23682939">
<ele>210.47500000000002</ele>
<time>2011-12-24T09:25:26Z</time>
</trkpt>
<trkpt lat="32.721672704" lon="35.23685984">
<ele>210.28000000000003</ele>
<time>2011-12-24T09:25:31Z</time>
</trkpt>
<trkpt lat="32.72162545" lon="35.236891716">
<ele>211.77999999999997</ele>
<time>2011-12-24T09:25:36Z</time>
</trkpt>
<trkpt lat="32.7215954675" lon="35.23692665">
<ele>211.9</ele>
<time>2011-12-24T09:25:40Z</time>
</trkpt>
<trkpt lat="32.721557408" lon="35.236968014">
<ele>211.2</ele>
<time>2011-12-24T09:25:45Z</time>
</trkpt>
<trkpt lat="32.721509902" lon="35.236983534">
<ele>212.01999999999998</ele>
<time>2011-12-24T09:25:50Z</time>
</trkpt>
<trkpt lat="32.72145871" lon="35.237014038">
<ele>214.88000000000002</ele>
<time>2011-12-24T09:25:55Z</time>
</trkpt>
<trkpt lat="32.72141745" lon="35.237049235">
<ele>216.425</ele>
<time>2011-12-24T09:25:59Z</time>
</trkpt>
<trkpt lat="32.72138099" lon="35.237085866">
<ele>216.16</ele>
<time>2011-12-24T09:26:04Z</time>
</trkpt>
<trkpt lat="32.721339672" lon="35.237132622">
<ele>216.45999999999998</ele>
<time>2011-12-24T09:26:09Z</time>
</trkpt>
<trkpt lat="32.7213084075" lon="35.237140645">
<ele>216.67499999999998</ele>
<time>2011-12-24T09:26:13Z</time>
</trkpt>
<trkpt lat="32.72128155" lon="35.237128396">
<ele>216.52000000000004</ele>
<time>2011-12-24T09:26:18Z</time>
</trkpt>
<trkpt lat="32.721284726" lon="35.237121134">
<ele>216.74</ele>
<time>2011-12-24T09:26:23Z</time>
</trkpt>
<trkpt lat="32.721281626" lon="35.237101844">
<ele>218.45999999999998</ele>
<time>2011-12-24T09:26:28Z</time>
</trkpt>
<trkpt lat="32.721276525" lon="35.237103135">
<ele>218.2</ele>
<time>2011-12-24T09:26:32Z</time>
</trkpt>
<trkpt lat="32.721270348" lon="35.237115598">
<ele>218.7</ele>
<time>2011-12-24T09:26:37Z</time>
</trkpt>
<trkpt lat="32.721229774" lon="35.23708558">
<ele>220.03999999999996</ele>
<time>2011-12-24T09:26:42Z</time>
</trkpt>
<trkpt lat="32.721220124" lon="35.237015974">
<ele>222.5</ele>
<time>2011-12-24T09:26:47Z</time>
</trkpt>
<trkpt lat="32.7212407" lon="35.236950476">
<ele>224.94</ele>
<time>2011-12-24T09:26:52Z</time>
</trkpt>
<trkpt lat="32.72126218" lon="35.236875188">
<ele>222.85999999999999</ele>
<time>2011-12-24T09:26:57Z</time>
</trkpt>
<trkpt lat="32.721287682" lon="35.236811654">
<ele>220.0</ele>
<time>2011-12-24T09:27:02Z</time>
</trkpt>
<trkpt lat="32.721302664" lon="35.236764476">
<ele>221.02000000000004</ele>
<time>2011-12-24T09:27:07Z</time>
</trkpt>
<trkpt lat="32.721323866" lon="35.236722616">
<ele>222.53999999999996</ele>
<time>2011-12-24T09:27:12Z</time>
</trkpt>
<trkpt lat="32.721317466" lon="35.236735634">
<ele>225.84</ele>
<time>2011-12-24T09:27:17Z</time>
</trkpt>
<trkpt lat="32.7212885575" lon="35.2367756225">
<ele>224.82500000000002</ele>
<time>2011-12-24T09:27:21Z</time>
</trkpt>
<trkpt lat="32.721262028" lon="35.236820246">
<ele>223.44</ele>
<time>2011-12-24T09:27:26Z</time>
</trkpt>
<trkpt lat="32.7212866325" lon="35.236888955">
<ele>221.65</ele>
<time>2011-12-24T09:27:30Z</time>
</trkpt>
<trkpt lat="32.721264434" lon="35.236946732">
<ele>220.5</ele>
<time>2011-12-24T09:27:35Z</time>
</trkpt>
<trkpt lat="32.721235882" lon="35.236999808">
<ele>219.32000000000002</ele>
<time>2011-12-24T09:27:40Z</time>
</trkpt>
<trkpt lat="32.72124043" lon="35.237055445">
<ele>219.72499999999997</ele>
<time>2011-12-24T09:27:44Z</time>
</trkpt>
<trkpt lat="32.72126788" lon="35.2371783325">
<ele>220.52499999999998</ele>
<time>2011-12-24T09:27:48Z</time>
</trkpt>
<trkpt lat="32.721251475" lon="35.2372554">
<ele>220.39999999999998</ele>
<time>2011-12-24T09:27:52Z</time>
</trkpt>
<trkpt lat="32.721212164" lon="35.237323252">
<ele>219.32</ele>
<time>2011-12-24T09:27:57Z</time>
</trkpt>
<trkpt lat="32.721168874" lon="35.237396712">
<ele>218.88000000000002</ele>
<time>2011-12-24T09:28:02Z</time>
</trkpt>
<trkpt lat="32.721120086" lon="35.237460192">
<ele>219.07999999999998</ele>
<time>2011-12-24T09:28:07Z</time>
</trkpt>
<trkpt lat="32.7210604" lon="35.2375062425">
<ele>219.15</ele>
<time>2011-12-24T09:28:11Z</time>
</trkpt>
<trkpt lat="32.721015062" lon="35.237576058">
<ele>218.37999999999997</ele>
<time>2011-12-24T09:28:16Z</time>
</trkpt>
<trkpt lat="32.720977506" lon="35.237638744">
<ele>217.38000000000002</ele>
<time>2011-12-24T09:28:21Z</time>
</trkpt>
<trkpt lat="32.720941705" lon="35.237693785">
<ele>218.17499999999998</ele>
<time>2011-12-24T09:28:25Z</time>
</trkpt>
<trkpt lat="32.72091537" lon="35.2377398675">
<ele>218.675</ele>
<time>2011-12-24T09:28:29Z</time>
</trkpt>
<trkpt lat="32.720875278" lon="35.237786604">
<ele>218.32000000000002</ele>
<time>2011-12-24T09:28:34Z</time>
</trkpt>
<trkpt lat="32.720818494" lon="35.237836002">
<ele>218.61999999999998</ele>
<time>2011-12-24T09:28:39Z</time>
</trkpt>
<trkpt lat="32.720756366" lon="35.237860138">
<ele>219.87999999999997</ele>
<time>2011-12-24T09:28:44Z</time>
</trkpt>
<trkpt lat="32.720710836" lon="35.237872212">
<ele>219.54000000000002</ele>
<time>2011-12-24T09:28:49Z</time>
</trkpt>
<trkpt lat="32.720659816" lon="35.237914778">
<ele>218.76</ele>
<time>2011-12-24T09:28:54Z</time>
</trkpt>
<trkpt lat="32.7206088825" lon="35.2379568975">
<ele>217.57500000000002</ele>
<time>2011-12-24T09:28:58Z</time>
</trkpt>
<trkpt lat="32.7205688825" lon="35.2380076475">
<ele>216.775</ele>
<time>2011-12-24T09:29:02Z</time>
</trkpt>
<trkpt lat="32.720513976" lon="35.238051748">
<ele>216.42</ele>
<time>2011-12-24T09:29:07Z</time>
</trkpt>
<trkpt lat="32.7204614" lon="35.238098376">
<ele>216.42</ele>
<time>2011-12-24T09:29:12Z</time>
</trkpt>
<trkpt lat="32.720424906" lon="35.238146228">
<ele>216.1</ele>
<time>2011-12-24T09:29:17Z</time>
</trkpt>
<trkpt lat="32.720416234" lon="35.238137952">
<ele>216.64000000000001</ele>
<time>2011-12-24T09:29:22Z</time>
</trkpt>
<trkpt lat="32.720391202" lon="35.238151648">
<ele>216.8</ele>
<time>2011-12-24T09:29:27Z</time>
</trkpt>
<trkpt lat="32.720331465" lon="35.2381938225">
<ele>216.47500000000002</ele>
<time>2011-12-24T09:29:31Z</time>
</trkpt>
<trkpt lat="32.72028277" lon="35.23824489">
<ele>216.14000000000001</ele>
<time>2011-12-24T09:29:36Z</time>
</trkpt>
<trkpt lat="32.720226472" lon="35.238306294">
<ele>217.3</ele>
<time>2011-12-24T09:29:41Z</time>
</trkpt>
<trkpt lat="32.720173768" lon="35.238384904">
<ele>219.46000000000004</ele>
<time>2011-12-24T09:29:46Z</time>
</trkpt>
<trkpt lat="32.7201301825" lon="35.238427925">
<ele>219.27499999999998</ele>
<time>2011-12-24T09:29:50Z</time>
</trkpt>
<trkpt lat="32.720124294" lon="35.23843861">
<ele>219.54000000000002</ele>
<time>2011-12-24T09:29:55Z</time>
</trkpt>
<trkpt lat="32.720068854" lon="35.238505146">
<ele>218.9</ele>
<time>2011-12-24T09:30:00Z</time>
</trkpt>
<trkpt lat="32.720059132" lon="35.238528742">
<ele>218.66</ele>
<time>2011-12-24T09:30:05Z</time>
</trkpt>
<trkpt lat="32.7200563675" lon="35.2385342725">
<ele>218.32500000000002</ele>
<time>2011-12-24T09:30:09Z</time>
</trkpt>
<trkpt lat="32.72004804" lon="35.2385549375">
<ele>217.60000000000002</ele>
<time>2011-12-24T09:30:13Z</time>
</trkpt>
<trkpt lat="32.72004186" lon="35.238582476">
<ele>217.45999999999998</ele>
<time>2011-12-24T09:30:18Z</time>
</trkpt>
<trkpt lat="32.720008566" lon="35.238664286">
<ele>218.64000000000001</ele>
<time>2011-12-24T09:30:23Z</time>
</trkpt>
<trkpt lat="32.71998869" lon="35.238743055">
<ele>219.325</ele>
<time>2011-12-24T09:30:27Z</time>
</trkpt>
<trkpt lat="32.719932344" lon="35.238808088">
<ele>217.84</ele>
<time>2011-12-24T09:30:32Z</time>
</trkpt>
<trkpt lat="32.7198871225" lon="35.2388510525">
<ele>216.5</ele>
<time>2011-12-24T09:30:36Z</time>
</trkpt>
<trkpt lat="32.71984884" lon="35.2388861925">
<ele>218.35000000000002</ele>
<time>2011-12-24T09:30:40Z</time>
</trkpt>
<trkpt lat="32.719827255" lon="35.238926615">
<ele>217.875</ele>
<time>2011-12-24T09:30:44Z</time>
</trkpt>
<trkpt lat="32.719805316" lon="35.238968854">
<ele>216.17999999999998</ele>
<time>2011-12-24T09:30:49Z</time>
</trkpt>
<trkpt lat="32.71978349" lon="35.239014742">
<ele>215.88000000000002</ele>
<time>2011-12-24T09:30:54Z</time>
</trkpt>
<trkpt lat="32.7197650125" lon="35.239060965">
<ele>214.25</ele>
<time>2011-12-24T09:30:58Z</time>
</trkpt>
<trkpt lat="32.719747936" lon="35.239108302">
<ele>213.38000000000002</ele>
<time>2011-12-24T09:31:03Z</time>
</trkpt>
<trkpt lat="32.7197382475" lon="35.2391586975">
<ele>212.70000000000002</ele>
<time>2011-12-24T09:31:07Z</time>
</trkpt>
<trkpt lat="32.719732922" lon="35.23921855">
<ele>211.45999999999998</ele>
<time>2011-12-24T09:31:12Z</time>
</trkpt>
<trkpt lat="32.7197324075" lon="35.239308595">
<ele>209.34999999999997</ele>
<time>2011-12-24T09:31:16Z</time>
</trkpt>
<trkpt lat="32.719727395" lon="35.2393733525">
<ele>209.275</ele>
<time>2011-12-24T09:31:20Z</time>
</trkpt>
<trkpt lat="32.71972643" lon="35.239395502">
<ele>208.08</ele>
<time>2011-12-24T09:31:25Z</time>
</trkpt>
<trkpt lat="32.719716224" lon="35.239515072">
<ele>207.87999999999997</ele>
<time>2011-12-24T09:31:30Z</time>
</trkpt>
<trkpt lat="32.719689065" lon="35.2396162975">
<ele>207.375</ele>
<time>2011-12-24T09:31:34Z</time>
</trkpt>
<trkpt lat="32.719649086" lon="35.239655098">
<ele>207.94</ele>
<time>2011-12-24T09:31:39Z</time>
</trkpt>
<trkpt lat="32.71959986" lon="35.2396729275">
<ele>209.625</ele>
<time>2011-12-24T09:31:43Z</time>
</trkpt>
<trkpt lat="32.7195538175" lon="35.2396819575">
<ele>210.35000000000002</ele>
<time>2011-12-24T09:31:47Z</time>
</trkpt>
<trkpt lat="32.719505876" lon="35.239717212">
<ele>211.54000000000002</ele>
<time>2011-12-24T09:31:52Z</time>
</trkpt>
<trkpt lat="32.719450072" lon="35.23975308">
<ele>211.27999999999997</ele>
<time>2011-12-24T09:31:57Z</time>
</trkpt>
<trkpt lat="32.719395194" lon="35.239795946">
<ele>211.98000000000002</ele>
<time>2011-12-24T09:32:02Z</time>
</trkpt>
<trkpt lat="32.71934874" lon="35.239841755">
<ele>213.725</ele>
<time>2011-12-24T09:32:06Z</time>
</trkpt>
<trkpt lat="32.719296968" lon="35.239883518">
<ele>214.21999999999997</ele>
<time>2011-12-24T09:32:11Z</time>
</trkpt>
<trkpt lat="32.71924429" lon="35.239936298">
<ele>214.68</ele>
<time>2011-12-24T09:32:16Z</time>
</trkpt>
<trkpt lat="32.7191964425" lon="35.2399784075">
<ele>215.65</ele>
<time>2011-12-24T09:32:20Z</time>
</trkpt>
<trkpt lat="32.71914454" lon="35.2400171575">
<ele>217.29999999999998</ele>
<time>2011-12-24T09:32:24Z</time>
</trkpt>
<trkpt lat="32.719093675" lon="35.24004234">
<ele>217.55</ele>
<time>2011-12-24T09:32:28Z</time>
</trkpt>
<trkpt lat="32.719029972" lon="35.24009813">
<ele>218.7</ele>
<time>2011-12-24T09:32:33Z</time>
</trkpt>
<trkpt lat="32.7189771325" lon="35.24014185">
<ele>219.5</ele>
<time>2011-12-24T09:32:37Z</time>
</trkpt>
<trkpt lat="32.718925028" lon="35.24015026">
<ele>219.8</ele>
<time>2011-12-24T09:32:42Z</time>
</trkpt>
<trkpt lat="32.718880805" lon="35.2401489125">
<ele>220.05</ele>
<time>2011-12-24T09:32:46Z</time>
</trkpt>
<trkpt lat="32.718821966" lon="35.240214236">
<ele>219.9</ele>
<time>2011-12-24T09:32:51Z</time>
</trkpt>
<trkpt lat="32.718774992" lon="35.240299738">
<ele>218.78000000000003</ele>
<time>2011-12-24T09:32:56Z</time>
</trkpt>
<trkpt lat="32.718715006" lon="35.240319516">
<ele>218.66</ele>
<time>2011-12-24T09:33:01Z</time>
</trkpt>
<trkpt lat="32.718663608" lon="35.240387338">
<ele>219.48000000000002</ele>
<time>2011-12-24T09:33:06Z</time>
</trkpt>
<trkpt lat="32.718610672" lon="35.240403354">
<ele>219.21999999999997</ele>
<time>2011-12-24T09:33:11Z</time>
</trkpt>
<trkpt lat="32.71854812" lon="35.2405272825">
<ele>221.75</ele>
<time>2011-12-24T09:33:15Z</time>
</trkpt>
<trkpt lat="32.71850634" lon="35.24057985">
<ele>220.47500000000002</ele>
<time>2011-12-24T09:33:19Z</time>
</trkpt>
<trkpt lat="32.718461776" lon="35.240626748">
<ele>220.02000000000004</ele>
<time>2011-12-24T09:33:24Z</time>
</trkpt>
<trkpt lat="32.718418196" lon="35.240662994">
<ele>217.21999999999997</ele>
<time>2011-12-24T09:33:29Z</time>
</trkpt>
<trkpt lat="32.7183674725" lon="35.2407159325">
<ele>218.1</ele>
<time>2011-12-24T09:33:33Z</time>
</trkpt>
<trkpt lat="32.71831587" lon="35.240759396">
<ele>218.86000000000004</ele>
<time>2011-12-24T09:33:38Z</time>
</trkpt>
<trkpt lat="32.71826112" lon="35.24079332">
<ele>218.4</ele>
<time>2011-12-24T09:33:43Z</time>
</trkpt>
<trkpt lat="32.718206014" lon="35.2408355">
<ele>218.16</ele>
<time>2011-12-24T09:33:48Z</time>
</trkpt>
<trkpt lat="32.7181484675" lon="35.24087578">
<ele>217.35000000000002</ele>
<time>2011-12-24T09:33:52Z</time>
</trkpt>
<trkpt lat="32.7180928525" lon="35.240899685">
<ele>216.57500000000002</ele>
<time>2011-12-24T09:33:56Z</time>
</trkpt>
<trkpt lat="32.718038422" lon="35.240935152">
<ele>216.07999999999998</ele>
<time>2011-12-24T09:34:01Z</time>
</trkpt>
<trkpt lat="32.717969054" lon="35.240969014">
<ele>216.08</ele>
<time>2011-12-24T09:34:06Z</time>
</trkpt>
<trkpt lat="32.717908002" lon="35.241000728">
<ele>216.6</ele>
<time>2011-12-24T09:34:11Z</time>
</trkpt>
<trkpt lat="32.717844352" lon="35.241035846">
<ele>216.68</ele>
<time>2011-12-24T09:34:16Z</time>
</trkpt>
<trkpt lat="32.717780342" lon="35.24107052">
<ele>216.61999999999998</ele>
<time>2011-12-24T09:34:21Z</time>
</trkpt>
<trkpt lat="32.717725612" lon="35.241103586">
<ele>216.5</ele>
<time>2011-12-24T09:34:26Z</time>
</trkpt>
<trkpt lat="32.717673432" lon="35.241140036">
<ele>217.54000000000002</ele>
<time>2011-12-24T09:34:31Z</time>
</trkpt>
<trkpt lat="32.7176456375" lon="35.2410791625">
<ele>218.225</ele>
<time>2011-12-24T09:34:35Z</time>
</trkpt>
<trkpt lat="32.717657264" lon="35.240989314">
<ele>220.27999999999997</ele>
<time>2011-12-24T09:34:40Z</time>
</trkpt>
<trkpt lat="32.717662494" lon="35.240897506">
<ele>220.56</ele>
<time>2011-12-24T09:34:45Z</time>
</trkpt>
<trkpt lat="32.7176693925" lon="35.2408286375">
<ele>221.75</ele>
<time>2011-12-24T09:34:49Z</time>
</trkpt>
<trkpt lat="32.71767193" lon="35.2407763325">
<ele>223.025</ele>
<time>2011-12-24T09:34:53Z</time>
</trkpt>
<trkpt lat="32.71769309" lon="35.240712472">
<ele>222.95999999999998</ele>
<time>2011-12-24T09:34:58Z</time>
</trkpt>
<trkpt lat="32.717711708" lon="35.240627018">
<ele>225.6</ele>
<time>2011-12-24T09:35:03Z</time>
</trkpt>
<trkpt lat="32.717721032" lon="35.240586208">
<ele>227.83999999999997</ele>
<time>2011-12-24T09:35:08Z</time>
</trkpt>
<trkpt lat="32.71769707" lon="35.240626844">
<ele>227.44</ele>
<time>2011-12-24T09:35:13Z</time>
</trkpt>
<trkpt lat="32.717675742" lon="35.24070227">
<ele>226.66</ele>
<time>2011-12-24T09:35:18Z</time>
</trkpt>
<trkpt lat="32.71766503" lon="35.2407664525">
<ele>226.02499999999998</ele>
<time>2011-12-24T09:35:22Z</time>
</trkpt>
<trkpt lat="32.71766337" lon="35.24085197">
<ele>225.125</ele>
<time>2011-12-24T09:35:26Z</time>
</trkpt>
<trkpt lat="32.71767089" lon="35.240938568">
<ele>223.18</ele>
<time>2011-12-24T09:35:31Z</time>
</trkpt>
<trkpt lat="32.717660235" lon="35.241012915">
<ele>222.95</ele>
<time>2011-12-24T09:35:35Z</time>
</trkpt>
<trkpt lat="32.7176433525" lon="35.2410792775">
<ele>222.625</ele>
<time>2011-12-24T09:35:39Z</time>
</trkpt>
<trkpt lat="32.71763739" lon="35.241133725">
<ele>222.75</ele>
<time>2011-12-24T09:35:43Z</time>
</trkpt>
<trkpt lat="32.717632728" lon="35.241197654">
<ele>223.71999999999997</ele>
<time>2011-12-24T09:35:48Z</time>
</trkpt>
<trkpt lat="32.717648066" lon="35.2412769">
<ele>224.14000000000001</ele>
<time>2011-12-24T09:35:53Z</time>
</trkpt>
<trkpt lat="32.71767805" lon="35.2413361225">
<ele>225.4</ele>
<time>2011-12-24T09:35:57Z</time>
</trkpt>
<trkpt lat="32.717690718" lon="35.24139643">
<ele>226.61999999999998</ele>
<time>2011-12-24T09:36:02Z</time>
</trkpt>
<trkpt lat="32.717707756" lon="35.24145661">
<ele>227.84</ele>
<time>2011-12-24T09:36:07Z</time>
</trkpt>
<trkpt lat="32.7177243275" lon="35.2415168825">
<ele>228.625</ele>
<time>2011-12-24T09:36:11Z</time>
</trkpt>
<trkpt lat="32.71775867" lon="35.24158243">
<ele>230.74</ele>
<time>2011-12-24T09:36:16Z</time>
</trkpt>
<trkpt lat="32.71774982" lon="35.241642804">
<ele>231.66</ele>
<time>2011-12-24T09:36:21Z</time>
</trkpt>
<trkpt lat="32.71770499" lon="35.24169605">
<ele>230.56</ele>
<time>2011-12-24T09:36:26Z</time>
</trkpt>
<trkpt lat="32.717679838" lon="35.241737274">
<ele>229.98000000000002</ele>
<time>2011-12-24T09:36:31Z</time>
</trkpt>
<trkpt lat="32.7176753625" lon="35.2417877275">
<ele>230.775</ele>
<time>2011-12-24T09:36:35Z</time>
</trkpt>
<trkpt lat="32.71773123" lon="35.24180293">
<ele>232.01999999999998</ele>
<time>2011-12-24T09:36:40Z</time>
</trkpt>
<trkpt lat="32.7177985775" lon="35.2418076875">
<ele>232.45</ele>
<time>2011-12-24T09:36:44Z</time>
</trkpt>
<trkpt lat="32.71785295" lon="35.24181492">
<ele>231.64000000000001</ele>
<time>2011-12-24T09:36:49Z</time>
</trkpt>
<trkpt lat="32.7178658125" lon="35.241821115">
<ele>231.375</ele>
<time>2011-12-24T09:36:53Z</time>
</trkpt>
<trkpt lat="32.717809218" lon="35.241817402">
<ele>231.40000000000003</ele>
<time>2011-12-24T09:36:58Z</time>
</trkpt>
<trkpt lat="32.7177344725" lon="35.2418103825">
<ele>230.875</ele>
<time>2011-12-24T09:37:02Z</time>
</trkpt>
<trkpt lat="32.7176623" lon="35.241827205">
<ele>229.85000000000002</ele>
<time>2011-12-24T09:37:06Z</time>
</trkpt>
<trkpt lat="32.71759727" lon="35.24184499">
<ele>230.0</ele>
<time>2011-12-24T09:37:11Z</time>
</trkpt>
<trkpt lat="32.7175422825" lon="35.2418641375">
<ele>230.375</ele>
<time>2011-12-24T09:37:15Z</time>
</trkpt>
<trkpt lat="32.717494432" lon="35.241868728">
<ele>229.08</ele>
<time>2011-12-24T09:37:20Z</time>
</trkpt>
<trkpt lat="32.717414052" lon="35.241883128">
<ele>230.34</ele>
<time>2011-12-24T09:37:25Z</time>
</trkpt>
<trkpt lat="32.717367812" lon="35.241885832">
<ele>228.01999999999998</ele>
<time>2011-12-24T09:37:30Z</time>
</trkpt>
<trkpt lat="32.717344145" lon="35.241863185">
<ele>225.05</ele>
<time>2011-12-24T09:37:34Z</time>
</trkpt>
<trkpt lat="32.717325824" lon="35.241851074">
<ele>225.4</ele>
<time>2011-12-24T09:37:39Z</time>
</trkpt>
<trkpt lat="32.717288434" lon="35.241836276">
<ele>225.14000000000001</ele>
<time>2011-12-24T09:37:44Z</time>
</trkpt>
<trkpt lat="32.71722635" lon="35.241794846">
<ele>224.74</ele>
<time>2011-12-24T09:37:49Z</time>
</trkpt>
<trkpt lat="32.7171726275" lon="35.241744695">
<ele>224.47500000000002</ele>
<time>2011-12-24T09:37:53Z</time>
</trkpt>
<trkpt lat="32.71711706" lon="35.2417144225">
<ele>224.675</ele>
<time>2011-12-24T09:37:57Z</time>
</trkpt>
<trkpt lat="32.717056638" lon="35.241703304">
<ele>224.11999999999998</ele>
<time>2011-12-24T09:38:02Z</time>
</trkpt>
<trkpt lat="32.717046884" lon="35.241676548">
<ele>221.51999999999998</ele>
<time>2011-12-24T09:38:07Z</time>
</trkpt>
<trkpt lat="32.7170767625" lon="35.2416800975">
<ele>220.39999999999998</ele>
<time>2011-12-24T09:38:11Z</time>
</trkpt>
<trkpt lat="32.7171189" lon="35.241686295">
<ele>220.675</ele>
<time>2011-12-24T09:38:15Z</time>
</trkpt>
<trkpt lat="32.717164006" lon="35.241706512">
<ele>221.1</ele>
<time>2011-12-24T09:38:20Z</time>
</trkpt>
<trkpt lat="32.717206886" lon="35.241744506">
<ele>220.32000000000002</ele>
<time>2011-12-24T09:38:25Z</time>
</trkpt>
<trkpt lat="32.717264562" lon="35.241767328">
<ele>221.61999999999998</ele>
<time>2011-12-24T09:38:30Z</time>
</trkpt>
<trkpt lat="32.717306105" lon="35.2418013">
<ele>220.8</ele>
<time>2011-12-24T09:38:34Z</time>
</trkpt>
<trkpt lat="32.71734934" lon="35.24183871">
<ele>222.3</ele>
<time>2011-12-24T09:38:38Z</time>
</trkpt>
<trkpt lat="32.71741223" lon="35.24184139">
<ele>224.525</ele>
<time>2011-12-24T09:38:42Z</time>
</trkpt>
<trkpt lat="32.717483266" lon="35.241830966">
<ele>224.04000000000002</ele>
<time>2011-12-24T09:38:47Z</time>
</trkpt>
<trkpt lat="32.7175465625" lon="35.241848645">
<ele>224.675</ele>
<time>2011-12-24T09:38:51Z</time>
</trkpt>
<trkpt lat="32.717563495" lon="35.241898945">
<ele>227.125</ele>
<time>2011-12-24T09:38:55Z</time>
</trkpt>
<trkpt lat="32.717532914" lon="35.241970434">
<ele>228.0</ele>
<time>2011-12-24T09:39:00Z</time>
</trkpt>
<trkpt lat="32.7174881925" lon="35.2420407725">
<ele>229.2</ele>
<time>2011-12-24T09:39:04Z</time>
</trkpt>
<trkpt lat="32.717454916" lon="35.242102522">
<ele>229.74</ele>
<time>2011-12-24T09:39:09Z</time>
</trkpt>
<trkpt lat="32.717425898" lon="35.242192686">
<ele>229.92</ele>
<time>2011-12-24T09:39:14Z</time>
</trkpt>
<trkpt lat="32.71739259" lon="35.242272552">
<ele>231.14000000000001</ele>
<time>2011-12-24T09:39:19Z</time>
</trkpt>
<trkpt lat="32.717365398" lon="35.242330566">
<ele>231.78000000000003</ele>
<time>2011-12-24T09:39:24Z</time>
</trkpt>
<trkpt lat="32.717350146" lon="35.242395294">
<ele>232.66</ele>
<time>2011-12-24T09:39:29Z</time>
</trkpt>
<trkpt lat="32.71734413" lon="35.242470896">
<ele>233.5</ele>
<time>2011-12-24T09:39:34Z</time>
</trkpt>
<trkpt lat="32.71732609" lon="35.2425265275">
<ele>233.5</ele>
<time>2011-12-24T09:39:38Z</time>
</trkpt>
<trkpt lat="32.7173142225" lon="35.242547165">
<ele>232.65</ele>
<time>2011-12-24T09:39:42Z</time>
</trkpt>
<trkpt lat="32.717269032" lon="35.242572248">
<ele>232.16</ele>
<time>2011-12-24T09:39:47Z</time>
</trkpt>
<trkpt lat="32.7172265375" lon="35.242618465">
<ele>231.20000000000002</ele>
<time>2011-12-24T09:39:51Z</time>
</trkpt>
<trkpt lat="32.717187224" lon="35.242658598">
<ele>232.45999999999998</ele>
<time>2011-12-24T09:39:56Z</time>
</trkpt>
<trkpt lat="32.71713743" lon="35.242698898">
<ele>232.71999999999997</ele>
<time>2011-12-24T09:40:01Z</time>
</trkpt>
<trkpt lat="32.7170852875" lon="35.2427247275">
<ele>233.175</ele>
<time>2011-12-24T09:40:05Z</time>
</trkpt>
<trkpt lat="32.717032636" lon="35.242749266">
<ele>233.45999999999998</ele>
<time>2011-12-24T09:40:10Z</time>
</trkpt>
<trkpt lat="32.7169907" lon="35.2427802175">
<ele>234.2</ele>
<time>2011-12-24T09:40:14Z</time>
</trkpt>
<trkpt lat="32.71693801" lon="35.24278832">
<ele>235.15</ele>
<time>2011-12-24T09:40:18Z</time>
</trkpt>
<trkpt lat="32.716890594" lon="35.242833076">
<ele>235.56</ele>
<time>2011-12-24T09:40:23Z</time>
</trkpt>
<trkpt lat="32.716833486" lon="35.24285888">
<ele>236.14000000000001</ele>
<time>2011-12-24T09:40:28Z</time>
</trkpt>
<trkpt lat="32.716795802" lon="35.242945858">
<ele>238.08</ele>
<time>2011-12-24T09:40:33Z</time>
</trkpt>
<trkpt lat="32.716747468" lon="35.24306072">
<ele>241.66</ele>
<time>2011-12-24T09:40:38Z</time>
</trkpt>
<trkpt lat="32.71672125" lon="35.243139364">
<ele>243.18</ele>
<time>2011-12-24T09:40:43Z</time>
</trkpt>
<trkpt lat="32.716679856" lon="35.243209996">
<ele>243.44</ele>
<time>2011-12-24T09:40:48Z</time>
</trkpt>
<trkpt lat="32.7166535925" lon="35.2432469175">
<ele>240.97500000000002</ele>
<time>2011-12-24T09:40:52Z</time>
</trkpt>
<trkpt lat="32.7166331375" lon="35.2432866125">
<ele>240.54999999999998</ele>
<time>2011-12-24T09:40:56Z</time>
</trkpt>
<trkpt lat="32.71660727" lon="35.243335186">
<ele>241.18</ele>
<time>2011-12-24T09:41:01Z</time>
</trkpt>
<trkpt lat="32.7165860475" lon="35.243380555">
<ele>242.27499999999998</ele>
<time>2011-12-24T09:41:05Z</time>
</trkpt>
<trkpt lat="32.7165531775" lon="35.24341991">
<ele>242.64999999999998</ele>
<time>2011-12-24T09:41:09Z</time>
</trkpt>
<trkpt lat="32.716508472" lon="35.243493864">
<ele>244.45999999999998</ele>
<time>2011-12-24T09:41:14Z</time>
</trkpt>
<trkpt lat="32.7164771375" lon="35.2435478725">
<ele>245.72500000000002</ele>
<time>2011-12-24T09:41:18Z</time>
</trkpt>
<trkpt lat="32.716465272" lon="35.243581934">
<ele>244.95999999999998</ele>
<time>2011-12-24T09:41:23Z</time>
</trkpt>
<trkpt lat="32.716435364" lon="35.24361708">
<ele>243.92000000000002</ele>
<time>2011-12-24T09:41:28Z</time>
</trkpt>
<trkpt lat="32.716402768" lon="35.243667476">
<ele>245.01999999999998</ele>
<time>2011-12-24T09:41:33Z</time>
</trkpt>
<trkpt lat="32.716371774" lon="35.243715612">
<ele>246.35999999999999</ele>
<time>2011-12-24T09:41:38Z</time>
</trkpt>
<trkpt lat="32.71637705" lon="35.243770376">
<ele>246.88000000000002</ele>
<time>2011-12-24T09:41:43Z</time>
</trkpt>
<trkpt lat="32.716392358" lon="35.24382868">
<ele>247.64000000000001</ele>
<time>2011-12-24T09:41:48Z</time>
</trkpt>
<trkpt lat="32.716447726" lon="35.243834124">
<ele>248.44</ele>
<time>2011-12-24T09:41:53Z</time>
</trkpt>
<trkpt lat="32.7165022" lon="35.243839268">
<ele>249.72000000000003</ele>
<time>2011-12-24T09:41:58Z</time>
</trkpt>
<trkpt lat="32.7165412275" lon="35.243840175">
<ele>249.65</ele>
<time>2011-12-24T09:42:02Z</time>
</trkpt>
<trkpt lat="32.716582725" lon="35.2438092525">
<ele>250.325</ele>
<time>2011-12-24T09:42:06Z</time>
</trkpt>
<trkpt lat="32.716617312" lon="35.243757308">
<ele>251.3</ele>
<time>2011-12-24T09:42:11Z</time>
</trkpt>
<trkpt lat="32.716665226" lon="35.243711428">
<ele>251.26</ele>
<time>2011-12-24T09:42:16Z</time>
</trkpt>
<trkpt lat="32.716719906" lon="35.243696308">
<ele>251.44</ele>
<time>2011-12-24T09:42:21Z</time>
</trkpt>
<trkpt lat="32.71676414" lon="35.24368995">
<ele>251.73999999999995</ele>
<time>2011-12-24T09:42:26Z</time>
</trkpt>
<trkpt lat="32.716821638" lon="35.243672418">
<ele>252.24</ele>
<time>2011-12-24T09:42:31Z</time>
</trkpt>
<trkpt lat="32.716884146" lon="35.243626956">
<ele>250.21999999999997</ele>
<time>2011-12-24T09:42:36Z</time>
</trkpt>
<trkpt lat="32.716943225" lon="35.2435931425">
<ele>251.3</ele>
<time>2011-12-24T09:42:40Z</time>
</trkpt>
<trkpt lat="32.716993516" lon="35.243592676">
<ele>252.44</ele>
<time>2011-12-24T09:42:45Z</time>
</trkpt>
<trkpt lat="32.71704672" lon="35.24360573">
<ele>253.39999999999998</ele>
<time>2011-12-24T09:42:49Z</time>
</trkpt>
<trkpt lat="32.717099564" lon="35.243627902">
<ele>253.82000000000002</ele>
<time>2011-12-24T09:42:54Z</time>
</trkpt>
<trkpt lat="32.717139675" lon="35.24361887">
<ele>256.875</ele>
<time>2011-12-24T09:42:58Z</time>
</trkpt>
<trkpt lat="32.717196706" lon="35.243599734">
<ele>257.4</ele>
<time>2011-12-24T09:43:03Z</time>
</trkpt>
<trkpt lat="32.717264248" lon="35.243584418">
<ele>257.14</ele>
<time>2011-12-24T09:43:08Z</time>
</trkpt>
<trkpt lat="32.7173069975" lon="35.24359838">
<ele>257.925</ele>
<time>2011-12-24T09:43:12Z</time>
</trkpt>
<trkpt lat="32.71726845" lon="35.24365751">
<ele>259.35</ele>
<time>2011-12-24T09:43:16Z</time>
</trkpt>
<trkpt lat="32.71721835" lon="35.243718346">
<ele>260.58000000000004</ele>
<time>2011-12-24T09:43:21Z</time>
</trkpt>
<trkpt lat="32.717172638" lon="35.243766696">
<ele>260.21999999999997</ele>
<time>2011-12-24T09:43:26Z</time>
</trkpt>
<trkpt lat="32.717138024" lon="35.243803">
<ele>259.73999999999995</ele>
<time>2011-12-24T09:43:31Z</time>
</trkpt>
<trkpt lat="32.717103998" lon="35.24383884">
<ele>259.66</ele>
<time>2011-12-24T09:43:36Z</time>
</trkpt>
<trkpt lat="32.7170683975" lon="35.243882285">
<ele>260.025</ele>
<time>2011-12-24T09:43:40Z</time>
</trkpt>
<trkpt lat="32.717034588" lon="35.243924054">
<ele>259.65999999999997</ele>
<time>2011-12-24T09:43:45Z</time>
</trkpt>
<trkpt lat="32.716991436" lon="35.243972972">
<ele>259.58000000000004</ele>
<time>2011-12-24T09:43:50Z</time>
</trkpt>
<trkpt lat="32.71695788" lon="35.24402636">
<ele>259.44000000000005</ele>
<time>2011-12-24T09:43:55Z</time>
</trkpt>
<trkpt lat="32.71691528" lon="35.24406787">
<ele>259.79999999999995</ele>
<time>2011-12-24T09:43:59Z</time>
</trkpt>
<trkpt lat="32.7168857225" lon="35.2440937425">
<ele>259.72499999999997</ele>
<time>2011-12-24T09:44:03Z</time>
</trkpt>
<trkpt lat="32.716854564" lon="35.244122038">
<ele>259.6</ele>
<time>2011-12-24T09:44:08Z</time>
</trkpt>
<trkpt lat="32.716803682" lon="35.244182894">
<ele>260.52000000000004</ele>
<time>2011-12-24T09:44:13Z</time>
</trkpt>
<trkpt lat="32.71676804" lon="35.24423726">
<ele>261.5</ele>
<time>2011-12-24T09:44:17Z</time>
</trkpt>
<trkpt lat="32.716762746" lon="35.244288092">
<ele>261.76</ele>
<time>2011-12-24T09:44:22Z</time>
</trkpt>
<trkpt lat="32.71672896" lon="35.2443394125">
<ele>262.025</ele>
<time>2011-12-24T09:44:26Z</time>
</trkpt>
<trkpt lat="32.7166883" lon="35.244393384">
<ele>262.68</ele>
<time>2011-12-24T09:44:31Z</time>
</trkpt>
<trkpt lat="32.716655856" lon="35.244461142">
<ele>263.26</ele>
<time>2011-12-24T09:44:36Z</time>
</trkpt>
<trkpt lat="32.716646855" lon="35.2445261775">
<ele>263.875</ele>
<time>2011-12-24T09:44:40Z</time>
</trkpt>
<trkpt lat="32.71663602" lon="35.2445576425">
<ele>264.475</ele>
<time>2011-12-24T09:44:44Z</time>
</trkpt>
<trkpt lat="32.716620484" lon="35.244598554">
<ele>265.86</ele>
<time>2011-12-24T09:44:49Z</time>
</trkpt>
<trkpt lat="32.7166131225" lon="35.2446444125">
<ele>267.125</ele>
<time>2011-12-24T09:44:53Z</time>
</trkpt>
<trkpt lat="32.716623722" lon="35.244702998">
<ele>267.16</ele>
<time>2011-12-24T09:44:58Z</time>
</trkpt>
<trkpt lat="32.716640216" lon="35.24476622">
<ele>267.3</ele>
<time>2011-12-24T09:45:03Z</time>
</trkpt>
<trkpt lat="32.716632638" lon="35.244829402">
<ele>266.73999999999995</ele>
<time>2011-12-24T09:45:08Z</time>
</trkpt>
<trkpt lat="32.71662873" lon="35.24488108">
<ele>266.34</ele>
<time>2011-12-24T09:45:13Z</time>
</trkpt>
<trkpt lat="32.716627218" lon="35.244919228">
<ele>265.58000000000004</ele>
<time>2011-12-24T09:45:18Z</time>
</trkpt>
<trkpt lat="32.716608182" lon="35.244988718">
<ele>265.0</ele>
<time>2011-12-24T09:45:23Z</time>
</trkpt>
<trkpt lat="32.716582252" lon="35.245086882">
<ele>266.16</ele>
<time>2011-12-24T09:45:28Z</time>
</trkpt>
<trkpt lat="32.7165722325" lon="35.24514948">
<ele>268.375</ele>
<time>2011-12-24T09:45:32Z</time>
</trkpt>
<trkpt lat="32.7165772" lon="35.2451895675">
<ele>270.125</ele>
<time>2011-12-24T09:45:36Z</time>
</trkpt>
<trkpt lat="32.7165769225" lon="35.245235295">
<ele>269.6</ele>
<time>2011-12-24T09:45:40Z</time>
</trkpt>
<trkpt lat="32.716569258" lon="35.245289222">
<ele>271.48</ele>
<time>2011-12-24T09:45:45Z</time>
</trkpt>
<trkpt lat="32.71656862" lon="35.2453480775">
<ele>273.0</ele>
<time>2011-12-24T09:45:49Z</time>
</trkpt>
<trkpt lat="32.716594256" lon="35.24539846">
<ele>273.7</ele>
<time>2011-12-24T09:45:54Z</time>
</trkpt>
<trkpt lat="32.716641234" lon="35.245421308">
<ele>275.02</ele>
<time>2011-12-24T09:45:59Z</time>
</trkpt>
<trkpt lat="32.716678464" lon="35.245397138">
<ele>276.03999999999996</ele>
<time>2011-12-24T09:46:04Z</time>
</trkpt>
<trkpt lat="32.716712838" lon="35.245348384">
<ele>277.44</ele>
<time>2011-12-24T09:46:09Z</time>
</trkpt>
<trkpt lat="32.716753232" lon="35.245301742">
<ele>277.38</ele>
<time>2011-12-24T09:46:14Z</time>
</trkpt>
<trkpt lat="32.71679219" lon="35.2452759575">
<ele>278.275</ele>
<time>2011-12-24T09:46:18Z</time>
</trkpt>
<trkpt lat="32.716832634" lon="35.245243578">
<ele>278.41999999999996</ele>
<time>2011-12-24T09:46:23Z</time>
</trkpt>
<trkpt lat="32.7168752725" lon="35.245226585">
<ele>277.92500000000007</ele>
<time>2011-12-24T09:46:27Z</time>
</trkpt>
<trkpt lat="32.7169132425" lon="35.24521522">
<ele>277.07500000000005</ele>
<time>2011-12-24T09:46:31Z</time>
</trkpt>
<trkpt lat="32.7169483875" lon="35.245210785">
<ele>275.8</ele>
<time>2011-12-24T09:46:35Z</time>
</trkpt>
<trkpt lat="32.716986036" lon="35.24518552">
<ele>277.28000000000003</ele>
<time>2011-12-24T09:46:40Z</time>
</trkpt>
<trkpt lat="32.71703264" lon="35.245152262">
<ele>277.21999999999997</ele>
<time>2011-12-24T09:46:45Z</time>
</trkpt>
<trkpt lat="32.7170683825" lon="35.2451152775">
<ele>278.65</ele>
<time>2011-12-24T09:46:49Z</time>
</trkpt>
<trkpt lat="32.71711484" lon="35.245083474">
<ele>278.9</ele>
<time>2011-12-24T09:46:54Z</time>
</trkpt>
<trkpt lat="32.7171608825" lon="35.245067155">
<ele>279.675</ele>
<time>2011-12-24T09:46:58Z</time>
</trkpt>
<trkpt lat="32.717211002" lon="35.245059818">
<ele>279.12</ele>
<time>2011-12-24T09:47:03Z</time>
</trkpt>
<trkpt lat="32.717263676" lon="35.24504625">
<ele>279.21999999999997</ele>
<time>2011-12-24T09:47:08Z</time>
</trkpt>
<trkpt lat="32.717325904" lon="35.245034272">
<ele>280.3</ele>
<time>2011-12-24T09:47:13Z</time>
</trkpt>
<trkpt lat="32.717382612" lon="35.24505157">
<ele>280.26000000000005</ele>
<time>2011-12-24T09:47:18Z</time>
</trkpt>
<trkpt lat="32.717444326" lon="35.245044104">
<ele>281.88</ele>
<time>2011-12-24T09:47:23Z</time>
</trkpt>
<trkpt lat="32.717513948" lon="35.245048402">
<ele>282.82</ele>
<time>2011-12-24T09:47:28Z</time>
</trkpt>
<trkpt lat="32.717543495" lon="35.245087725">
<ele>280.92499999999995</ele>
<time>2011-12-24T09:47:32Z</time>
</trkpt>
<trkpt lat="32.717538892" lon="35.245156766">
<ele>282.7</ele>
<time>2011-12-24T09:47:37Z</time>
</trkpt>
<trkpt lat="32.7175334225" lon="35.2452321525">
<ele>285.17499999999995</ele>
<time>2011-12-24T09:47:41Z</time>
</trkpt>
<trkpt lat="32.71753996" lon="35.245302842">
<ele>285.9</ele>
<time>2011-12-24T09:47:46Z</time>
</trkpt>
<trkpt lat="32.71755228" lon="35.245375502">
<ele>284.65999999999997</ele>
<time>2011-12-24T09:47:51Z</time>
</trkpt>
<trkpt lat="32.71756464" lon="35.245435895">
<ele>284.85</ele>
<time>2011-12-24T09:47:55Z</time>
</trkpt>
<trkpt lat="32.7175606525" lon="35.24548439">
<ele>284.175</ele>
<time>2011-12-24T09:47:59Z</time>
</trkpt>
<trkpt lat="32.717603632" lon="35.24555345">
<ele>284.78000000000003</ele>
<time>2011-12-24T09:48:04Z</time>
</trkpt>
<trkpt lat="32.717622798" lon="35.245614094">
<ele>283.76000000000005</ele>
<time>2011-12-24T09:48:09Z</time>
</trkpt>
<trkpt lat="32.7176258375" lon="35.2456600475">
<ele>284.07500000000005</ele>
<time>2011-12-24T09:48:13Z</time>
</trkpt>
<trkpt lat="32.71765277" lon="35.245700478">
<ele>284.12</ele>
<time>2011-12-24T09:48:18Z</time>
</trkpt>
<trkpt lat="32.717722106" lon="35.245727186">
<ele>283.18</ele>
<time>2011-12-24T09:48:23Z</time>
</trkpt>
<trkpt lat="32.71779375" lon="35.245721458">
<ele>284.12</ele>
<time>2011-12-24T09:48:28Z</time>
</trkpt>
<trkpt lat="32.7178187" lon="35.245719004">
<ele>285.82000000000005</ele>
<time>2011-12-24T09:48:33Z</time>
</trkpt>
<trkpt lat="32.7177572225" lon="35.2457391225">
<ele>289.1</ele>
<time>2011-12-24T09:48:37Z</time>
</trkpt>
<trkpt lat="32.717700114" lon="35.245746068">
<ele>287.22</ele>
<time>2011-12-24T09:48:42Z</time>
</trkpt>
<trkpt lat="32.7176337325" lon="35.245728215">
<ele>288.325</ele>
<time>2011-12-24T09:48:46Z</time>
</trkpt>
<trkpt lat="32.71757628" lon="35.245741025">
<ele>291.32500000000005</ele>
<time>2011-12-24T09:48:50Z</time>
</trkpt>
<trkpt lat="32.717533866" lon="35.245812198">
<ele>294.32</ele>
<time>2011-12-24T09:48:55Z</time>
</trkpt>
<trkpt lat="32.717490974" lon="35.245886506">
<ele>295.23999999999995</ele>
<time>2011-12-24T09:49:00Z</time>
</trkpt>
<trkpt lat="32.7174415325" lon="35.2459357725">
<ele>296.225</ele>
<time>2011-12-24T09:49:04Z</time>
</trkpt>
<trkpt lat="32.71738296" lon="35.24597299">
<ele>296.82</ele>
<time>2011-12-24T09:49:09Z</time>
</trkpt>
<trkpt lat="32.7173226075" lon="35.2460145675">
<ele>299.25</ele>
<time>2011-12-24T09:49:13Z</time>
</trkpt>
<trkpt lat="32.717277736" lon="35.246056878">
<ele>300.73999999999995</ele>
<time>2011-12-24T09:49:18Z</time>
</trkpt>
<trkpt lat="32.71723245" lon="35.2461095875">
<ele>301.175</ele>
<time>2011-12-24T09:49:22Z</time>
</trkpt>
<trkpt lat="32.717196114" lon="35.24616759">
<ele>300.5</ele>
<time>2011-12-24T09:49:27Z</time>
</trkpt>
<trkpt lat="32.717157135" lon="35.24623715">
<ele>299.90000000000003</ele>
<time>2011-12-24T09:49:31Z</time>
</trkpt>
<trkpt lat="32.717113852" lon="35.246302308">
<ele>300.14</ele>
<time>2011-12-24T09:49:36Z</time>
</trkpt>
<trkpt lat="32.717078285" lon="35.24636663">
<ele>299.54999999999995</ele>
<time>2011-12-24T09:49:40Z</time>
</trkpt>
<trkpt lat="32.717045762" lon="35.246431098">
<ele>300.28</ele>
<time>2011-12-24T09:49:45Z</time>
</trkpt>
<trkpt lat="32.717001868" lon="35.246512774">
<ele>301.3</ele>
<time>2011-12-24T09:49:50Z</time>
</trkpt>
<trkpt lat="32.7169730675" lon="35.2465756875">
<ele>300.9</ele>
<time>2011-12-24T09:49:54Z</time>
</trkpt>
<trkpt lat="32.716954546" lon="35.246631582">
<ele>300.91999999999996</ele>
<time>2011-12-24T09:49:59Z</time>
</trkpt>
<trkpt lat="32.716930246" lon="35.246695318">
<ele>299.96000000000004</ele>
<time>2011-12-24T09:50:04Z</time>
</trkpt>
<trkpt lat="32.7169086325" lon="35.2467493925">
<ele>299.925</ele>
<time>2011-12-24T09:50:08Z</time>
</trkpt>
<trkpt lat="32.716876864" lon="35.246805434">
<ele>300.26</ele>
<time>2011-12-24T09:50:13Z</time>
</trkpt>
<trkpt lat="32.716838508" lon="35.246861614">
<ele>300.21999999999997</ele>
<time>2011-12-24T09:50:18Z</time>
</trkpt>
<trkpt lat="32.716809728" lon="35.24690952">
<ele>297.74000000000007</ele>
<time>2011-12-24T09:50:23Z</time>
</trkpt>
<trkpt lat="32.716775894" lon="35.246954418">
<ele>297.52</ele>
<time>2011-12-24T09:50:28Z</time>
</trkpt>
<trkpt lat="32.716712942" lon="35.247009628">
<ele>297.7</ele>
<time>2011-12-24T09:50:33Z</time>
</trkpt>
<trkpt lat="32.71664932" lon="35.24706984">
<ele>297.65</ele>
<time>2011-12-24T09:50:37Z</time>
</trkpt>
<trkpt lat="32.716620185" lon="35.2471140975">
<ele>297.6</ele>
<time>2011-12-24T09:50:41Z</time>
</trkpt>
<trkpt lat="32.716584008" lon="35.247156186">
<ele>297.99999999999994</ele>
<time>2011-12-24T09:50:46Z</time>
</trkpt>
<trkpt lat="32.71656137" lon="35.247192475">
<ele>297.975</ele>
<time>2011-12-24T09:50:50Z</time>
</trkpt>
<trkpt lat="32.716550614" lon="35.247233972">
<ele>296.02</ele>
<time>2011-12-24T09:50:55Z</time>
</trkpt>
<trkpt lat="32.7165529275" lon="35.2472658925">
<ele>294.25</ele>
<time>2011-12-24T09:50:59Z</time>
</trkpt>
<trkpt lat="32.716604746" lon="35.247336458">
<ele>293.5</ele>
<time>2011-12-24T09:51:04Z</time>
</trkpt>
<trkpt lat="32.716623532" lon="35.247423546">
<ele>294.21999999999997</ele>
<time>2011-12-24T09:51:09Z</time>
</trkpt>
<trkpt lat="32.716621478" lon="35.24749248">
<ele>295.08000000000004</ele>
<time>2011-12-24T09:51:14Z</time>
</trkpt>
<trkpt lat="32.7166129275" lon="35.247555955">
<ele>295.075</ele>
<time>2011-12-24T09:51:18Z</time>
</trkpt>
<trkpt lat="32.716612564" lon="35.247624516">
<ele>294.67999999999995</ele>
<time>2011-12-24T09:51:23Z</time>
</trkpt>
<trkpt lat="32.71659944" lon="35.247702248">
<ele>294.12</ele>
<time>2011-12-24T09:51:28Z</time>
</trkpt>
<trkpt lat="32.716592008" lon="35.247759642">
<ele>294.03999999999996</ele>
<time>2011-12-24T09:51:33Z</time>
</trkpt>
<trkpt lat="32.7165793675" lon="35.247820175">
<ele>295.8</ele>
<time>2011-12-24T09:51:37Z</time>
</trkpt>
<trkpt lat="32.71657121" lon="35.247874986">
<ele>296.78000000000003</ele>
<time>2011-12-24T09:51:42Z</time>
</trkpt>
<trkpt lat="32.716567615" lon="35.24792339">
<ele>298.95000000000005</ele>
<time>2011-12-24T09:51:46Z</time>
</trkpt>
<trkpt lat="32.716568966" lon="35.247996484">
<ele>299.4</ele>
<time>2011-12-24T09:51:51Z</time>
</trkpt>
<trkpt lat="32.716560136" lon="35.248070164">
<ele>299.15999999999997</ele>
<time>2011-12-24T09:51:56Z</time>
</trkpt>
<trkpt lat="32.716550048" lon="35.248132184">
<ele>299.59999999999997</ele>
<time>2011-12-24T09:52:01Z</time>
</trkpt>
<trkpt lat="32.71654224" lon="35.248181895">
<ele>300.775</ele>
<time>2011-12-24T09:52:05Z</time>
</trkpt>
<trkpt lat="32.71655064" lon="35.248235365">
<ele>300.42499999999995</ele>
<time>2011-12-24T09:52:09Z</time>
</trkpt>
<trkpt lat="32.716568822" lon="35.24829309">
<ele>300.74</ele>
<time>2011-12-24T09:52:14Z</time>
</trkpt>
<trkpt lat="32.71656876" lon="35.2483491125">
<ele>302.875</ele>
<time>2011-12-24T09:52:18Z</time>
</trkpt>
<trkpt lat="32.716563368" lon="35.248420742">
<ele>301.97999999999996</ele>
<time>2011-12-24T09:52:23Z</time>
</trkpt>
<trkpt lat="32.716544404" lon="35.248501456">
<ele>301.96</ele>
<time>2011-12-24T09:52:28Z</time>
</trkpt>
<trkpt lat="32.71652172" lon="35.2485675875">
<ele>301.775</ele>
<time>2011-12-24T09:52:32Z</time>
</trkpt>
<trkpt lat="32.71650535" lon="35.2486077925">
<ele>298.6</ele>
<time>2011-12-24T09:52:36Z</time>
</trkpt>
<trkpt lat="32.71652371" lon="35.248658442">
<ele>297.54</ele>
<time>2011-12-24T09:52:41Z</time>
</trkpt>
<trkpt lat="32.716541838" lon="35.24872817">
<ele>297.98</ele>
<time>2011-12-24T09:52:46Z</time>
</trkpt>
<trkpt lat="32.716554625" lon="35.2487597375">
<ele>298.65</ele>
<time>2011-12-24T09:52:50Z</time>
</trkpt>
<trkpt lat="32.716554854" lon="35.24878196">
<ele>301.58000000000004</ele>
<time>2011-12-24T09:52:55Z</time>
</trkpt>
<trkpt lat="32.7165609825" lon="35.248822365">
<ele>303.475</ele>
<time>2011-12-24T09:52:59Z</time>
</trkpt>
<trkpt lat="32.7165596" lon="35.248868516">
<ele>304.41999999999996</ele>
<time>2011-12-24T09:53:04Z</time>
</trkpt>
<trkpt lat="32.716561882" lon="35.248932994">
<ele>306.38</ele>
<time>2011-12-24T09:53:09Z</time>
</trkpt>
<trkpt lat="32.71657521" lon="35.249006904">
<ele>309.22</ele>
<time>2011-12-24T09:53:14Z</time>
</trkpt>
<trkpt lat="32.716575034" lon="35.24908489">
<ele>309.3</ele>
<time>2011-12-24T09:53:19Z</time>
</trkpt>
<trkpt lat="32.7165672625" lon="35.2491556125">
<ele>309.45000000000005</ele>
<time>2011-12-24T09:53:23Z</time>
</trkpt>
<trkpt lat="32.716562378" lon="35.24920811">
<ele>307.5</ele>
<time>2011-12-24T09:53:28Z</time>
</trkpt>
<trkpt lat="32.716545925" lon="35.2492687575">
<ele>307.6</ele>
<time>2011-12-24T09:53:32Z</time>
</trkpt>
<trkpt lat="32.7165372475" lon="35.249320365">
<ele>307.225</ele>
<time>2011-12-24T09:53:36Z</time>
</trkpt>
<trkpt lat="32.716528642" lon="35.249369734">
<ele>306.91999999999996</ele>
<time>2011-12-24T09:53:41Z</time>
</trkpt>
<trkpt lat="32.716527216" lon="35.24942428">
<ele>308.2</ele>
<time>2011-12-24T09:53:46Z</time>
</trkpt>
<trkpt lat="32.716526912" lon="35.249464188">
<ele>309.94</ele>
<time>2011-12-24T09:53:51Z</time>
</trkpt>
<trkpt lat="32.716524596" lon="35.249512812">
<ele>310.03999999999996</ele>
<time>2011-12-24T09:53:56Z</time>
</trkpt>
<trkpt lat="32.716519938" lon="35.24956093">
<ele>311.0400000000001</ele>
<time>2011-12-24T09:54:01Z</time>
</trkpt>
<trkpt lat="32.7165246425" lon="35.2496070825">
<ele>311.7</ele>
<time>2011-12-24T09:54:05Z</time>
</trkpt>
<trkpt lat="32.71653175" lon="35.24965296">
<ele>312.7</ele>
<time>2011-12-24T09:54:09Z</time>
</trkpt>
<trkpt lat="32.716533508" lon="35.249706256">
<ele>313.0</ele>
<time>2011-12-24T09:54:14Z</time>
</trkpt>
<trkpt lat="32.716522762" lon="35.249760332">
<ele>313.58000000000004</ele>
<time>2011-12-24T09:54:19Z</time>
</trkpt>
<trkpt lat="32.7165044975" lon="35.2498127075">
<ele>316.625</ele>
<time>2011-12-24T09:54:23Z</time>
</trkpt>
<trkpt lat="32.716502492" lon="35.249871848">
<ele>316.44</ele>
<time>2011-12-24T09:54:28Z</time>
</trkpt>
<trkpt lat="32.716515375" lon="35.24992503">
<ele>317.875</ele>
<time>2011-12-24T09:54:32Z</time>
</trkpt>
<trkpt lat="32.716535096" lon="35.249980226">
<ele>320.6</ele>
<time>2011-12-24T09:54:37Z</time>
</trkpt>
<trkpt lat="32.716549605" lon="35.25003316">
<ele>322.07500000000005</ele>
<time>2011-12-24T09:54:41Z</time>
</trkpt>
<trkpt lat="32.71657227" lon="35.250070698">
<ele>323.18</ele>
<time>2011-12-24T09:54:46Z</time>
</trkpt>
<trkpt lat="32.7166003825" lon="35.250114385">
<ele>324.95000000000005</ele>
<time>2011-12-24T09:54:50Z</time>
</trkpt>
<trkpt lat="32.716625388" lon="35.250165944">
<ele>326.88</ele>
<time>2011-12-24T09:54:55Z</time>
</trkpt>
<trkpt lat="32.716644902" lon="35.250226106">
<ele>329.71999999999997</ele>
<time>2011-12-24T09:55:00Z</time>
</trkpt>
<trkpt lat="32.7166470175" lon="35.2502667275">
<ele>330.625</ele>
<time>2011-12-24T09:55:04Z</time>
</trkpt>
<trkpt lat="32.716618598" lon="35.250314628">
<ele>331.71999999999997</ele>
<time>2011-12-24T09:55:09Z</time>
</trkpt>
<trkpt lat="32.716564152" lon="35.250354278">
<ele>333.64</ele>
<time>2011-12-24T09:55:14Z</time>
</trkpt>
<trkpt lat="32.71652195" lon="35.25040689">
<ele>334.65999999999997</ele>
<time>2011-12-24T09:55:19Z</time>
</trkpt>
<trkpt lat="32.7165104725" lon="35.2504358775">
<ele>332.05</ele>
<time>2011-12-24T09:55:23Z</time>
</trkpt>
<trkpt lat="32.716538224" lon="35.250456586">
<ele>331.26000000000005</ele>
<time>2011-12-24T09:55:28Z</time>
</trkpt>
<trkpt lat="32.716564195" lon="35.25047671">
<ele>331.34999999999997</ele>
<time>2011-12-24T09:55:32Z</time>
</trkpt>
<trkpt lat="32.716603376" lon="35.25048094">
<ele>332.98</ele>
<time>2011-12-24T09:55:37Z</time>
</trkpt>
<trkpt lat="32.71664464" lon="35.250495145">
<ele>331.15</ele>
<time>2011-12-24T09:55:41Z</time>
</trkpt>
<trkpt lat="32.716666542" lon="35.250509214">
<ele>329.78000000000003</ele>
<time>2011-12-24T09:55:46Z</time>
</trkpt>
<trkpt lat="32.71667559" lon="35.250513684">
<ele>330.23999999999995</ele>
<time>2011-12-24T09:55:51Z</time>
</trkpt>
<trkpt lat="32.716683335" lon="35.250517">
<ele>330.4</ele>
<time>2011-12-24T09:55:55Z</time>
</trkpt>
<trkpt lat="32.71668523" lon="35.250518632">
<ele>330.5</ele>
<time>2011-12-24T09:56:00Z</time>
</trkpt>
<trkpt lat="32.7167866425" lon="35.2505191175">
<ele>330.575</ele>
<time>2011-12-24T09:56:04Z</time>
</trkpt>
<trkpt lat="32.71689805" lon="35.2505405825">
<ele>330.425</ele>
<time>2011-12-24T09:56:08Z</time>
</trkpt>
<trkpt lat="32.716973606" lon="35.25055788">
<ele>333.17999999999995</ele>
<time>2011-12-24T09:56:13Z</time>
</trkpt>
<trkpt lat="32.717030345" lon="35.2505636925">
<ele>332.82500000000005</ele>
<time>2011-12-24T09:56:17Z</time>
</trkpt>
<trkpt lat="32.717052962" lon="35.250578576">
<ele>334.0</ele>
<time>2011-12-24T09:56:22Z</time>
</trkpt>
<trkpt lat="32.717058494" lon="35.250601206">
<ele>334.06</ele>
<time>2011-12-24T09:56:27Z</time>
</trkpt>
<trkpt lat="32.7170569925" lon="35.2506117625">
<ele>333.0</ele>
<time>2011-12-24T09:56:31Z</time>
</trkpt>
<trkpt lat="32.717136134" lon="35.250618352">
<ele>332.18</ele>
<time>2011-12-24T09:56:36Z</time>
</trkpt>
<trkpt lat="32.7172250525" lon="35.2505723575">
<ele>333.925</ele>
<time>2011-12-24T09:56:40Z</time>
</trkpt>
<trkpt lat="32.717258538" lon="35.250498738">
<ele>335.3</ele>
<time>2011-12-24T09:56:45Z</time>
</trkpt>
<trkpt lat="32.717289148" lon="35.250432398">
<ele>334.00000000000006</ele>
<time>2011-12-24T09:56:50Z</time>
</trkpt>
<trkpt lat="32.7173033775" lon="35.25034472">
<ele>332.3</ele>
<time>2011-12-24T09:56:54Z</time>
</trkpt>
<trkpt lat="32.717273112" lon="35.250296164">
<ele>332.22</ele>
<time>2011-12-24T09:56:59Z</time>
</trkpt>
<trkpt lat="32.717231825" lon="35.2502482825">
<ele>331.825</ele>
<time>2011-12-24T09:57:03Z</time>
</trkpt>
<trkpt lat="32.717192352" lon="35.25019744">
<ele>331.62</ele>
<time>2011-12-24T09:57:08Z</time>
</trkpt>
<trkpt lat="32.7171645625" lon="35.2501851825">
<ele>330.7</ele>
<time>2011-12-24T09:57:12Z</time>
</trkpt>
<trkpt lat="32.717205698" lon="35.250216836">
<ele>329.96</ele>
<time>2011-12-24T09:57:17Z</time>
</trkpt>
<trkpt lat="32.7172332375" lon="35.25026952">
<ele>329.57500000000005</ele>
<time>2011-12-24T09:57:21Z</time>
</trkpt>
<trkpt lat="32.717279816" lon="35.250332692">
<ele>328.58000000000004</ele>
<time>2011-12-24T09:57:26Z</time>
</trkpt>
<trkpt lat="32.717278132" lon="35.250415302">
<ele>329.91999999999996</ele>
<time>2011-12-24T09:57:31Z</time>
</trkpt>
<trkpt lat="32.717281464" lon="35.250497912">
<ele>330.72</ele>
<time>2011-12-24T09:57:36Z</time>
</trkpt>
<trkpt lat="32.717279554" lon="35.250569014">
<ele>329.04</ele>
<time>2011-12-24T09:57:41Z</time>
</trkpt>
<trkpt lat="32.717254612" lon="35.250626414">
<ele>327.84</ele>
<time>2011-12-24T09:57:46Z</time>
</trkpt>
<trkpt lat="32.717206178" lon="35.250689722">
<ele>329.8</ele>
<time>2011-12-24T09:57:51Z</time>
</trkpt>
<trkpt lat="32.7171737825" lon="35.2507463325">
<ele>331.20000000000005</ele>
<time>2011-12-24T09:57:55Z</time>
</trkpt>
<trkpt lat="32.717141916" lon="35.250798494">
<ele>330.26000000000005</ele>
<time>2011-12-24T09:58:00Z</time>
</trkpt>
<trkpt lat="32.71711116" lon="35.25084466">
<ele>329.71999999999997</ele>
<time>2011-12-24T09:58:05Z</time>
</trkpt>
<trkpt lat="32.7170614525" lon="35.2509095725">
<ele>330.5</ele>
<time>2011-12-24T09:58:09Z</time>
</trkpt>
<trkpt lat="32.71698958" lon="35.25097237">
<ele>332.53999999999996</ele>
<time>2011-12-24T09:58:14Z</time>
</trkpt>
<trkpt lat="32.716935394" lon="35.251020374">
<ele>331.84000000000003</ele>
<time>2011-12-24T09:58:19Z</time>
</trkpt>
<trkpt lat="32.716902676" lon="35.25108044">
<ele>331.36</ele>
<time>2011-12-24T09:58:24Z</time>
</trkpt>
<trkpt lat="32.7169117675" lon="35.251122195">
<ele>331.42499999999995</ele>
<time>2011-12-24T09:58:28Z</time>
</trkpt>
<trkpt lat="32.716949775" lon="35.251132635">
<ele>331.775</ele>
<time>2011-12-24T09:58:32Z</time>
</trkpt>
<trkpt lat="32.717006846" lon="35.251094368">
<ele>333.52</ele>
<time>2011-12-24T09:58:37Z</time>
</trkpt>
<trkpt lat="32.7170623525" lon="35.2510629675">
<ele>334.025</ele>
<time>2011-12-24T09:58:41Z</time>
</trkpt>
<trkpt lat="32.717069626" lon="35.25106343">
<ele>333.43999999999994</ele>
<time>2011-12-24T09:58:46Z</time>
</trkpt>
<trkpt lat="32.7170792425" lon="35.25106144">
<ele>333.65</ele>
<time>2011-12-24T09:58:50Z</time>
</trkpt>
<trkpt lat="32.717091816" lon="35.251071908">
<ele>333.5</ele>
<time>2011-12-24T09:58:55Z</time>
</trkpt>
<trkpt lat="32.7171386375" lon="35.2511127925">
<ele>332.775</ele>
<time>2011-12-24T09:58:59Z</time>
</trkpt>
<trkpt lat="32.71717977" lon="35.251160338">
<ele>331.4</ele>
<time>2011-12-24T09:59:04Z</time>
</trkpt>
<trkpt lat="32.717214568" lon="35.251209232">
<ele>331.05999999999995</ele>
<time>2011-12-24T09:59:09Z</time>
</trkpt>
<trkpt lat="32.7172543375" lon="35.25125101">
<ele>332.45000000000005</ele>
<time>2011-12-24T09:59:13Z</time>
</trkpt>
<trkpt lat="32.717289754" lon="35.251296678">
<ele>333.17999999999995</ele>
<time>2011-12-24T09:59:18Z</time>
</trkpt>
<trkpt lat="32.71732266" lon="35.2513534575">
<ele>335.22499999999997</ele>
<time>2011-12-24T09:59:22Z</time>
</trkpt>
<trkpt lat="32.717352528" lon="35.251404424">
<ele>335.62</ele>
<time>2011-12-24T09:59:27Z</time>
</trkpt>
<trkpt lat="32.7173900825" lon="35.251437">
<ele>335.0</ele>
<time>2011-12-24T09:59:31Z</time>
</trkpt>
<trkpt lat="32.7174542825" lon="35.2514554175">
<ele>335.5</ele>
<time>2011-12-24T09:59:35Z</time>
</trkpt>
<trkpt lat="32.7175361475" lon="35.251471995">
<ele>336.525</ele>
<time>2011-12-24T09:59:39Z</time>
</trkpt>
<trkpt lat="32.717608556" lon="35.251486246">
<ele>337.12</ele>
<time>2011-12-24T09:59:44Z</time>
</trkpt>
<trkpt lat="32.71764905" lon="35.2514950125">
<ele>336.8</ele>
<time>2011-12-24T09:59:48Z</time>
</trkpt>
<trkpt lat="32.7176515175" lon="35.251516885">
<ele>336.65000000000003</ele>
<time>2011-12-24T09:59:52Z</time>
</trkpt>
<trkpt lat="32.717656366" lon="35.251519594">
<ele>336.98</ele>
<time>2011-12-24T09:59:57Z</time>
</trkpt>
<trkpt lat="32.71769477" lon="35.25149359">
<ele>336.625</ele>
<time>2011-12-24T10:00:01Z</time>
</trkpt>
<trkpt lat="32.71774956" lon="35.25148079">
<ele>338.06</ele>
<time>2011-12-24T10:00:06Z</time>
</trkpt>
<trkpt lat="32.71779197" lon="35.2514692125">
<ele>339.6</ele>
<time>2011-12-24T10:00:10Z</time>
</trkpt>
<trkpt lat="32.7178293125" lon="35.2514426275">
<ele>340.75</ele>
<time>2011-12-24T10:00:14Z</time>
</trkpt>
<trkpt lat="32.7178733875" lon="35.251406215">
<ele>341.65000000000003</ele>
<time>2011-12-24T10:00:18Z</time>
</trkpt>
<trkpt lat="32.7179109875" lon="35.2513712775">
<ele>342.35</ele>
<time>2011-12-24T10:00:22Z</time>
</trkpt>
<trkpt lat="32.7179448875" lon="35.251334035">
<ele>342.54999999999995</ele>
<time>2011-12-24T10:00:26Z</time>
</trkpt>
<trkpt lat="32.717995186" lon="35.251322796">
<ele>342.1</ele>
<time>2011-12-24T10:00:31Z</time>
</trkpt>
<trkpt lat="32.718029098" lon="35.25134069">
<ele>341.62</ele>
<time>2011-12-24T10:00:36Z</time>
</trkpt>
<trkpt lat="32.7180592775" lon="35.2513599875">
<ele>340.375</ele>
<time>2011-12-24T10:00:40Z</time>
</trkpt>
<trkpt lat="32.718084265" lon="35.2513941725">
<ele>338.8</ele>
<time>2011-12-24T10:00:44Z</time>
</trkpt>
<trkpt lat="32.7181362225" lon="35.2514418975">
<ele>338.575</ele>
<time>2011-12-24T10:00:48Z</time>
</trkpt>
<trkpt lat="32.71819265" lon="35.251476075">
<ele>338.1</ele>
<time>2011-12-24T10:00:52Z</time>
</trkpt>
<trkpt lat="32.718232368" lon="35.251523888">
<ele>336.91999999999996</ele>
<time>2011-12-24T10:00:57Z</time>
</trkpt>
<trkpt lat="32.7182698025" lon="35.2515793125">
<ele>336.275</ele>
<time>2011-12-24T10:01:01Z</time>
</trkpt>
<trkpt lat="32.718303195" lon="35.251614245">
<ele>336.47499999999997</ele>
<time>2011-12-24T10:01:05Z</time>
</trkpt>
<trkpt lat="32.718344946" lon="35.251648726">
<ele>334.34000000000003</ele>
<time>2011-12-24T10:01:10Z</time>
</trkpt>
<trkpt lat="32.71840954" lon="35.251692092">
<ele>334.32</ele>
<time>2011-12-24T10:01:15Z</time>
</trkpt>
<trkpt lat="32.71845711" lon="35.251745548">
<ele>335.28</ele>
<time>2011-12-24T10:01:20Z</time>
</trkpt>
<trkpt lat="32.7184959875" lon="35.25179001">
<ele>335.5</ele>
<time>2011-12-24T10:01:24Z</time>
</trkpt>
<trkpt lat="32.718510814" lon="35.251823976">
<ele>334.08000000000004</ele>
<time>2011-12-24T10:01:29Z</time>
</trkpt>
<trkpt lat="32.7185532975" lon="35.251838165">
<ele>333.875</ele>
<time>2011-12-24T10:01:33Z</time>
</trkpt>
<trkpt lat="32.71861051" lon="35.251843816">
<ele>332.99999999999994</ele>
<time>2011-12-24T10:01:38Z</time>
</trkpt>
<trkpt lat="32.718659394" lon="35.251821926">
<ele>331.98</ele>
<time>2011-12-24T10:01:43Z</time>
</trkpt>
<trkpt lat="32.718693022" lon="35.25178014">
<ele>330.56</ele>
<time>2011-12-24T10:01:48Z</time>
</trkpt>
<trkpt lat="32.718738465" lon="35.2517509225">
<ele>329.65</ele>
<time>2011-12-24T10:01:52Z</time>
</trkpt>
<trkpt lat="32.718782116" lon="35.251709674">
<ele>329.71999999999997</ele>
<time>2011-12-24T10:01:57Z</time>
</trkpt>
<trkpt lat="32.7188007275" lon="35.2516718525">
<ele>327.925</ele>
<time>2011-12-24T10:02:01Z</time>
</trkpt>
<trkpt lat="32.718800908" lon="35.251605686">
<ele>327.34</ele>
<time>2011-12-24T10:02:06Z</time>
</trkpt>
<trkpt lat="32.7187894775" lon="35.251553385">
<ele>326.95</ele>
<time>2011-12-24T10:02:10Z</time>
</trkpt>
<trkpt lat="32.718775954" lon="35.2515122">
<ele>324.98</ele>
<time>2011-12-24T10:02:15Z</time>
</trkpt>
<trkpt lat="32.7187624675" lon="35.2514745775">
<ele>324.1</ele>
<time>2011-12-24T10:02:19Z</time>
</trkpt>
<trkpt lat="32.7187302725" lon="35.2514293125">
<ele>324.9</ele>
<time>2011-12-24T10:02:23Z</time>
</trkpt>
<trkpt lat="32.7187071175" lon="35.25138922">
<ele>324.25</ele>
<time>2011-12-24T10:02:27Z</time>
</trkpt>
<trkpt lat="32.71868132" lon="35.251322286">
<ele>325.06000000000006</ele>
<time>2011-12-24T10:02:32Z</time>
</trkpt>
<trkpt lat="32.718646238" lon="35.251245504">
<ele>324.41999999999996</ele>
<time>2011-12-24T10:02:37Z</time>
</trkpt>
<trkpt lat="32.718612908" lon="35.251172106">
<ele>325.21999999999997</ele>
<time>2011-12-24T10:02:42Z</time>
</trkpt>
<trkpt lat="32.718611052" lon="35.251115066">
<ele>325.96</ele>
<time>2011-12-24T10:02:47Z</time>
</trkpt>
<trkpt lat="32.718635992" lon="35.251081208">
<ele>324.44</ele>
<time>2011-12-24T10:02:52Z</time>
</trkpt>
<trkpt lat="32.7186756775" lon="35.25106192">
<ele>324.7</ele>
<time>2011-12-24T10:02:56Z</time>
</trkpt>
<trkpt lat="32.718720628" lon="35.251064654">
<ele>325.04</ele>
<time>2011-12-24T10:03:01Z</time>
</trkpt>
<trkpt lat="32.718772145" lon="35.2510745525">
<ele>326.875</ele>
<time>2011-12-24T10:03:05Z</time>
</trkpt>
<trkpt lat="32.718788686" lon="35.251082884">
<ele>327.28000000000003</ele>
<time>2011-12-24T10:03:10Z</time>
</trkpt>
<trkpt lat="32.71880155" lon="35.251091915">
<ele>324.7</ele>
<time>2011-12-24T10:03:14Z</time>
</trkpt>
<trkpt lat="32.718845384" lon="35.251116026">
<ele>322.38</ele>
<time>2011-12-24T10:03:19Z</time>
</trkpt>
<trkpt lat="32.71887928" lon="35.2511363175">
<ele>322.20000000000005</ele>
<time>2011-12-24T10:03:23Z</time>
</trkpt>
<trkpt lat="32.718932618" lon="35.251172608">
<ele>322.8</ele>
<time>2011-12-24T10:03:28Z</time>
</trkpt>
<trkpt lat="32.7189951225" lon="35.2512081775">
<ele>323.175</ele>
<time>2011-12-24T10:03:32Z</time>
</trkpt>
<trkpt lat="32.719028248" lon="35.251229752">
<ele>321.06000000000006</ele>
<time>2011-12-24T10:03:37Z</time>
</trkpt>
<trkpt lat="32.7190476075" lon="35.25126168">
<ele>319.225</ele>
<time>2011-12-24T10:03:41Z</time>
</trkpt>
<trkpt lat="32.71907858" lon="35.2512983875">
<ele>318.7</ele>
<time>2011-12-24T10:03:45Z</time>
</trkpt>
<trkpt lat="32.7191232025" lon="35.2513345575">
<ele>318.6</ele>
<time>2011-12-24T10:03:49Z</time>
</trkpt>
<trkpt lat="32.719170712" lon="35.251390434">
<ele>320.30000000000007</ele>
<time>2011-12-24T10:03:54Z</time>
</trkpt>
<trkpt lat="32.719214348" lon="35.25144985">
<ele>321.86</ele>
<time>2011-12-24T10:03:59Z</time>
</trkpt>
<trkpt lat="32.719252755" lon="35.2514997775">
<ele>321.42499999999995</ele>
<time>2011-12-24T10:04:03Z</time>
</trkpt>
<trkpt lat="32.719270434" lon="35.251560788">
<ele>322.1</ele>
<time>2011-12-24T10:04:08Z</time>
</trkpt>
<trkpt lat="32.7192950675" lon="35.2516031825">
<ele>323.925</ele>
<time>2011-12-24T10:04:12Z</time>
</trkpt>
<trkpt lat="32.7193351325" lon="35.251632255">
<ele>326.27500000000003</ele>
<time>2011-12-24T10:04:16Z</time>
</trkpt>
<trkpt lat="32.719373734" lon="35.251667788">
<ele>325.0</ele>
<time>2011-12-24T10:04:21Z</time>
</trkpt>
<trkpt lat="32.7193992" lon="35.251716446">
<ele>323.56000000000006</ele>
<time>2011-12-24T10:04:26Z</time>
</trkpt>
<trkpt lat="32.7194301275" lon="35.251771885">
<ele>322.85</ele>
<time>2011-12-24T10:04:30Z</time>
</trkpt>
<trkpt lat="32.719444722" lon="35.251823802">
<ele>324.64</ele>
<time>2011-12-24T10:04:35Z</time>
</trkpt>
<trkpt lat="32.719458628" lon="35.25187721">
<ele>325.48</ele>
<time>2011-12-24T10:04:40Z</time>
</trkpt>
<trkpt lat="32.7194737675" lon="35.2519214275">
<ele>326.775</ele>
<time>2011-12-24T10:04:44Z</time>
</trkpt>
<trkpt lat="32.71948721" lon="35.2519543775">
<ele>328.075</ele>
<time>2011-12-24T10:04:48Z</time>
</trkpt>
<trkpt lat="32.719507162" lon="35.251997248">
<ele>327.74</ele>
<time>2011-12-24T10:04:53Z</time>
</trkpt>
<trkpt lat="32.719537422" lon="35.252047348">
<ele>328.68</ele>
<time>2011-12-24T10:04:58Z</time>
</trkpt>
<trkpt lat="32.719547678" lon="35.252111204">
<ele>328.22</ele>
<time>2011-12-24T10:05:03Z</time>
</trkpt>
<trkpt lat="32.7195414125" lon="35.25217214">
<ele>325.70000000000005</ele>
<time>2011-12-24T10:05:07Z</time>
</trkpt>
<trkpt lat="32.719541166" lon="35.252238">
<ele>327.84000000000003</ele>
<time>2011-12-24T10:05:12Z</time>
</trkpt>
<trkpt lat="32.71953585" lon="35.252280395">
<ele>327.97499999999997</ele>
<time>2011-12-24T10:05:16Z</time>
</trkpt>
<trkpt lat="32.71953662" lon="35.2523156875">
<ele>326.27500000000003</ele>
<time>2011-12-24T10:05:20Z</time>
</trkpt>
<trkpt lat="32.719549002" lon="35.252358882">
<ele>323.52</ele>
<time>2011-12-24T10:05:25Z</time>
</trkpt>
<trkpt lat="32.7195637875" lon="35.252376455">
<ele>321.475</ele>
<time>2011-12-24T10:05:29Z</time>
</trkpt>
<trkpt lat="32.719573572" lon="35.252423862">
<ele>321.64</ele>
<time>2011-12-24T10:05:34Z</time>
</trkpt>
<trkpt lat="32.719560424" lon="35.252491954">
<ele>321.86</ele>
<time>2011-12-24T10:05:39Z</time>
</trkpt>
<trkpt lat="32.719559126" lon="35.252565052">
<ele>321.52</ele>
<time>2011-12-24T10:05:44Z</time>
</trkpt>
<trkpt lat="32.719572036" lon="35.252635898">
<ele>323.78000000000003</ele>
<time>2011-12-24T10:05:49Z</time>
</trkpt>
<trkpt lat="32.719575862" lon="35.25270946">
<ele>323.76000000000005</ele>
<time>2011-12-24T10:05:54Z</time>
</trkpt>
<trkpt lat="32.719585215" lon="35.2527705475">
<ele>322.075</ele>
<time>2011-12-24T10:05:58Z</time>
</trkpt>
<trkpt lat="32.7195796875" lon="35.252815365">
<ele>320.225</ele>
<time>2011-12-24T10:06:02Z</time>
</trkpt>
<trkpt lat="32.719562424" lon="35.252849858">
<ele>314.78</ele>
<time>2011-12-24T10:06:07Z</time>
</trkpt>
<trkpt lat="32.719541428" lon="35.252877184">
<ele>315.4</ele>
<time>2011-12-24T10:06:12Z</time>
</trkpt>
<trkpt lat="32.719511548" lon="35.25291675">
<ele>316.28000000000003</ele>
<time>2011-12-24T10:06:17Z</time>
</trkpt>
<trkpt lat="32.7195023725" lon="35.2529341675">
<ele>316.4</ele>
<time>2011-12-24T10:06:21Z</time>
</trkpt>
<trkpt lat="32.719505192" lon="35.252956808">
<ele>316.18</ele>
<time>2011-12-24T10:06:26Z</time>
</trkpt>
<trkpt lat="32.7195094" lon="35.2529721375">
<ele>316.2</ele>
<time>2011-12-24T10:06:30Z</time>
</trkpt>
<trkpt lat="32.71951938" lon="35.252990366">
<ele>315.4</ele>
<time>2011-12-24T10:06:35Z</time>
</trkpt>
<trkpt lat="32.7195467925" lon="35.253023025">
<ele>313.0</ele>
<time>2011-12-24T10:06:39Z</time>
</trkpt>
<trkpt lat="32.719563675" lon="35.2530434625">
<ele>312.125</ele>
<time>2011-12-24T10:06:43Z</time>
</trkpt>
<trkpt lat="32.7195706425" lon="35.2530486575">
<ele>311.15000000000003</ele>
<time>2011-12-24T10:06:47Z</time>
</trkpt>
<trkpt lat="32.719570642" lon="35.253049648">
<ele>310.88</ele>
<time>2011-12-24T10:06:52Z</time>
</trkpt>
<trkpt lat="32.719570716" lon="35.253049342">
<ele>310.74000000000007</ele>
<time>2011-12-24T10:06:57Z</time>
</trkpt>
<trkpt lat="32.719571266" lon="35.253048584">
<ele>310.6</ele>
<time>2011-12-24T10:07:02Z</time>
</trkpt>
<trkpt lat="32.71957132" lon="35.2530486725">
<ele>310.6</ele>
<time>2011-12-24T10:07:06Z</time>
</trkpt>
<trkpt lat="32.71957136" lon="35.253048872">
<ele>310.6</ele>
<time>2011-12-24T10:07:11Z</time>
</trkpt>
<trkpt lat="32.719571456" lon="35.253048992">
<ele>310.6</ele>
<time>2011-12-24T10:07:16Z</time>
</trkpt>
<trkpt lat="32.7195715" lon="35.253049036">
<ele>310.6</ele>
<time>2011-12-24T10:07:21Z</time>
</trkpt>
<trkpt lat="32.71957161" lon="35.253049352">
<ele>310.6</ele>
<time>2011-12-24T10:07:26Z</time>
</trkpt>
<trkpt lat="32.719571706" lon="35.253049466">
<ele>310.6</ele>
<time>2011-12-24T10:07:31Z</time>
</trkpt>
<trkpt lat="32.719571718" lon="35.253049854">
<ele>310.6</ele>
<time>2011-12-24T10:07:36Z</time>
</trkpt>
<trkpt lat="32.719587274" lon="35.25305335">
<ele>310.46000000000004</ele>
<time>2011-12-24T10:07:41Z</time>
</trkpt>
<trkpt lat="32.719612818" lon="35.2530595">
<ele>309.98</ele>
<time>2011-12-24T10:07:46Z</time>
</trkpt>
<trkpt lat="32.719623972" lon="35.253076208">
<ele>309.96</ele>
<time>2011-12-24T10:07:51Z</time>
</trkpt>
<trkpt lat="32.7196257375" lon="35.2530848875">
<ele>310.1</ele>
<time>2011-12-24T10:07:55Z</time>
</trkpt>
<trkpt lat="32.7196246525" lon="35.253085855">
<ele>309.9</ele>
<time>2011-12-24T10:07:59Z</time>
</trkpt>
<trkpt lat="32.719623936" lon="35.25308651">
<ele>309.8</ele>
<time>2011-12-24T10:08:04Z</time>
</trkpt>
<trkpt lat="32.7196240675" lon="35.2530866475">
<ele>309.77500000000003</ele>
<time>2011-12-24T10:08:08Z</time>
</trkpt>
<trkpt lat="32.719662408" lon="35.253109138">
<ele>310.68</ele>
<time>2011-12-24T10:08:13Z</time>
</trkpt>
<trkpt lat="32.719715374" lon="35.253118106">
<ele>311.4</ele>
<time>2011-12-24T10:08:18Z</time>
</trkpt>
<trkpt lat="32.7197256675" lon="35.2531649225">
<ele>312.775</ele>
<time>2011-12-24T10:08:22Z</time>
</trkpt>
<trkpt lat="32.719715436" lon="35.253193838">
<ele>311.71999999999997</ele>
<time>2011-12-24T10:08:27Z</time>
</trkpt>
<trkpt lat="32.719706276" lon="35.253197962">
<ele>310.75999999999993</ele>
<time>2011-12-24T10:08:32Z</time>
</trkpt>
<trkpt lat="32.7196931425" lon="35.25319716">
<ele>310.525</ele>
<time>2011-12-24T10:08:36Z</time>
</trkpt>
<trkpt lat="32.71969123" lon="35.253197898">
<ele>309.98</ele>
<time>2011-12-24T10:08:41Z</time>
</trkpt>
<trkpt lat="32.719685636" lon="35.253208044">
<ele>309.4</ele>
<time>2011-12-24T10:08:46Z</time>
</trkpt>
<trkpt lat="32.719691648" lon="35.253211826">
<ele>309.18</ele>
<time>2011-12-24T10:08:51Z</time>
</trkpt>
<trkpt lat="32.719741446" lon="35.25324832">
<ele>308.7</ele>
<time>2011-12-24T10:08:56Z</time>
</trkpt>
<trkpt lat="32.71979976" lon="35.253265504">
<ele>308.42</ele>
<time>2011-12-24T10:09:01Z</time>
</trkpt>
<trkpt lat="32.719849976" lon="35.253265042">
<ele>307.22</ele>
<time>2011-12-24T10:09:06Z</time>
</trkpt>
<trkpt lat="32.719898438" lon="35.2532345">
<ele>303.86</ele>
<time>2011-12-24T10:09:11Z</time>
</trkpt>
<trkpt lat="32.7199075875" lon="35.25324341">
<ele>301.925</ele>
<time>2011-12-24T10:09:15Z</time>
</trkpt>
<trkpt lat="32.7199091" lon="35.253250972">
<ele>301.82</ele>
<time>2011-12-24T10:09:20Z</time>
</trkpt>
<trkpt lat="32.7199107125" lon="35.253257035">
<ele>301.525</ele>
<time>2011-12-24T10:09:24Z</time>
</trkpt>
<trkpt lat="32.71991825" lon="35.2532682025">
<ele>301.55</ele>
<time>2011-12-24T10:09:28Z</time>
</trkpt>
<trkpt lat="32.719925764" lon="35.253270606">
<ele>301.7</ele>
<time>2011-12-24T10:09:33Z</time>
</trkpt>
<trkpt lat="32.7199260425" lon="35.2532710825">
<ele>301.75</ele>
<time>2011-12-24T10:09:37Z</time>
</trkpt>
<trkpt lat="32.719984496" lon="35.25328593">
<ele>301.96</ele>
<time>2011-12-24T10:09:42Z</time>
</trkpt>
<trkpt lat="32.720056816" lon="35.253278382">
<ele>301.8</ele>
<time>2011-12-24T10:09:47Z</time>
</trkpt>
<trkpt lat="32.7200969525" lon="35.2532385">
<ele>300.125</ele>
<time>2011-12-24T10:09:51Z</time>
</trkpt>
<trkpt lat="32.720147728" lon="35.253201908">
<ele>297.24</ele>
<time>2011-12-24T10:09:56Z</time>
</trkpt>
<trkpt lat="32.720187074" lon="35.253147952">
<ele>299.8</ele>
<time>2011-12-24T10:10:01Z</time>
</trkpt>
<trkpt lat="32.720210385" lon="35.2531151675">
<ele>300.02500000000003</ele>
<time>2011-12-24T10:10:05Z</time>
</trkpt>
<trkpt lat="32.7202338775" lon="35.2530878425">
<ele>299.325</ele>
<time>2011-12-24T10:10:09Z</time>
</trkpt>
<trkpt lat="32.720263016" lon="35.253010828">
<ele>298.98</ele>
<time>2011-12-24T10:10:14Z</time>
</trkpt>
<trkpt lat="32.7203018275" lon="35.252946095">
<ele>297.9</ele>
<time>2011-12-24T10:10:18Z</time>
</trkpt>
<trkpt lat="32.72032845" lon="35.252896086">
<ele>297.88</ele>
<time>2011-12-24T10:10:23Z</time>
</trkpt>
<trkpt lat="32.7203488075" lon="35.2528214275">
<ele>297.32500000000005</ele>
<time>2011-12-24T10:10:27Z</time>
</trkpt>
<trkpt lat="32.720351824" lon="35.25275591">
<ele>297.24000000000007</ele>
<time>2011-12-24T10:10:32Z</time>
</trkpt>
<trkpt lat="32.7203650225" lon="35.252710315">
<ele>297.47499999999997</ele>
<time>2011-12-24T10:10:36Z</time>
</trkpt>
<trkpt lat="32.720378635" lon="35.2526712325">
<ele>297.92499999999995</ele>
<time>2011-12-24T10:10:40Z</time>
</trkpt>
<trkpt lat="32.720387464" lon="35.252611722">
<ele>298.36</ele>
<time>2011-12-24T10:10:45Z</time>
</trkpt>
<trkpt lat="32.72041236" lon="35.2525392525">
<ele>298.55</ele>
<time>2011-12-24T10:10:49Z</time>
</trkpt>
<trkpt lat="32.72042908" lon="35.252489644">
<ele>295.76000000000005</ele>
<time>2011-12-24T10:10:54Z</time>
</trkpt>
<trkpt lat="32.72044678" lon="35.25242066">
<ele>294.67999999999995</ele>
<time>2011-12-24T10:10:59Z</time>
</trkpt>
<trkpt lat="32.720467064" lon="35.25235411">
<ele>295.0</ele>
<time>2011-12-24T10:11:04Z</time>
</trkpt>
<trkpt lat="32.72049693" lon="35.25230645">
<ele>293.5</ele>
<time>2011-12-24T10:11:08Z</time>
</trkpt>
<trkpt lat="32.720502948" lon="35.25226474">
<ele>291.1</ele>
<time>2011-12-24T10:11:13Z</time>
</trkpt>
<trkpt lat="32.720527255" lon="35.25222862">
<ele>289.275</ele>
<time>2011-12-24T10:11:17Z</time>
</trkpt>
<trkpt lat="32.720538064" lon="35.25218268">
<ele>288.94</ele>
<time>2011-12-24T10:11:22Z</time>
</trkpt>
<trkpt lat="32.7205238375" lon="35.252134285">
<ele>287.925</ele>
<time>2011-12-24T10:11:26Z</time>
</trkpt>
<trkpt lat="32.720519068" lon="35.252089268">
<ele>288.12</ele>
<time>2011-12-24T10:11:31Z</time>
</trkpt>
<trkpt lat="32.7205132675" lon="35.2520543325">
<ele>287.4</ele>
<time>2011-12-24T10:11:35Z</time>
</trkpt>
<trkpt lat="32.720501862" lon="35.252009218">
<ele>286.76</ele>
<time>2011-12-24T10:11:40Z</time>
</trkpt>
<trkpt lat="32.72050179" lon="35.2519909225">
<ele>286.825</ele>
<time>2011-12-24T10:11:44Z</time>
</trkpt>
<trkpt lat="32.7205060525" lon="35.2519661625">
<ele>287.6</ele>
<time>2011-12-24T10:11:48Z</time>
</trkpt>
<trkpt lat="32.720511324" lon="35.251892714">
<ele>288.56</ele>
<time>2011-12-24T10:11:53Z</time>
</trkpt>
<trkpt lat="32.72050074" lon="35.2517905875">
<ele>289.7</ele>
<time>2011-12-24T10:11:57Z</time>
</trkpt>
<trkpt lat="32.720479654" lon="35.251714758">
<ele>290.52</ele>
<time>2011-12-24T10:12:02Z</time>
</trkpt>
<trkpt lat="32.720444506" lon="35.251646514">
<ele>289.5200000000001</ele>
<time>2011-12-24T10:12:07Z</time>
</trkpt>
<trkpt lat="32.720394338" lon="35.251560672">
<ele>289.34000000000003</ele>
<time>2011-12-24T10:12:12Z</time>
</trkpt>
<trkpt lat="32.720347092" lon="35.251515548">
<ele>288.08</ele>
<time>2011-12-24T10:12:17Z</time>
</trkpt>
<trkpt lat="32.720313692" lon="35.251495954">
<ele>285.96000000000004</ele>
<time>2011-12-24T10:12:22Z</time>
</trkpt>
<trkpt lat="32.72029652" lon="35.251462604">
<ele>283.19999999999993</ele>
<time>2011-12-24T10:12:27Z</time>
</trkpt>
<trkpt lat="32.72028085" lon="35.251440656">
<ele>281.32</ele>
<time>2011-12-24T10:12:32Z</time>
</trkpt>
<trkpt lat="32.720236364" lon="35.251390276">
<ele>279.26000000000005</ele>
<time>2011-12-24T10:12:37Z</time>
</trkpt>
<trkpt lat="32.720207878" lon="35.251318158">
<ele>278.9</ele>
<time>2011-12-24T10:12:42Z</time>
</trkpt>
<trkpt lat="32.720186718" lon="35.251281376">
<ele>279.34</ele>
<time>2011-12-24T10:12:47Z</time>
</trkpt>
<trkpt lat="32.720185408" lon="35.251225616">
<ele>279.34000000000003</ele>
<time>2011-12-24T10:12:52Z</time>
</trkpt>
<trkpt lat="32.720194794" lon="35.251147056">
<ele>281.28000000000003</ele>
<time>2011-12-24T10:12:57Z</time>
</trkpt>
<trkpt lat="32.7202148825" lon="35.25108836">
<ele>281.3</ele>
<time>2011-12-24T10:13:01Z</time>
</trkpt>
<trkpt lat="32.720239786" lon="35.251069014">
<ele>280.36</ele>
<time>2011-12-24T10:13:06Z</time>
</trkpt>
<trkpt lat="32.720283502" lon="35.251060728">
<ele>279.91999999999996</ele>
<time>2011-12-24T10:13:11Z</time>
</trkpt>
<trkpt lat="32.720316695" lon="35.25106424">
<ele>280.6</ele>
<time>2011-12-24T10:13:15Z</time>
</trkpt>
<trkpt lat="32.720353414" lon="35.251088662">
<ele>281.12</ele>
<time>2011-12-24T10:13:20Z</time>
</trkpt>
<trkpt lat="32.7203817375" lon="35.251095085">
<ele>280.29999999999995</ele>
<time>2011-12-24T10:13:24Z</time>
</trkpt>
<trkpt lat="32.720398415" lon="35.251094905">
<ele>279.925</ele>
<time>2011-12-24T10:13:28Z</time>
</trkpt>
<trkpt lat="32.7204370425" lon="35.25107664">
<ele>279.625</ele>
<time>2011-12-24T10:13:32Z</time>
</trkpt>
<trkpt lat="32.72041986" lon="35.251025084">
<ele>280.1</ele>
<time>2011-12-24T10:13:37Z</time>
</trkpt>
<trkpt lat="32.7204391725" lon="35.2509751075">
<ele>279.55</ele>
<time>2011-12-24T10:13:41Z</time>
</trkpt>
<trkpt lat="32.720448936" lon="35.250951892">
<ele>279.26</ele>
<time>2011-12-24T10:13:46Z</time>
</trkpt>
<trkpt lat="32.720434375" lon="35.2509211625">
<ele>279.775</ele>
<time>2011-12-24T10:13:50Z</time>
</trkpt>
<trkpt lat="32.720416158" lon="35.250872402">
<ele>280.8</ele>
<time>2011-12-24T10:13:55Z</time>
</trkpt>
<trkpt lat="32.7204072725" lon="35.2508542575">
<ele>281.0</ele>
<time>2011-12-24T10:13:59Z</time>
</trkpt>
<trkpt lat="32.7203818575" lon="35.250836175">
<ele>280.9</ele>
<time>2011-12-24T10:14:03Z</time>
</trkpt>
<trkpt lat="32.72037543" lon="35.250795665">
<ele>280.85</ele>
<time>2011-12-24T10:14:07Z</time>
</trkpt>
<trkpt lat="32.720373116" lon="35.250767216">
<ele>280.46</ele>
<time>2011-12-24T10:14:12Z</time>
</trkpt>
<trkpt lat="32.720379146" lon="35.250730348">
<ele>279.91999999999996</ele>
<time>2011-12-24T10:14:17Z</time>
</trkpt>
<trkpt lat="32.720344612" lon="35.25064752">
<ele>279.53999999999996</ele>
<time>2011-12-24T10:14:22Z</time>
</trkpt>
<trkpt lat="32.720296036" lon="35.250515502">
<ele>276.8</ele>
<time>2011-12-24T10:14:27Z</time>
</trkpt>
<trkpt lat="32.720276942" lon="35.250405206">
<ele>275.54</ele>
<time>2011-12-24T10:14:32Z</time>
</trkpt>
<trkpt lat="32.720305342" lon="35.250347212">
<ele>277.1</ele>
<time>2011-12-24T10:14:37Z</time>
</trkpt>
<trkpt lat="32.720328465" lon="35.2503293875">
<ele>277.95</ele>
<time>2011-12-24T10:14:41Z</time>
</trkpt>
<trkpt lat="32.7203923" lon="35.250304296">
<ele>275.84000000000003</ele>
<time>2011-12-24T10:14:46Z</time>
</trkpt>
<trkpt lat="32.7204545325" lon="35.250336925">
<ele>274.225</ele>
<time>2011-12-24T10:14:50Z</time>
</trkpt>
<trkpt lat="32.7204794125" lon="35.25034009">
<ele>273.5</ele>
<time>2011-12-24T10:14:54Z</time>
</trkpt>
<trkpt lat="32.720500834" lon="35.250347514">
<ele>273.9</ele>
<time>2011-12-24T10:14:59Z</time>
</trkpt>
<trkpt lat="32.720507202" lon="35.250353888">
<ele>273.8</ele>
<time>2011-12-24T10:15:04Z</time>
</trkpt>
<trkpt lat="32.7205084225" lon="35.250356325">
<ele>273.77500000000003</ele>
<time>2011-12-24T10:15:08Z</time>
</trkpt>
<trkpt lat="32.72058683" lon="35.25046236">
<ele>274.025</ele>
<time>2011-12-24T10:15:12Z</time>
</trkpt>
<trkpt lat="32.7206380625" lon="35.2505728925">
<ele>273.875</ele>
<time>2011-12-24T10:15:16Z</time>
</trkpt>
<trkpt lat="32.720674594" lon="35.250652238">
<ele>272.84</ele>
<time>2011-12-24T10:15:21Z</time>
</trkpt>
<trkpt lat="32.720706628" lon="35.250714678">
<ele>272.96</ele>
<time>2011-12-24T10:15:26Z</time>
</trkpt>
<trkpt lat="32.720741" lon="35.250768832">
<ele>272.24</ele>
<time>2011-12-24T10:15:31Z</time>
</trkpt>
<trkpt lat="32.720763938" lon="35.250816604">
<ele>268.5</ele>
<time>2011-12-24T10:15:36Z</time>
</trkpt>
<trkpt lat="32.720766135" lon="35.250860345">
<ele>267.125</ele>
<time>2011-12-24T10:15:40Z</time>
</trkpt>
<trkpt lat="32.720773055" lon="35.250913295">
<ele>266.7</ele>
<time>2011-12-24T10:15:44Z</time>
</trkpt>
<trkpt lat="32.7208140175" lon="35.250948645">
<ele>265.4</ele>
<time>2011-12-24T10:15:48Z</time>
</trkpt>
<trkpt lat="32.720833194" lon="35.25098373">
<ele>266.34000000000003</ele>
<time>2011-12-24T10:15:53Z</time>
</trkpt>
<trkpt lat="32.720856405" lon="35.2510159375">
<ele>267.975</ele>
<time>2011-12-24T10:15:57Z</time>
</trkpt>
<trkpt lat="32.720871332" lon="35.251064498">
<ele>267.82</ele>
<time>2011-12-24T10:16:02Z</time>
</trkpt>
<trkpt lat="32.720882482" lon="35.251114778">
<ele>267.54</ele>
<time>2011-12-24T10:16:07Z</time>
</trkpt>
<trkpt lat="32.720887622" lon="35.251142588">
<ele>266.38</ele>
<time>2011-12-24T10:16:12Z</time>
</trkpt>
<trkpt lat="32.7208895275" lon="35.251155715">
<ele>265.775</ele>
<time>2011-12-24T10:16:16Z</time>
</trkpt>
<trkpt lat="32.720896268" lon="35.251205234">
<ele>267.21999999999997</ele>
<time>2011-12-24T10:16:21Z</time>
</trkpt>
<trkpt lat="32.7209123525" lon="35.2512350175">
<ele>266.92499999999995</ele>
<time>2011-12-24T10:16:25Z</time>
</trkpt>
<trkpt lat="32.72091729" lon="35.2512317025">
<ele>265.725</ele>
<time>2011-12-24T10:16:29Z</time>
</trkpt>
<trkpt lat="32.720926758" lon="35.251228258">
<ele>264.88</ele>
<time>2011-12-24T10:16:34Z</time>
</trkpt>
<trkpt lat="32.720944962" lon="35.2512323">
<ele>262.59999999999997</ele>
<time>2011-12-24T10:16:39Z</time>
</trkpt>
<trkpt lat="32.720951966" lon="35.251239572">
<ele>262.16</ele>
<time>2011-12-24T10:16:44Z</time>
</trkpt>
<trkpt lat="32.7209546075" lon="35.2512524025">
<ele>261.6</ele>
<time>2011-12-24T10:16:48Z</time>
</trkpt>
<trkpt lat="32.720961094" lon="35.251286962">
<ele>261.38</ele>
<time>2011-12-24T10:16:53Z</time>
</trkpt>
<trkpt lat="32.72095947" lon="35.251359395">
<ele>259.775</ele>
<time>2011-12-24T10:16:57Z</time>
</trkpt>
<trkpt lat="32.72096476" lon="35.25139322">
<ele>256.625</ele>
<time>2011-12-24T10:17:01Z</time>
</trkpt>
<trkpt lat="32.720973836" lon="35.251457656">
<ele>256.9</ele>
<time>2011-12-24T10:17:06Z</time>
</trkpt>
<trkpt lat="32.720983946" lon="35.251533664">
<ele>255.63999999999996</ele>
<time>2011-12-24T10:17:11Z</time>
</trkpt>
<trkpt lat="32.720974932" lon="35.251613694">
<ele>255.51999999999998</ele>
<time>2011-12-24T10:17:16Z</time>
</trkpt>
<trkpt lat="32.720971385" lon="35.2517033275">
<ele>256.70000000000005</ele>
<time>2011-12-24T10:17:20Z</time>
</trkpt>
<trkpt lat="32.721002368" lon="35.251761096">
<ele>256.5</ele>
<time>2011-12-24T10:17:25Z</time>
</trkpt>
<trkpt lat="32.7210081075" lon="35.25180006">
<ele>257.35</ele>
<time>2011-12-24T10:17:29Z</time>
</trkpt>
<trkpt lat="32.721040314" lon="35.251844778">
<ele>259.28</ele>
<time>2011-12-24T10:17:34Z</time>
</trkpt>
<trkpt lat="32.7210537625" lon="35.2518898625">
<ele>260.79999999999995</ele>
<time>2011-12-24T10:17:38Z</time>
</trkpt>
<trkpt lat="32.72106416" lon="35.25192961">
<ele>259.88</ele>
<time>2011-12-24T10:17:43Z</time>
</trkpt>
<trkpt lat="32.721072575" lon="35.25197419">
<ele>257.925</ele>
<time>2011-12-24T10:17:47Z</time>
</trkpt>
<trkpt lat="32.721114954" lon="35.252007044">
<ele>261.3</ele>
<time>2011-12-24T10:17:52Z</time>
</trkpt>
<trkpt lat="32.721163145" lon="35.25204321">
<ele>263.25</ele>
<time>2011-12-24T10:17:56Z</time>
</trkpt>
<trkpt lat="32.7211869275" lon="35.2521080875">
<ele>265.975</ele>
<time>2011-12-24T10:18:00Z</time>
</trkpt>
<trkpt lat="32.7211883775" lon="35.252131045">
<ele>265.25</ele>
<time>2011-12-24T10:18:04Z</time>
</trkpt>
<trkpt lat="32.721185452" lon="35.252157294">
<ele>264.74</ele>
<time>2011-12-24T10:18:09Z</time>
</trkpt>
<trkpt lat="32.721173632" lon="35.252212442">
<ele>262.78000000000003</ele>
<time>2011-12-24T10:18:14Z</time>
</trkpt>
<trkpt lat="32.7211674325" lon="35.25227522">
<ele>262.65</ele>
<time>2011-12-24T10:18:18Z</time>
</trkpt>
<trkpt lat="32.721182602" lon="35.252337532">
<ele>261.4</ele>
<time>2011-12-24T10:18:23Z</time>
</trkpt>
<trkpt lat="32.72120439" lon="35.2523921175">
<ele>261.47499999999997</ele>
<time>2011-12-24T10:18:27Z</time>
</trkpt>
<trkpt lat="32.72119767" lon="35.252435608">
<ele>256.5</ele>
<time>2011-12-24T10:18:32Z</time>
</trkpt>
<trkpt lat="32.7212098475" lon="35.252484895">
<ele>254.725</ele>
<time>2011-12-24T10:18:36Z</time>
</trkpt>
<trkpt lat="32.721206245" lon="35.2525526675">
<ele>253.575</ele>
<time>2011-12-24T10:18:40Z</time>
</trkpt>
<trkpt lat="32.7212272125" lon="35.25261933">
<ele>251.925</ele>
<time>2011-12-24T10:18:44Z</time>
</trkpt>
<trkpt lat="32.721241066" lon="35.252679738">
<ele>248.6</ele>
<time>2011-12-24T10:18:49Z</time>
</trkpt>
<trkpt lat="32.721255365" lon="35.2527242825">
<ele>246.625</ele>
<time>2011-12-24T10:18:53Z</time>
</trkpt>
<trkpt lat="32.721260555" lon="35.2527266325">
<ele>247.8</ele>
<time>2011-12-24T10:18:57Z</time>
</trkpt>
<trkpt lat="32.72124809" lon="35.25276306">
<ele>247.06</ele>
<time>2011-12-24T10:19:02Z</time>
</trkpt>
<trkpt lat="32.72125844" lon="35.25280645">
<ele>246.47500000000002</ele>
<time>2011-12-24T10:19:06Z</time>
</trkpt>
<trkpt lat="32.7212804475" lon="35.2528385025">
<ele>246.1</ele>
<time>2011-12-24T10:19:10Z</time>
</trkpt>
<trkpt lat="32.721294322" lon="35.25288605">
<ele>247.58</ele>
<time>2011-12-24T10:19:15Z</time>
</trkpt>
<trkpt lat="32.721290158" lon="35.252934498">
<ele>246.4</ele>
<time>2011-12-24T10:19:20Z</time>
</trkpt>
<trkpt lat="32.7212987125" lon="35.2529830475">
<ele>246.27500000000003</ele>
<time>2011-12-24T10:19:24Z</time>
</trkpt>
<trkpt lat="32.721304306" lon="35.253040846">
<ele>246.5</ele>
<time>2011-12-24T10:19:29Z</time>
</trkpt>
<trkpt lat="32.72131057" lon="35.25310161">
<ele>246.3</ele>
<time>2011-12-24T10:19:34Z</time>
</trkpt>
<trkpt lat="32.72132259" lon="35.253152145">
<ele>247.10000000000002</ele>
<time>2011-12-24T10:19:38Z</time>
</trkpt>
<trkpt lat="32.72133339" lon="35.253205836">
<ele>249.27999999999997</ele>
<time>2011-12-24T10:19:43Z</time>
</trkpt>
<trkpt lat="32.721364854" lon="35.253254842">
<ele>249.63999999999996</ele>
<time>2011-12-24T10:19:48Z</time>
</trkpt>
<trkpt lat="32.721387848" lon="35.253265712">
<ele>248.9</ele>
<time>2011-12-24T10:19:53Z</time>
</trkpt>
<trkpt lat="32.72142223" lon="35.253258702">
<ele>247.74</ele>
<time>2011-12-24T10:19:58Z</time>
</trkpt>
<trkpt lat="32.72144766" lon="35.253236745">
<ele>248.375</ele>
<time>2011-12-24T10:20:02Z</time>
</trkpt>
<trkpt lat="32.72146381" lon="35.253212045">
<ele>248.52500000000003</ele>
<time>2011-12-24T10:20:06Z</time>
</trkpt>
<trkpt lat="32.721488524" lon="35.25317093">
<ele>247.24</ele>
<time>2011-12-24T10:20:11Z</time>
</trkpt>
<trkpt lat="32.7215137275" lon="35.2531331325">
<ele>246.05</ele>
<time>2011-12-24T10:20:15Z</time>
</trkpt>
<trkpt lat="32.7215109075" lon="35.253090415">
<ele>246.0</ele>
<time>2011-12-24T10:20:19Z</time>
</trkpt>
<trkpt lat="32.7215091375" lon="35.2530420375">
<ele>245.27499999999998</ele>
<time>2011-12-24T10:20:23Z</time>
</trkpt>
<trkpt lat="32.721536838" lon="35.252998814">
<ele>244.12000000000003</ele>
<time>2011-12-24T10:20:28Z</time>
</trkpt>
<trkpt lat="32.721552866" lon="35.252967328">
<ele>243.04000000000002</ele>
<time>2011-12-24T10:20:33Z</time>
</trkpt>
<trkpt lat="32.7215531825" lon="35.2529513475">
<ele>243.65</ele>
<time>2011-12-24T10:20:37Z</time>
</trkpt>
<trkpt lat="32.721553736" lon="35.252945502">
<ele>243.64000000000001</ele>
<time>2011-12-24T10:20:42Z</time>
</trkpt>
<trkpt lat="32.72155435" lon="35.252944266">
<ele>243.8</ele>
<time>2011-12-24T10:20:47Z</time>
</trkpt>
<trkpt lat="32.7215634175" lon="35.25292247">
<ele>244.175</ele>
<time>2011-12-24T10:20:51Z</time>
</trkpt>
<trkpt lat="32.721596314" lon="35.252835604">
<ele>243.38000000000002</ele>
<time>2011-12-24T10:20:56Z</time>
</trkpt>
<trkpt lat="32.7216162825" lon="35.2527637425">
<ele>243.47499999999997</ele>
<time>2011-12-24T10:21:00Z</time>
</trkpt>
<trkpt lat="32.72162232" lon="35.252727525">
<ele>243.2</ele>
<time>2011-12-24T10:21:04Z</time>
</trkpt>
<trkpt lat="32.721632178" lon="35.252692666">
<ele>242.98000000000002</ele>
<time>2011-12-24T10:21:09Z</time>
</trkpt>
<trkpt lat="32.721659154" lon="35.252625564">
<ele>242.57999999999998</ele>
<time>2011-12-24T10:21:14Z</time>
</trkpt>
<trkpt lat="32.721724314" lon="35.25249409">
<ele>242.66</ele>
<time>2011-12-24T10:21:19Z</time>
</trkpt>
<trkpt lat="32.721764356" lon="35.252384838">
<ele>240.06</ele>
<time>2011-12-24T10:21:24Z</time>
</trkpt>
<trkpt lat="32.7217642125" lon="35.252304795">
<ele>237.8</ele>
<time>2011-12-24T10:21:28Z</time>
</trkpt>
<trkpt lat="32.721796292" lon="35.252223618">
<ele>238.9</ele>
<time>2011-12-24T10:21:33Z</time>
</trkpt>
<trkpt lat="32.72182049" lon="35.2521644975">
<ele>238.725</ele>
<time>2011-12-24T10:21:37Z</time>
</trkpt>
<trkpt lat="32.721818982" lon="35.25212593">
<ele>238.42</ele>
<time>2011-12-24T10:21:42Z</time>
</trkpt>
<trkpt lat="32.72181749" lon="35.252108132">
<ele>239.34</ele>
<time>2011-12-24T10:21:47Z</time>
</trkpt>
<trkpt lat="32.7218102425" lon="35.2520979275">
<ele>239.72499999999997</ele>
<time>2011-12-24T10:21:51Z</time>
</trkpt>
<trkpt lat="32.721805056" lon="35.252086908">
<ele>240.34</ele>
<time>2011-12-24T10:21:56Z</time>
</trkpt>
<trkpt lat="32.721793796" lon="35.25204522">
<ele>245.35999999999999</ele>
<time>2011-12-24T10:22:01Z</time>
</trkpt>
<trkpt lat="32.72178787" lon="35.25200302">
<ele>247.92000000000002</ele>
<time>2011-12-24T10:22:06Z</time>
</trkpt>
<trkpt lat="32.721783974" lon="35.251987858">
<ele>248.32</ele>
<time>2011-12-24T10:22:11Z</time>
</trkpt>
<trkpt lat="32.721774772" lon="35.251951878">
<ele>248.35999999999999</ele>
<time>2011-12-24T10:22:16Z</time>
</trkpt>
<trkpt lat="32.721767" lon="35.2518544725">
<ele>247.72499999999997</ele>
<time>2011-12-24T10:22:20Z</time>
</trkpt>
<trkpt lat="32.721760922" lon="35.251777316">
<ele>245.84</ele>
<time>2011-12-24T10:22:25Z</time>
</trkpt>
<trkpt lat="32.721751958" lon="35.251741174">
<ele>245.58</ele>
<time>2011-12-24T10:22:30Z</time>
</trkpt>
<trkpt lat="32.721748188" lon="35.251721432">
<ele>246.18</ele>
<time>2011-12-24T10:22:35Z</time>
</trkpt>
<trkpt lat="32.721747446" lon="35.25172145">
<ele>246.22000000000003</ele>
<time>2011-12-24T10:22:40Z</time>
</trkpt>
<trkpt lat="32.721732566" lon="35.251685426">
<ele>247.45999999999998</ele>
<time>2011-12-24T10:22:45Z</time>
</trkpt>
<trkpt lat="32.721712284" lon="35.251629102">
<ele>248.06</ele>
<time>2011-12-24T10:22:50Z</time>
</trkpt>
<trkpt lat="32.721707924" lon="35.251589846">
<ele>247.8</ele>
<time>2011-12-24T10:22:55Z</time>
</trkpt>
<trkpt lat="32.721675375" lon="35.251512835">
<ele>247.95</ele>
<time>2011-12-24T10:22:59Z</time>
</trkpt>
<trkpt lat="32.72165697" lon="35.25144293">
<ele>242.85000000000002</ele>
<time>2011-12-24T10:23:03Z</time>
</trkpt>
<trkpt lat="32.721675536" lon="35.251352588">
<ele>242.08</ele>
<time>2011-12-24T10:23:08Z</time>
</trkpt>
<trkpt lat="32.72172017" lon="35.25125935">
<ele>243.33999999999997</ele>
<time>2011-12-24T10:23:13Z</time>
</trkpt>
<trkpt lat="32.721753402" lon="35.251201996">
<ele>243.47999999999996</ele>
<time>2011-12-24T10:23:18Z</time>
</trkpt>
<trkpt lat="32.721798244" lon="35.251186034">
<ele>240.44</ele>
<time>2011-12-24T10:23:23Z</time>
</trkpt>
<trkpt lat="32.72182977" lon="35.251194596">
<ele>239.94</ele>
<time>2011-12-24T10:23:28Z</time>
</trkpt>
<trkpt lat="32.7218381625" lon="35.251198425">
<ele>240.25000000000003</ele>
<time>2011-12-24T10:23:32Z</time>
</trkpt>
<trkpt lat="32.72184547" lon="35.2511992575">
<ele>240.25</ele>
<time>2011-12-24T10:23:36Z</time>
</trkpt>
<trkpt lat="32.721849666" lon="35.251200882">
<ele>240.3</ele>
<time>2011-12-24T10:23:41Z</time>
</trkpt>
<trkpt lat="32.721857216" lon="35.251200368">
<ele>239.68</ele>
<time>2011-12-24T10:23:46Z</time>
</trkpt>
<trkpt lat="32.721961148" lon="35.251199826">
<ele>235.99999999999994</ele>
<time>2011-12-24T10:23:51Z</time>
</trkpt>
<trkpt lat="32.7220602" lon="35.251262592">
<ele>238.4</ele>
<time>2011-12-24T10:23:56Z</time>
</trkpt>
<trkpt lat="32.722115212" lon="35.251274694">
<ele>240.0</ele>
<time>2011-12-24T10:24:01Z</time>
</trkpt>
<trkpt lat="32.7221630725" lon="35.251277315">
<ele>239.27499999999998</ele>
<time>2011-12-24T10:24:05Z</time>
</trkpt>
<trkpt lat="32.722211444" lon="35.251291092">
<ele>241.84</ele>
<time>2011-12-24T10:24:10Z</time>
</trkpt>
<trkpt lat="32.722242532" lon="35.251288582">
<ele>240.56</ele>
<time>2011-12-24T10:24:15Z</time>
</trkpt>
<trkpt lat="32.722275902" lon="35.251294532">
<ele>239.61999999999998</ele>
<time>2011-12-24T10:24:20Z</time>
</trkpt>
<trkpt lat="32.72228972" lon="35.2513034775">
<ele>240.45</ele>
<time>2011-12-24T10:24:24Z</time>
</trkpt>
<trkpt lat="32.7223454475" lon="35.2512958225">
<ele>241.65000000000003</ele>
<time>2011-12-24T10:24:28Z</time>
</trkpt>
<trkpt lat="32.722392636" lon="35.251283744">
<ele>241.56</ele>
<time>2011-12-24T10:24:33Z</time>
</trkpt>
<trkpt lat="32.72244959" lon="35.25127035">
<ele>240.8</ele>
<time>2011-12-24T10:24:37Z</time>
</trkpt>
<trkpt lat="32.722485535" lon="35.2512602975">
<ele>238.425</ele>
<time>2011-12-24T10:24:41Z</time>
</trkpt>
<trkpt lat="32.722524872" lon="35.251259438">
<ele>236.78000000000003</ele>
<time>2011-12-24T10:24:46Z</time>
</trkpt>
<trkpt lat="32.722619654" lon="35.251244818">
<ele>235.9</ele>
<time>2011-12-24T10:24:51Z</time>
</trkpt>
<trkpt lat="32.722705094" lon="35.251212566">
<ele>238.82000000000002</ele>
<time>2011-12-24T10:24:56Z</time>
</trkpt>
<trkpt lat="32.722738832" lon="35.251189994">
<ele>239.8</ele>
<time>2011-12-24T10:25:01Z</time>
</trkpt>
<trkpt lat="32.7227510225" lon="35.251170555">
<ele>238.75</ele>
<time>2011-12-24T10:25:05Z</time>
</trkpt>
<trkpt lat="32.722768778" lon="35.251163328">
<ele>239.94</ele>
<time>2011-12-24T10:25:10Z</time>
</trkpt>
<trkpt lat="32.722780188" lon="35.251158492">
<ele>240.92</ele>
<time>2011-12-24T10:25:15Z</time>
</trkpt>
<trkpt lat="32.722838894" lon="35.251122566">
<ele>243.82000000000002</ele>
<time>2011-12-24T10:25:20Z</time>
</trkpt>
<trkpt lat="32.7229111825" lon="35.2510625675">
<ele>242.35000000000002</ele>
<time>2011-12-24T10:25:24Z</time>
</trkpt>
<trkpt lat="32.722986834" lon="35.251008854">
<ele>236.98000000000002</ele>
<time>2011-12-24T10:25:29Z</time>
</trkpt>
<trkpt lat="32.723022784" lon="35.250993588">
<ele>235.16</ele>
<time>2011-12-24T10:25:34Z</time>
</trkpt>
<trkpt lat="32.7230422375" lon="35.2509888675">
<ele>234.125</ele>
<time>2011-12-24T10:25:38Z</time>
</trkpt>
<trkpt lat="32.723061806" lon="35.250962776">
<ele>234.01999999999998</ele>
<time>2011-12-24T10:25:43Z</time>
</trkpt>
<trkpt lat="32.723059518" lon="35.250964008">
<ele>232.94</ele>
<time>2011-12-24T10:25:48Z</time>
</trkpt>
<trkpt lat="32.723075562" lon="35.250922616">
<ele>232.03999999999996</ele>
<time>2011-12-24T10:25:53Z</time>
</trkpt>
<trkpt lat="32.723094868" lon="35.250864188">
<ele>232.01999999999998</ele>
<time>2011-12-24T10:25:58Z</time>
</trkpt>
<trkpt lat="32.723109924" lon="35.250797828">
<ele>232.26000000000005</ele>
<time>2011-12-24T10:26:03Z</time>
</trkpt>
<trkpt lat="32.723143326" lon="35.250746024">
<ele>234.17999999999998</ele>
<time>2011-12-24T10:26:08Z</time>
</trkpt>
<trkpt lat="32.72318338" lon="35.250693402">
<ele>236.56</ele>
<time>2011-12-24T10:26:13Z</time>
</trkpt>
<trkpt lat="32.72323205" lon="35.250654595">
<ele>237.8</ele>
<time>2011-12-24T10:26:17Z</time>
</trkpt>
<trkpt lat="32.723247735" lon="35.2506096525">
<ele>239.025</ele>
<time>2011-12-24T10:26:21Z</time>
</trkpt>
<trkpt lat="32.7232638125" lon="35.25056372">
<ele>240.15</ele>
<time>2011-12-24T10:26:25Z</time>
</trkpt>
<trkpt lat="32.723267122" lon="35.250501858">
<ele>239.2</ele>
<time>2011-12-24T10:26:30Z</time>
</trkpt>
<trkpt lat="32.723283566" lon="35.250481144">
<ele>238.42</ele>
<time>2011-12-24T10:26:35Z</time>
</trkpt>
<trkpt lat="32.7233115525" lon="35.25042671">
<ele>237.7</ele>
<time>2011-12-24T10:26:39Z</time>
</trkpt>
<trkpt lat="32.723334162" lon="35.250358924">
<ele>236.66</ele>
<time>2011-12-24T10:26:44Z</time>
</trkpt>
<trkpt lat="32.72335089" lon="35.250298126">
<ele>236.51999999999998</ele>
<time>2011-12-24T10:26:49Z</time>
</trkpt>
<trkpt lat="32.723380118" lon="35.250226364">
<ele>239.32</ele>
<time>2011-12-24T10:26:54Z</time>
</trkpt>
<trkpt lat="32.723404812" lon="35.250167458">
<ele>240.84</ele>
<time>2011-12-24T10:26:59Z</time>
</trkpt>
<trkpt lat="32.72341801" lon="35.2500864675">
<ele>242.79999999999998</ele>
<time>2011-12-24T10:27:03Z</time>
</trkpt>
<trkpt lat="32.723434594" lon="35.250040588">
<ele>242.18</ele>
<time>2011-12-24T10:27:08Z</time>
</trkpt>
<trkpt lat="32.723472462" lon="35.250011966">
<ele>242.48000000000002</ele>
<time>2011-12-24T10:27:13Z</time>
</trkpt>
<trkpt lat="32.723518146" lon="35.249997198">
<ele>240.7</ele>
<time>2011-12-24T10:27:18Z</time>
</trkpt>
<trkpt lat="32.723535454" lon="35.249947346">
<ele>241.61999999999998</ele>
<time>2011-12-24T10:27:23Z</time>
</trkpt>
<trkpt lat="32.723550522" lon="35.24987308">
<ele>244.66000000000003</ele>
<time>2011-12-24T10:27:28Z</time>
</trkpt>
<trkpt lat="32.72357017" lon="35.2498186425">
<ele>245.5</ele>
<time>2011-12-24T10:27:32Z</time>
</trkpt>
<trkpt lat="32.72359677" lon="35.2497767775">
<ele>245.825</ele>
<time>2011-12-24T10:27:36Z</time>
</trkpt>
<trkpt lat="32.723612172" lon="35.249736364">
<ele>245.61999999999998</ele>
<time>2011-12-24T10:27:41Z</time>
</trkpt>
<trkpt lat="32.7236286025" lon="35.2496941775">
<ele>245.075</ele>
<time>2011-12-24T10:27:45Z</time>
</trkpt>
<trkpt lat="32.7236408475" lon="35.24965333">
<ele>245.05</ele>
<time>2011-12-24T10:27:49Z</time>
</trkpt>
<trkpt lat="32.723648404" lon="35.24962677">
<ele>245.94</ele>
<time>2011-12-24T10:27:54Z</time>
</trkpt>
<trkpt lat="32.7236557825" lon="35.2495639925">
<ele>245.925</ele>
<time>2011-12-24T10:27:58Z</time>
</trkpt>
<trkpt lat="32.723685482" lon="35.249541998">
<ele>246.42</ele>
<time>2011-12-24T10:28:03Z</time>
</trkpt>
<trkpt lat="32.723719966" lon="35.249497466">
<ele>246.64000000000001</ele>
<time>2011-12-24T10:28:08Z</time>
</trkpt>
<trkpt lat="32.72373321" lon="35.249444814">
<ele>247.27999999999997</ele>
<time>2011-12-24T10:28:13Z</time>
</trkpt>
<trkpt lat="32.723746482" lon="35.249394438">
<ele>247.1</ele>
<time>2011-12-24T10:28:18Z</time>
</trkpt>
<trkpt lat="32.723771076" lon="35.24932228">
<ele>246.38000000000002</ele>
<time>2011-12-24T10:28:23Z</time>
</trkpt>
<trkpt lat="32.723805732" lon="35.24926659">
<ele>246.42</ele>
<time>2011-12-24T10:28:28Z</time>
</trkpt>
<trkpt lat="32.723841246" lon="35.24921448">
<ele>246.98000000000002</ele>
<time>2011-12-24T10:28:33Z</time>
</trkpt>
<trkpt lat="32.723880092" lon="35.24916817">
<ele>247.35999999999999</ele>
<time>2011-12-24T10:28:38Z</time>
</trkpt>
<trkpt lat="32.723915874" lon="35.24911224">
<ele>247.17999999999998</ele>
<time>2011-12-24T10:28:43Z</time>
</trkpt>
<trkpt lat="32.72394447" lon="35.249060398">
<ele>247.16</ele>
<time>2011-12-24T10:28:48Z</time>
</trkpt>
<trkpt lat="32.723971278" lon="35.249008632">
<ele>247.14000000000001</ele>
<time>2011-12-24T10:28:53Z</time>
</trkpt>
<trkpt lat="32.724014328" lon="35.248939178">
<ele>246.95999999999998</ele>
<time>2011-12-24T10:28:58Z</time>
</trkpt>
<trkpt lat="32.724032738" lon="35.24888999">
<ele>248.5</ele>
<time>2011-12-24T10:29:03Z</time>
</trkpt>
<trkpt lat="32.724056968" lon="35.248847768">
<ele>247.66</ele>
<time>2011-12-24T10:29:08Z</time>
</trkpt>
<trkpt lat="32.724077082" lon="35.24878121">
<ele>248.3</ele>
<time>2011-12-24T10:29:13Z</time>
</trkpt>
<trkpt lat="32.72410461" lon="35.248717">
<ele>248.34</ele>
<time>2011-12-24T10:29:18Z</time>
</trkpt>
<trkpt lat="32.724125466" lon="35.248658236">
<ele>248.24</ele>
<time>2011-12-24T10:29:23Z</time>
</trkpt>
<trkpt lat="32.724146108" lon="35.248613748">
<ele>247.9</ele>
<time>2011-12-24T10:29:28Z</time>
</trkpt>
<trkpt lat="32.72417028" lon="35.248568592">
<ele>247.7</ele>
<time>2011-12-24T10:29:33Z</time>
</trkpt>
<trkpt lat="32.72420557" lon="35.2485190375">
<ele>245.24999999999997</ele>
<time>2011-12-24T10:29:37Z</time>
</trkpt>
<trkpt lat="32.7242399375" lon="35.2484752275">
<ele>244.37500000000003</ele>
<time>2011-12-24T10:29:41Z</time>
</trkpt>
<trkpt lat="32.72426275" lon="35.248423125">
<ele>242.275</ele>
<time>2011-12-24T10:29:45Z</time>
</trkpt>
<trkpt lat="32.72428687" lon="35.2483702">
<ele>240.50000000000006</ele>
<time>2011-12-24T10:29:50Z</time>
</trkpt>
<trkpt lat="32.7243200875" lon="35.2483182325">
<ele>241.0</ele>
<time>2011-12-24T10:29:54Z</time>
</trkpt>
<trkpt lat="32.724336174" lon="35.24827419">
<ele>241.45999999999998</ele>
<time>2011-12-24T10:29:59Z</time>
</trkpt>
<trkpt lat="32.7243665925" lon="35.248230055">
<ele>241.4</ele>
<time>2011-12-24T10:30:03Z</time>
</trkpt>
<trkpt lat="32.72439994" lon="35.2481888175">
<ele>241.375</ele>
<time>2011-12-24T10:30:07Z</time>
</trkpt>
<trkpt lat="32.7244535725" lon="35.2481726975">
<ele>242.025</ele>
<time>2011-12-24T10:30:11Z</time>
</trkpt>
<trkpt lat="32.724495716" lon="35.248130878">
<ele>242.51999999999998</ele>
<time>2011-12-24T10:30:16Z</time>
</trkpt>
<trkpt lat="32.724526135" lon="35.24808766">
<ele>242.875</ele>
<time>2011-12-24T10:30:20Z</time>
</trkpt>
<trkpt lat="32.72455597" lon="35.2480520575">
<ele>243.2</ele>
<time>2011-12-24T10:30:24Z</time>
</trkpt>
<trkpt lat="32.724592066" lon="35.248007582">
<ele>243.51999999999998</ele>
<time>2011-12-24T10:30:29Z</time>
</trkpt>
<trkpt lat="32.72462022" lon="35.247962092">
<ele>242.76</ele>
<time>2011-12-24T10:30:34Z</time>
</trkpt>
<trkpt lat="32.724644146" lon="35.247924576">
<ele>241.5</ele>
<time>2011-12-24T10:30:39Z</time>
</trkpt>
<trkpt lat="32.724675034" lon="35.247874794">
<ele>240.94</ele>
<time>2011-12-24T10:30:44Z</time>
</trkpt>
<trkpt lat="32.7246816925" lon="35.24782282">
<ele>240.725</ele>
<time>2011-12-24T10:30:48Z</time>
</trkpt>
<trkpt lat="32.7246893175" lon="35.24779829">
<ele>240.3</ele>
<time>2011-12-24T10:30:52Z</time>
</trkpt>
<trkpt lat="32.724709965" lon="35.247769485">
<ele>240.125</ele>
<time>2011-12-24T10:30:56Z</time>
</trkpt>
<trkpt lat="32.724730854" lon="35.247720434">
<ele>239.54000000000002</ele>
<time>2011-12-24T10:31:01Z</time>
</trkpt>
<trkpt lat="32.7247534375" lon="35.247671525">
<ele>238.825</ele>
<time>2011-12-24T10:31:05Z</time>
</trkpt>
<trkpt lat="32.7247679725" lon="35.24762369">
<ele>238.05</ele>
<time>2011-12-24T10:31:09Z</time>
</trkpt>
<trkpt lat="32.724789936" lon="35.24757326">
<ele>237.8</ele>
<time>2011-12-24T10:31:14Z</time>
</trkpt>
<trkpt lat="32.7248194575" lon="35.2475189075">
<ele>237.75</ele>
<time>2011-12-24T10:31:18Z</time>
</trkpt>
<trkpt lat="32.724847512" lon="35.247459942">
<ele>237.71999999999997</ele>
<time>2011-12-24T10:31:23Z</time>
</trkpt>
<trkpt lat="32.724869716" lon="35.247399378">
<ele>237.85999999999999</ele>
<time>2011-12-24T10:31:28Z</time>
</trkpt>
<trkpt lat="32.72488471" lon="35.247347462">
<ele>236.95999999999998</ele>
<time>2011-12-24T10:31:33Z</time>
</trkpt>
<trkpt lat="32.72489413" lon="35.247285464">
<ele>236.61999999999998</ele>
<time>2011-12-24T10:31:38Z</time>
</trkpt>
<trkpt lat="32.724918892" lon="35.247228928">
<ele>235.58</ele>
<time>2011-12-24T10:31:43Z</time>
</trkpt>
<trkpt lat="32.7249294925" lon="35.2471801125">
<ele>234.37500000000003</ele>
<time>2011-12-24T10:31:47Z</time>
</trkpt>
<trkpt lat="32.7249372975" lon="35.2471410925">
<ele>233.79999999999998</ele>
<time>2011-12-24T10:31:51Z</time>
</trkpt>
<trkpt lat="32.724946228" lon="35.247082624">
<ele>234.1</ele>
<time>2011-12-24T10:31:56Z</time>
</trkpt>
<trkpt lat="32.724956176" lon="35.247028886">
<ele>232.8</ele>
<time>2011-12-24T10:32:01Z</time>
</trkpt>
<trkpt lat="32.7249616975" lon="35.2469740125">
<ele>232.35</ele>
<time>2011-12-24T10:32:05Z</time>
</trkpt>
<trkpt lat="32.724967262" lon="35.246913256">
<ele>232.92000000000002</ele>
<time>2011-12-24T10:32:10Z</time>
</trkpt>
<trkpt lat="32.724967438" lon="35.246837706">
<ele>232.66</ele>
<time>2011-12-24T10:32:15Z</time>
</trkpt>
<trkpt lat="32.724974728" lon="35.24677676">
<ele>232.97999999999996</ele>
<time>2011-12-24T10:32:20Z</time>
</trkpt>
<trkpt lat="32.7249985925" lon="35.2467412475">
<ele>232.825</ele>
<time>2011-12-24T10:32:24Z</time>
</trkpt>
<trkpt lat="32.7250302225" lon="35.2466810525">
<ele>232.39999999999998</ele>
<time>2011-12-24T10:32:28Z</time>
</trkpt>
<trkpt lat="32.72505409" lon="35.2466446275">
<ele>232.625</ele>
<time>2011-12-24T10:32:32Z</time>
</trkpt>
<trkpt lat="32.725079874" lon="35.24661596">
<ele>233.94</ele>
<time>2011-12-24T10:32:37Z</time>
</trkpt>
<trkpt lat="32.7251214425" lon="35.2465706">
<ele>236.07500000000002</ele>
<time>2011-12-24T10:32:41Z</time>
</trkpt>
<trkpt lat="32.725159744" lon="35.246527706">
<ele>235.17999999999998</ele>
<time>2011-12-24T10:32:46Z</time>
</trkpt>
<trkpt lat="32.725196805" lon="35.2464861125">
<ele>235.05</ele>
<time>2011-12-24T10:32:50Z</time>
</trkpt>
<trkpt lat="32.72522784" lon="35.246464016">
<ele>233.03999999999996</ele>
<time>2011-12-24T10:32:55Z</time>
</trkpt>
<trkpt lat="32.7252859575" lon="35.246459745">
<ele>234.075</ele>
<time>2011-12-24T10:32:59Z</time>
</trkpt>
<trkpt lat="32.725326908" lon="35.246469898">
<ele>234.03999999999996</ele>
<time>2011-12-24T10:33:04Z</time>
</trkpt>
<trkpt lat="32.7253734475" lon="35.246449075">
<ele>232.95</ele>
<time>2011-12-24T10:33:08Z</time>
</trkpt>
<trkpt lat="32.725416788" lon="35.246407328">
<ele>231.66</ele>
<time>2011-12-24T10:33:13Z</time>
</trkpt>
<trkpt lat="32.7254491425" lon="35.2463976575">
<ele>231.20000000000002</ele>
<time>2011-12-24T10:33:17Z</time>
</trkpt>
<trkpt lat="32.7254805975" lon="35.24637926">
<ele>230.125</ele>
<time>2011-12-24T10:33:21Z</time>
</trkpt>
<trkpt lat="32.72552189" lon="35.246349052">
<ele>229.1</ele>
<time>2011-12-24T10:33:26Z</time>
</trkpt>
<trkpt lat="32.7255613375" lon="35.246323715">
<ele>229.175</ele>
<time>2011-12-24T10:33:30Z</time>
</trkpt>
<trkpt lat="32.725591974" lon="35.246290556">
<ele>228.6</ele>
<time>2011-12-24T10:33:35Z</time>
</trkpt>
<trkpt lat="32.725631698" lon="35.246255176">
<ele>228.5</ele>
<time>2011-12-24T10:33:40Z</time>
</trkpt>
<trkpt lat="32.725678985" lon="35.2462082625">
<ele>229.2</ele>
<time>2011-12-24T10:33:44Z</time>
</trkpt>
<trkpt lat="32.72570717" lon="35.246160775">
<ele>230.675</ele>
<time>2011-12-24T10:33:48Z</time>
</trkpt>
<trkpt lat="32.725729598" lon="35.246114828">
<ele>231.08</ele>
<time>2011-12-24T10:33:53Z</time>
</trkpt>
<trkpt lat="32.725763344" lon="35.246063788">
<ele>232.16000000000003</ele>
<time>2011-12-24T10:33:58Z</time>
</trkpt>
<trkpt lat="32.725794018" lon="35.246003284">
<ele>233.63999999999996</ele>
<time>2011-12-24T10:34:03Z</time>
</trkpt>
<trkpt lat="32.725822188" lon="35.245963736">
<ele>233.35999999999999</ele>
<time>2011-12-24T10:34:08Z</time>
</trkpt>
<trkpt lat="32.725871236" lon="35.245956732">
<ele>233.48000000000002</ele>
<time>2011-12-24T10:34:13Z</time>
</trkpt>
<trkpt lat="32.725917472" lon="35.245904216">
<ele>232.02000000000004</ele>
<time>2011-12-24T10:34:18Z</time>
</trkpt>
<trkpt lat="32.72595628" lon="35.24585404">
<ele>231.4</ele>
<time>2011-12-24T10:34:22Z</time>
</trkpt>
<trkpt lat="32.725997502" lon="35.245823166">
<ele>231.32</ele>
<time>2011-12-24T10:34:27Z</time>
</trkpt>
<trkpt lat="32.7260381425" lon="35.2457872775">
<ele>231.875</ele>
<time>2011-12-24T10:34:31Z</time>
</trkpt>
<trkpt lat="32.726081856" lon="35.245764856">
<ele>232.26</ele>
<time>2011-12-24T10:34:36Z</time>
</trkpt>
<trkpt lat="32.72612227" lon="35.2457405775">
<ele>232.925</ele>
<time>2011-12-24T10:34:40Z</time>
</trkpt>
<trkpt lat="32.72616313" lon="35.245734715">
<ele>232.825</ele>
<time>2011-12-24T10:34:44Z</time>
</trkpt>
<trkpt lat="32.726215036" lon="35.245726272">
<ele>231.35999999999999</ele>
<time>2011-12-24T10:34:49Z</time>
</trkpt>
<trkpt lat="32.7262639475" lon="35.2457074875">
<ele>231.45</ele>
<time>2011-12-24T10:34:53Z</time>
</trkpt>
<trkpt lat="32.726304446" lon="35.245682406">
<ele>231.26</ele>
<time>2011-12-24T10:34:58Z</time>
</trkpt>
<trkpt lat="32.726342556" lon="35.245649604">
<ele>230.71999999999997</ele>
<time>2011-12-24T10:35:03Z</time>
</trkpt>
<trkpt lat="32.726378766" lon="35.245613174">
<ele>229.35999999999999</ele>
<time>2011-12-24T10:35:08Z</time>
</trkpt>
<trkpt lat="32.726405162" lon="35.245560438">
<ele>229.22000000000003</ele>
<time>2011-12-24T10:35:13Z</time>
</trkpt>
<trkpt lat="32.726424244" lon="35.245513128">
<ele>229.07999999999998</ele>
<time>2011-12-24T10:35:18Z</time>
</trkpt>
<trkpt lat="32.7264519875" lon="35.2454612525">
<ele>229.42499999999998</ele>
<time>2011-12-24T10:35:22Z</time>
</trkpt>
<trkpt lat="32.726460852" lon="35.245402132">
<ele>230.18</ele>
<time>2011-12-24T10:35:27Z</time>
</trkpt>
<trkpt lat="32.726469956" lon="35.245340558">
<ele>230.11999999999998</ele>
<time>2011-12-24T10:35:32Z</time>
</trkpt>
<trkpt lat="32.7264833125" lon="35.245297095">
<ele>230.04999999999998</ele>
<time>2011-12-24T10:35:36Z</time>
</trkpt>
<trkpt lat="32.726494996" lon="35.245246338">
<ele>229.7</ele>
<time>2011-12-24T10:35:41Z</time>
</trkpt>
<trkpt lat="32.726501896" lon="35.245188512">
<ele>229.5</ele>
<time>2011-12-24T10:35:46Z</time>
</trkpt>
<trkpt lat="32.726517364" lon="35.24512901">
<ele>229.6</ele>
<time>2011-12-24T10:35:51Z</time>
</trkpt>
<trkpt lat="32.726523832" lon="35.24506975">
<ele>229.54000000000002</ele>
<time>2011-12-24T10:35:56Z</time>
</trkpt>
<trkpt lat="32.726529575" lon="35.245006815">
<ele>229.5</ele>
<time>2011-12-24T10:36:00Z</time>
</trkpt>
<trkpt lat="32.72653223" lon="35.244960824">
<ele>228.68</ele>
<time>2011-12-24T10:36:05Z</time>
</trkpt>
<trkpt lat="32.726519915" lon="35.24491278">
<ele>227.89999999999998</ele>
<time>2011-12-24T10:36:09Z</time>
</trkpt>
<trkpt lat="32.726527286" lon="35.244867686">
<ele>227.1</ele>
<time>2011-12-24T10:36:14Z</time>
</trkpt>
<trkpt lat="32.726531196" lon="35.244828094">
<ele>227.08</ele>
<time>2011-12-24T10:36:19Z</time>
</trkpt>
<trkpt lat="32.726551018" lon="35.24478092">
<ele>226.2</ele>
<time>2011-12-24T10:36:24Z</time>
</trkpt>
<trkpt lat="32.72657255" lon="35.24474864">
<ele>225.425</ele>
<time>2011-12-24T10:36:28Z</time>
</trkpt>
<trkpt lat="32.72656635" lon="35.244670486">
<ele>225.85999999999999</ele>
<time>2011-12-24T10:36:33Z</time>
</trkpt>
<trkpt lat="32.72657109" lon="35.244584964">
<ele>226.42</ele>
<time>2011-12-24T10:36:38Z</time>
</trkpt>
<trkpt lat="32.726586866" lon="35.244497626">
<ele>227.2</ele>
<time>2011-12-24T10:36:43Z</time>
</trkpt>
<trkpt lat="32.726600214" lon="35.244433216">
<ele>228.58</ele>
<time>2011-12-24T10:36:48Z</time>
</trkpt>
<trkpt lat="32.726621505" lon="35.244374505">
<ele>229.55</ele>
<time>2011-12-24T10:36:52Z</time>
</trkpt>
<trkpt lat="32.726643004" lon="35.244310698">
<ele>231.08</ele>
<time>2011-12-24T10:36:57Z</time>
</trkpt>
<trkpt lat="32.7266613375" lon="35.2442423675">
<ele>231.275</ele>
<time>2011-12-24T10:37:01Z</time>
</trkpt>
<trkpt lat="32.7266498325" lon="35.244166005">
<ele>230.775</ele>
<time>2011-12-24T10:37:05Z</time>
</trkpt>
<trkpt lat="32.726684636" lon="35.244165014">
<ele>228.44</ele>
<time>2011-12-24T10:37:10Z</time>
</trkpt>
<trkpt lat="32.726709314" lon="35.2441212">
<ele>226.6</ele>
<time>2011-12-24T10:37:15Z</time>
</trkpt>
<trkpt lat="32.7267207175" lon="35.2440595125">
<ele>226.05</ele>
<time>2011-12-24T10:37:19Z</time>
</trkpt>
<trkpt lat="32.726733642" lon="35.2439901">
<ele>226.01999999999998</ele>
<time>2011-12-24T10:37:24Z</time>
</trkpt>
<trkpt lat="32.72673648" lon="35.243916396">
<ele>225.85999999999999</ele>
<time>2011-12-24T10:37:29Z</time>
</trkpt>
<trkpt lat="32.726717678" lon="35.24383885">
<ele>225.48000000000002</ele>
<time>2011-12-24T10:37:34Z</time>
</trkpt>
<trkpt lat="32.72671083" lon="35.243774062">
<ele>224.24</ele>
<time>2011-12-24T10:37:39Z</time>
</trkpt>
<trkpt lat="32.726696976" lon="35.243689176">
<ele>222.94</ele>
<time>2011-12-24T10:37:44Z</time>
</trkpt>
<trkpt lat="32.726702985" lon="35.24364677">
<ele>222.47500000000002</ele>
<time>2011-12-24T10:37:48Z</time>
</trkpt>
<trkpt lat="32.726716448" lon="35.243597468">
<ele>223.18</ele>
<time>2011-12-24T10:37:53Z</time>
</trkpt>
<trkpt lat="32.726747718" lon="35.243538624">
<ele>224.32</ele>
<time>2011-12-24T10:37:58Z</time>
</trkpt>
<trkpt lat="32.726775174" lon="35.243459918">
<ele>225.1</ele>
<time>2011-12-24T10:38:03Z</time>
</trkpt>
<trkpt lat="32.7268004075" lon="35.2433740025">
<ele>225.9</ele>
<time>2011-12-24T10:38:07Z</time>
</trkpt>
<trkpt lat="32.726822508" lon="35.243296242">
<ele>226.16</ele>
<time>2011-12-24T10:38:12Z</time>
</trkpt>
<trkpt lat="32.726821615" lon="35.2432439">
<ele>226.57500000000002</ele>
<time>2011-12-24T10:38:16Z</time>
</trkpt>
<trkpt lat="32.7268099925" lon="35.24318041">
<ele>226.55</ele>
<time>2011-12-24T10:38:20Z</time>
</trkpt>
<trkpt lat="32.726813402" lon="35.24314741">
<ele>226.45999999999998</ele>
<time>2011-12-24T10:38:25Z</time>
</trkpt>
<trkpt lat="32.72680809" lon="35.24308461">
<ele>227.44</ele>
<time>2011-12-24T10:38:30Z</time>
</trkpt>
<trkpt lat="32.72681245" lon="35.2430460175">
<ele>227.24999999999997</ele>
<time>2011-12-24T10:38:34Z</time>
</trkpt>
<trkpt lat="32.726839568" lon="35.242989406">
<ele>227.74</ele>
<time>2011-12-24T10:38:39Z</time>
</trkpt>
<trkpt lat="32.726867338" lon="35.242926112">
<ele>227.7</ele>
<time>2011-12-24T10:38:44Z</time>
</trkpt>
<trkpt lat="32.7268690875" lon="35.2428512025">
<ele>227.87499999999997</ele>
<time>2011-12-24T10:38:48Z</time>
</trkpt>
<trkpt lat="32.726865512" lon="35.242791042">
<ele>227.42</ele>
<time>2011-12-24T10:38:53Z</time>
</trkpt>
<trkpt lat="32.726861872" lon="35.242734372">
<ele>226.14000000000001</ele>
<time>2011-12-24T10:38:58Z</time>
</trkpt>
<trkpt lat="32.726863052" lon="35.242684442">
<ele>224.87999999999997</ele>
<time>2011-12-24T10:39:03Z</time>
</trkpt>
<trkpt lat="32.726848678" lon="35.242636254">
<ele>224.39999999999995</ele>
<time>2011-12-24T10:39:08Z</time>
</trkpt>
<trkpt lat="32.726850695" lon="35.2425855975">
<ele>223.5</ele>
<time>2011-12-24T10:39:12Z</time>
</trkpt>
<trkpt lat="32.726844034" lon="35.242533108">
<ele>223.35999999999999</ele>
<time>2011-12-24T10:39:17Z</time>
</trkpt>
<trkpt lat="32.7268377075" lon="35.2424598725">
<ele>225.475</ele>
<time>2011-12-24T10:39:21Z</time>
</trkpt>
<trkpt lat="32.726839715" lon="35.24241039">
<ele>224.925</ele>
<time>2011-12-24T10:39:25Z</time>
</trkpt>
<trkpt lat="32.72683098" lon="35.2423765025">
<ele>224.2</ele>
<time>2011-12-24T10:39:29Z</time>
</trkpt>
<trkpt lat="32.726844566" lon="35.242340124">
<ele>225.1</ele>
<time>2011-12-24T10:39:34Z</time>
</trkpt>
<trkpt lat="32.726857145" lon="35.242283085">
<ele>224.7</ele>
<time>2011-12-24T10:39:38Z</time>
</trkpt>
<trkpt lat="32.7268601175" lon="35.2422335625">
<ele>224.8</ele>
<time>2011-12-24T10:39:42Z</time>
</trkpt>
<trkpt lat="32.726858054" lon="35.242180742">
<ele>224.3</ele>
<time>2011-12-24T10:39:47Z</time>
</trkpt>
<trkpt lat="32.726874395" lon="35.2421159425">
<ele>223.10000000000002</ele>
<time>2011-12-24T10:39:51Z</time>
</trkpt>
<trkpt lat="32.72688172" lon="35.2420552525">
<ele>223.775</ele>
<time>2011-12-24T10:39:55Z</time>
</trkpt>
<trkpt lat="32.726883974" lon="35.241995496">
<ele>225.51999999999998</ele>
<time>2011-12-24T10:40:00Z</time>
</trkpt>
<trkpt lat="32.726885606" lon="35.241917704">
<ele>227.66</ele>
<time>2011-12-24T10:40:05Z</time>
</trkpt>
<trkpt lat="32.726878416" lon="35.241882404">
<ele>227.6</ele>
<time>2011-12-24T10:40:10Z</time>
</trkpt>
<trkpt lat="32.7268757325" lon="35.2418750925">
<ele>227.825</ele>
<time>2011-12-24T10:40:14Z</time>
</trkpt>
<trkpt lat="32.726876186" lon="35.241905862">
<ele>226.76</ele>
<time>2011-12-24T10:40:19Z</time>
</trkpt>
<trkpt lat="32.72688339" lon="35.24193108">
<ele>225.68</ele>
<time>2011-12-24T10:40:24Z</time>
</trkpt>
<trkpt lat="32.726888595" lon="35.2419396125">
<ele>225.225</ele>
<time>2011-12-24T10:40:28Z</time>
</trkpt>
<trkpt lat="32.726892482" lon="35.241930626">
<ele>225.24</ele>
<time>2011-12-24T10:40:33Z</time>
</trkpt>
<trkpt lat="32.726891166" lon="35.241931864">
<ele>225.6</ele>
<time>2011-12-24T10:40:38Z</time>
</trkpt>
<trkpt lat="32.726889486" lon="35.241934556">
<ele>225.51999999999998</ele>
<time>2011-12-24T10:40:43Z</time>
</trkpt>
<trkpt lat="32.726896494" lon="35.241932474">
<ele>225.5</ele>
<time>2011-12-24T10:40:48Z</time>
</trkpt>
<trkpt lat="32.726913124" lon="35.241905972">
<ele>225.2</ele>
<time>2011-12-24T10:40:53Z</time>
</trkpt>
<trkpt lat="32.726912422" lon="35.241883906">
<ele>223.01999999999998</ele>
<time>2011-12-24T10:40:58Z</time>
</trkpt>
<trkpt lat="32.7269227675" lon="35.24187847">
<ele>220.6</ele>
<time>2011-12-24T10:41:02Z</time>
</trkpt>
<trkpt lat="32.72692096" lon="35.2418782725">
<ele>219.7</ele>
<time>2011-12-24T10:41:06Z</time>
</trkpt>
<trkpt lat="32.72693248" lon="35.24186675">
<ele>219.87500000000003</ele>
<time>2011-12-24T10:41:10Z</time>
</trkpt>
<trkpt lat="32.726929648" lon="35.241855056">
<ele>220.7</ele>
<time>2011-12-24T10:41:15Z</time>
</trkpt>
<trkpt lat="32.72691793" lon="35.241861305">
<ele>219.375</ele>
<time>2011-12-24T10:41:19Z</time>
</trkpt>
<trkpt lat="32.726884838" lon="35.241894594">
<ele>219.5</ele>
<time>2011-12-24T10:41:24Z</time>
</trkpt>
<trkpt lat="32.7268749775" lon="35.24190017">
<ele>220.1</ele>
<time>2011-12-24T10:41:28Z</time>
</trkpt>
<trkpt lat="32.726877692" lon="35.241895692">
<ele>220.54000000000002</ele>
<time>2011-12-24T10:41:33Z</time>
</trkpt>
<trkpt lat="32.726879362" lon="35.24189045">
<ele>220.58</ele>
<time>2011-12-24T10:41:38Z</time>
</trkpt>
<trkpt lat="32.72688495" lon="35.24188865">
<ele>220.24</ele>
<time>2011-12-24T10:41:43Z</time>
</trkpt>
<trkpt lat="32.726879576" lon="35.24188302">
<ele>220.78000000000003</ele>
<time>2011-12-24T10:41:48Z</time>
</trkpt>
<trkpt lat="32.72687535" lon="35.241881896">
<ele>221.1</ele>
<time>2011-12-24T10:41:53Z</time>
</trkpt>
<trkpt lat="32.726875472" lon="35.241881838">
<ele>221.11999999999998</ele>
<time>2011-12-24T10:41:58Z</time>
</trkpt>
<trkpt lat="32.726875898" lon="35.241882216">
<ele>221.14000000000001</ele>
<time>2011-12-24T10:42:03Z</time>
</trkpt>
<trkpt lat="32.726876228" lon="35.241882464">
<ele>221.2</ele>
<time>2011-12-24T10:42:08Z</time>
</trkpt>
<trkpt lat="32.726876295" lon="35.24188249">
<ele>221.2</ele>
<time>2011-12-24T10:42:12Z</time>
</trkpt>
<trkpt lat="32.726876256" lon="35.241882412">
<ele>221.2</ele>
<time>2011-12-24T10:42:17Z</time>
</trkpt>
<trkpt lat="32.7268762125" lon="35.2418823275">
<ele>221.2</ele>
<time>2011-12-24T10:42:21Z</time>
</trkpt>
<trkpt lat="32.726876208" lon="35.2418823">
<ele>221.2</ele>
<time>2011-12-24T10:42:26Z</time>
</trkpt>
<trkpt lat="32.7268762" lon="35.24188228">
<ele>221.2</ele>
<time>2011-12-24T10:42:30Z</time>
</trkpt>
<trkpt lat="32.726876162" lon="35.241882228">
<ele>221.2</ele>
<time>2011-12-24T10:42:35Z</time>
</trkpt>
<trkpt lat="32.7268761225" lon="35.241882195">
<ele>221.2</ele>
<time>2011-12-24T10:42:39Z</time>
</trkpt>
<trkpt lat="32.726876112" lon="35.241882174">
<ele>221.2</ele>
<time>2011-12-24T10:42:44Z</time>
</trkpt>
<trkpt lat="32.726876074" lon="35.241882142">
<ele>221.2</ele>
<time>2011-12-24T10:42:49Z</time>
</trkpt>
<trkpt lat="32.72687604" lon="35.2418821125">
<ele>221.2</ele>
<time>2011-12-24T10:42:53Z</time>
</trkpt>
<trkpt lat="32.726876018" lon="35.24188212">
<ele>221.2</ele>
<time>2011-12-24T10:42:58Z</time>
</trkpt>
<trkpt lat="32.7268760025" lon="35.2418821175">
<ele>221.2</ele>
<time>2011-12-24T10:43:02Z</time>
</trkpt>
<trkpt lat="32.726876012" lon="35.241882126">
<ele>221.2</ele>
<time>2011-12-24T10:43:07Z</time>
</trkpt>
<trkpt lat="32.726876025" lon="35.2418821375">
<ele>221.2</ele>
<time>2011-12-24T10:43:11Z</time>
</trkpt>
<trkpt lat="32.726876046" lon="35.241882136">
<ele>221.21999999999997</ele>
<time>2011-12-24T10:43:16Z</time>
</trkpt>
<trkpt lat="32.72687606" lon="35.2418821725">
<ele>221.3</ele>
<time>2011-12-24T10:43:20Z</time>
</trkpt>
<trkpt lat="32.726876024" lon="35.241882212">
<ele>221.3</ele>
<time>2011-12-24T10:43:25Z</time>
</trkpt>
<trkpt lat="32.726875994" lon="35.241882264">
<ele>221.3</ele>
<time>2011-12-24T10:43:30Z</time>
</trkpt>
<trkpt lat="32.7268759975" lon="35.2418822975">
<ele>221.3</ele>
<time>2011-12-24T10:43:34Z</time>
</trkpt>
<trkpt lat="32.7268759825" lon="35.2418823225">
<ele>221.3</ele>
<time>2011-12-24T10:43:38Z</time>
</trkpt>
<trkpt lat="32.7268759475" lon="35.241882335">
<ele>221.3</ele>
<time>2011-12-24T10:43:42Z</time>
</trkpt>
<trkpt lat="32.72687589" lon="35.241882326">
<ele>221.3</ele>
<time>2011-12-24T10:43:47Z</time>
</trkpt>
<trkpt lat="32.7268758525" lon="35.241882345">
<ele>221.3</ele>
<time>2011-12-24T10:43:51Z</time>
</trkpt>
<trkpt lat="32.726875838" lon="35.241882366">
<ele>221.3</ele>
<time>2011-12-24T10:43:56Z</time>
</trkpt>
<trkpt lat="32.72687578" lon="35.241882405">
<ele>221.3</ele>
<time>2011-12-24T10:44:00Z</time>
</trkpt>
<trkpt lat="32.726875746" lon="35.241882418">
<ele>221.3</ele>
<time>2011-12-24T10:44:05Z</time>
</trkpt>
<trkpt lat="32.726875725" lon="35.24188242">
<ele>221.3</ele>
<time>2011-12-24T10:44:09Z</time>
</trkpt>
<trkpt lat="32.726875706" lon="35.241882406">
<ele>221.3</ele>
<time>2011-12-24T10:44:14Z</time>
</trkpt>
<trkpt lat="32.7268756925" lon="35.2418823825">
<ele>221.3</ele>
<time>2011-12-24T10:44:18Z</time>
</trkpt>
<trkpt lat="32.7268756775" lon="35.2418823525">
<ele>221.3</ele>
<time>2011-12-24T10:44:22Z</time>
</trkpt>
<trkpt lat="32.726875614" lon="35.241882314">
<ele>221.3</ele>
<time>2011-12-24T10:44:27Z</time>
</trkpt>
<trkpt lat="32.7268755875" lon="35.2418823125">
<ele>221.3</ele>
<time>2011-12-24T10:44:31Z</time>
</trkpt>
<trkpt lat="32.72687561" lon="35.241882334">
<ele>221.3</ele>
<time>2011-12-24T10:44:36Z</time>
</trkpt>
<trkpt lat="32.72687561" lon="35.241882345">
<ele>221.3</ele>
<time>2011-12-24T10:44:40Z</time>
</trkpt>
<trkpt lat="32.726875625" lon="35.2418823375">
<ele>221.3</ele>
<time>2011-12-24T10:44:44Z</time>
</trkpt>
<trkpt lat="32.7268756575" lon="35.241882325">
<ele>221.3</ele>
<time>2011-12-24T10:44:48Z</time>
</trkpt>
<trkpt lat="32.72687568" lon="35.24188227">
<ele>221.3</ele>
<time>2011-12-24T10:44:52Z</time>
</trkpt>
<trkpt lat="32.72687567" lon="35.241882218">
<ele>221.34</ele>
<time>2011-12-24T10:44:57Z</time>
</trkpt>
<trkpt lat="32.7268756825" lon="35.2418821625">
<ele>221.4</ele>
<time>2011-12-24T10:45:01Z</time>
</trkpt>
<trkpt lat="32.72687569" lon="35.241882178">
<ele>221.4</ele>
<time>2011-12-24T10:45:06Z</time>
</trkpt>
<trkpt lat="32.72687574" lon="35.241882184">
<ele>221.4</ele>
<time>2011-12-24T10:45:11Z</time>
</trkpt>
<trkpt lat="32.726875742" lon="35.241882184">
<ele>221.4</ele>
<time>2011-12-24T10:45:16Z</time>
</trkpt>
<trkpt lat="32.726875716" lon="35.241882186">
<ele>221.4</ele>
<time>2011-12-24T10:45:21Z</time>
</trkpt>
<trkpt lat="32.726875654" lon="35.241882186">
<ele>221.4</ele>
<time>2011-12-24T10:45:26Z</time>
</trkpt>
<trkpt lat="32.72687561" lon="35.241882175">
<ele>221.4</ele>
<time>2011-12-24T10:45:30Z</time>
</trkpt>
<trkpt lat="32.726875604" lon="35.24188216">
<ele>221.42</ele>
<time>2011-12-24T10:45:35Z</time>
</trkpt>
<trkpt lat="32.726882744" lon="35.241857496">
<ele>222.37999999999997</ele>
<time>2011-12-24T10:45:40Z</time>
</trkpt>
<trkpt lat="32.726884358" lon="35.24178851">
<ele>224.45999999999998</ele>
<time>2011-12-24T10:45:45Z</time>
</trkpt>
<trkpt lat="32.726886366" lon="35.241726692">
<ele>223.43999999999997</ele>
<time>2011-12-24T10:45:50Z</time>
</trkpt>
<trkpt lat="32.726887572" lon="35.241665212">
<ele>222.92</ele>
<time>2011-12-24T10:45:55Z</time>
</trkpt>
<trkpt lat="32.72688206" lon="35.241588418">
<ele>224.04000000000002</ele>
<time>2011-12-24T10:46:00Z</time>
</trkpt>
<trkpt lat="32.726870335" lon="35.241531555">
<ele>225.05</ele>
<time>2011-12-24T10:46:04Z</time>
</trkpt>
<trkpt lat="32.7268648675" lon="35.2414830125">
<ele>226.4</ele>
<time>2011-12-24T10:46:08Z</time>
</trkpt>
<trkpt lat="32.726866615" lon="35.2414406975">
<ele>225.85000000000002</ele>
<time>2011-12-24T10:46:12Z</time>
</trkpt>
<trkpt lat="32.726856824" lon="35.241375144">
<ele>226.5</ele>
<time>2011-12-24T10:46:17Z</time>
</trkpt>
<trkpt lat="32.7268470375" lon="35.241322785">
<ele>224.89999999999998</ele>
<time>2011-12-24T10:46:21Z</time>
</trkpt>
<trkpt lat="32.7268378175" lon="35.241293175">
<ele>219.89999999999998</ele>
<time>2011-12-24T10:46:25Z</time>
</trkpt>
<trkpt lat="32.726817264" lon="35.241195204">
<ele>220.92</ele>
<time>2011-12-24T10:46:30Z</time>
</trkpt>
<trkpt lat="32.7267974425" lon="35.2411263975">
<ele>221.225</ele>
<time>2011-12-24T10:46:34Z</time>
</trkpt>
<trkpt lat="32.726781236" lon="35.241047598">
<ele>221.37999999999997</ele>
<time>2011-12-24T10:46:39Z</time>
</trkpt>
<trkpt lat="32.7267650975" lon="35.2409858425">
<ele>221.0</ele>
<time>2011-12-24T10:46:43Z</time>
</trkpt>
<trkpt lat="32.726736296" lon="35.240924428">
<ele>221.48000000000002</ele>
<time>2011-12-24T10:46:48Z</time>
</trkpt>
<trkpt lat="32.726693825" lon="35.2408659175">
<ele>222.60000000000002</ele>
<time>2011-12-24T10:46:52Z</time>
</trkpt>
<trkpt lat="32.726642596" lon="35.240833622">
<ele>223.32</ele>
<time>2011-12-24T10:46:57Z</time>
</trkpt>
<trkpt lat="32.726583204" lon="35.240805102">
<ele>223.98000000000002</ele>
<time>2011-12-24T10:47:02Z</time>
</trkpt>
<trkpt lat="32.726525996" lon="35.240791474">
<ele>224.47999999999996</ele>
<time>2011-12-24T10:47:07Z</time>
</trkpt>
<trkpt lat="32.726483825" lon="35.24075335">
<ele>225.60000000000002</ele>
<time>2011-12-24T10:47:11Z</time>
</trkpt>
<trkpt lat="32.726436405" lon="35.2407233975">
<ele>225.60000000000002</ele>
<time>2011-12-24T10:47:15Z</time>
</trkpt>
<trkpt lat="32.726396014" lon="35.240681284">
<ele>225.24</ele>
<time>2011-12-24T10:47:20Z</time>
</trkpt>
<trkpt lat="32.72635881" lon="35.24063749">
<ele>224.525</ele>
<time>2011-12-24T10:47:24Z</time>
</trkpt>
<trkpt lat="32.726316944" lon="35.24059511">
<ele>224.26</ele>
<time>2011-12-24T10:47:29Z</time>
</trkpt>
<trkpt lat="32.726281632" lon="35.240530392">
<ele>225.26</ele>
<time>2011-12-24T10:47:34Z</time>
</trkpt>
<trkpt lat="32.72624296" lon="35.2404835675">
<ele>226.075</ele>
<time>2011-12-24T10:47:38Z</time>
</trkpt>
<trkpt lat="32.726203038" lon="35.240430714">
<ele>226.5</ele>
<time>2011-12-24T10:47:43Z</time>
</trkpt>
<trkpt lat="32.7261717875" lon="35.24037542">
<ele>227.025</ele>
<time>2011-12-24T10:47:47Z</time>
</trkpt>
<trkpt lat="32.726153326" lon="35.24031152">
<ele>227.1</ele>
<time>2011-12-24T10:47:52Z</time>
</trkpt>
<trkpt lat="32.7261463" lon="35.24024498">
<ele>226.47499999999997</ele>
<time>2011-12-24T10:47:56Z</time>
</trkpt>
<trkpt lat="32.726141202" lon="35.240185668">
<ele>225.38000000000002</ele>
<time>2011-12-24T10:48:01Z</time>
</trkpt>
<trkpt lat="32.726156516" lon="35.240079098">
<ele>225.28000000000003</ele>
<time>2011-12-24T10:48:06Z</time>
</trkpt>
<trkpt lat="32.726175175" lon="35.23997985">
<ele>224.475</ele>
<time>2011-12-24T10:48:10Z</time>
</trkpt>
<trkpt lat="32.726190076" lon="35.23989631">
<ele>223.6</ele>
<time>2011-12-24T10:48:15Z</time>
</trkpt>
<trkpt lat="32.7262226225" lon="35.23984908">
<ele>224.15</ele>
<time>2011-12-24T10:48:19Z</time>
</trkpt>
<trkpt lat="32.72626561" lon="35.239789534">
<ele>225.13999999999996</ele>
<time>2011-12-24T10:48:24Z</time>
</trkpt>
<trkpt lat="32.726316662" lon="35.239743544">
<ele>225.61999999999998</ele>
<time>2011-12-24T10:48:29Z</time>
</trkpt>
<trkpt lat="32.726391416" lon="35.239704964">
<ele>227.24</ele>
<time>2011-12-24T10:48:34Z</time>
</trkpt>
<trkpt lat="32.726455455" lon="35.23966895">
<ele>228.50000000000003</ele>
<time>2011-12-24T10:48:38Z</time>
</trkpt>
<trkpt lat="32.726506422" lon="35.239624778">
<ele>229.14000000000001</ele>
<time>2011-12-24T10:48:43Z</time>
</trkpt>
<trkpt lat="32.72655548" lon="35.2395739125">
<ele>229.7</ele>
<time>2011-12-24T10:48:47Z</time>
</trkpt>
<trkpt lat="32.726598224" lon="35.23952232">
<ele>230.28000000000003</ele>
<time>2011-12-24T10:48:52Z</time>
</trkpt>
<trkpt lat="32.726646492" lon="35.23946356">
<ele>230.46000000000004</ele>
<time>2011-12-24T10:48:57Z</time>
</trkpt>
<trkpt lat="32.726690218" lon="35.239430144">
<ele>231.61999999999998</ele>
<time>2011-12-24T10:49:02Z</time>
</trkpt>
<trkpt lat="32.726731602" lon="35.239380222">
<ele>231.24</ele>
<time>2011-12-24T10:49:07Z</time>
</trkpt>
<trkpt lat="32.72676648" lon="35.239316532">
<ele>231.82000000000002</ele>
<time>2011-12-24T10:49:12Z</time>
</trkpt>
<trkpt lat="32.726801496" lon="35.239243144">
<ele>232.84</ele>
<time>2011-12-24T10:49:17Z</time>
</trkpt>
<trkpt lat="32.726834595" lon="35.239181185">
<ele>232.775</ele>
<time>2011-12-24T10:49:21Z</time>
</trkpt>
<trkpt lat="32.726873836" lon="35.239136008">
<ele>232.14000000000001</ele>
<time>2011-12-24T10:49:26Z</time>
</trkpt>
<trkpt lat="32.7269177675" lon="35.2390823175">
<ele>231.55</ele>
<time>2011-12-24T10:49:30Z</time>
</trkpt>
<trkpt lat="32.726964302" lon="35.239031806">
<ele>231.2</ele>
<time>2011-12-24T10:49:35Z</time>
</trkpt>
<trkpt lat="32.727022626" lon="35.238976914">
<ele>231.92</ele>
<time>2011-12-24T10:49:40Z</time>
</trkpt>
<trkpt lat="32.727096106" lon="35.238963734">
<ele>231.66000000000003</ele>
<time>2011-12-24T10:49:45Z</time>
</trkpt>
<trkpt lat="32.727173356" lon="35.238963078">
<ele>231.1</ele>
<time>2011-12-24T10:49:50Z</time>
</trkpt>
<trkpt lat="32.727236386" lon="35.238949954">
<ele>230.26</ele>
<time>2011-12-24T10:49:55Z</time>
</trkpt>
<trkpt lat="32.727289982" lon="35.238925492">
<ele>229.94</ele>
<time>2011-12-24T10:50:00Z</time>
</trkpt>
<trkpt lat="32.7273488375" lon="35.2389022175">
<ele>229.70000000000002</ele>
<time>2011-12-24T10:50:04Z</time>
</trkpt>
<trkpt lat="32.727411472" lon="35.238885478">
<ele>228.3</ele>
<time>2011-12-24T10:50:09Z</time>
</trkpt>
<trkpt lat="32.727463422" lon="35.238862954">
<ele>227.44</ele>
<time>2011-12-24T10:50:14Z</time>
</trkpt>
<trkpt lat="32.72751091" lon="35.238863825">
<ele>226.475</ele>
<time>2011-12-24T10:50:18Z</time>
</trkpt>
<trkpt lat="32.727541028" lon="35.23885502">
<ele>226.32000000000002</ele>
<time>2011-12-24T10:50:23Z</time>
</trkpt>
<trkpt lat="32.727541932" lon="35.23885405">
<ele>227.2</ele>
<time>2011-12-24T10:50:28Z</time>
</trkpt>
<trkpt lat="32.727538365" lon="35.2388555375">
<ele>227.475</ele>
<time>2011-12-24T10:50:32Z</time>
</trkpt>
<trkpt lat="32.72753885" lon="35.238854468">
<ele>227.24</ele>
<time>2011-12-24T10:50:37Z</time>
</trkpt>
<trkpt lat="32.7275379625" lon="35.238857005">
<ele>226.975</ele>
<time>2011-12-24T10:50:41Z</time>
</trkpt>
<trkpt lat="32.727494945" lon="35.2388853275">
<ele>227.425</ele>
<time>2011-12-24T10:50:45Z</time>
</trkpt>
<trkpt lat="32.7274298" lon="35.23890395">
<ele>227.82</ele>
<time>2011-12-24T10:50:50Z</time>
</trkpt>
<trkpt lat="32.7273687075" lon="35.23891458">
<ele>228.775</ele>
<time>2011-12-24T10:50:54Z</time>
</trkpt>
<trkpt lat="32.727308816" lon="35.238927404">
<ele>229.54000000000002</ele>
<time>2011-12-24T10:50:59Z</time>
</trkpt>
<trkpt lat="32.727240318" lon="35.238950842">
<ele>230.14000000000001</ele>
<time>2011-12-24T10:51:04Z</time>
</trkpt>
<trkpt lat="32.7271768575" lon="35.23897027">
<ele>230.8</ele>
<time>2011-12-24T10:51:08Z</time>
</trkpt>
<trkpt lat="32.7271132225" lon="35.2389890925">
<ele>231.2</ele>
<time>2011-12-24T10:51:12Z</time>
</trkpt>
<trkpt lat="32.727051594" lon="35.23900848">
<ele>232.74</ele>
<time>2011-12-24T10:51:17Z</time>
</trkpt>
<trkpt lat="32.726990395" lon="35.2390303775">
<ele>233.3</ele>
<time>2011-12-24T10:51:21Z</time>
</trkpt>
<trkpt lat="32.726937878" lon="35.23903146">
<ele>234.51999999999998</ele>
<time>2011-12-24T10:51:26Z</time>
</trkpt>
<trkpt lat="32.7269496575" lon="35.2389691975">
<ele>234.45</ele>
<time>2011-12-24T10:51:30Z</time>
</trkpt>
<trkpt lat="32.726975864" lon="35.238899616">
<ele>235.32000000000002</ele>
<time>2011-12-24T10:51:35Z</time>
</trkpt>
<trkpt lat="32.726993065" lon="35.2388283075">
<ele>236.275</ele>
<time>2011-12-24T10:51:39Z</time>
</trkpt>
<trkpt lat="32.726977624" lon="35.238750124">
<ele>236.85999999999999</ele>
<time>2011-12-24T10:51:44Z</time>
</trkpt>
<trkpt lat="32.72696254" lon="35.23869776">
<ele>236.6</ele>
<time>2011-12-24T10:51:48Z</time>
</trkpt>
<trkpt lat="32.72693914" lon="35.2386618">
<ele>236.68</ele>
<time>2011-12-24T10:51:53Z</time>
</trkpt>
<trkpt lat="32.7268890675" lon="35.2386718175">
<ele>237.82500000000002</ele>
<time>2011-12-24T10:51:57Z</time>
</trkpt>
<trkpt lat="32.726848294" lon="35.238691838">
<ele>238.94</ele>
<time>2011-12-24T10:52:02Z</time>
</trkpt>
<trkpt lat="32.726808376" lon="35.238721764">
<ele>239.0</ele>
<time>2011-12-24T10:52:07Z</time>
</trkpt>
<trkpt lat="32.726754718" lon="35.238773138">
<ele>240.2</ele>
<time>2011-12-24T10:52:12Z</time>
</trkpt>
<trkpt lat="32.726701052" lon="35.238805702">
<ele>240.32</ele>
<time>2011-12-24T10:52:17Z</time>
</trkpt>
<trkpt lat="32.726648218" lon="35.238839242">
<ele>241.3</ele>
<time>2011-12-24T10:52:22Z</time>
</trkpt>
<trkpt lat="32.726597066" lon="35.238881794">
<ele>242.84</ele>
<time>2011-12-24T10:52:27Z</time>
</trkpt>
<trkpt lat="32.726532248" lon="35.238920526">
<ele>242.5</ele>
<time>2011-12-24T10:52:32Z</time>
</trkpt>
<trkpt lat="32.726466968" lon="35.238953626">
<ele>241.06000000000003</ele>
<time>2011-12-24T10:52:37Z</time>
</trkpt>
<trkpt lat="32.7264187175" lon="35.238958795">
<ele>239.97500000000002</ele>
<time>2011-12-24T10:52:41Z</time>
</trkpt>
<trkpt lat="32.72636961" lon="35.23897256">
<ele>241.23999999999995</ele>
<time>2011-12-24T10:52:46Z</time>
</trkpt>
<trkpt lat="32.7263164575" lon="35.2389867325">
<ele>241.275</ele>
<time>2011-12-24T10:52:50Z</time>
</trkpt>
<trkpt lat="32.726264264" lon="35.23901227">
<ele>242.84</ele>
<time>2011-12-24T10:52:55Z</time>
</trkpt>
<trkpt lat="32.726205234" lon="35.239024906">
<ele>243.92</ele>
<time>2011-12-24T10:53:00Z</time>
</trkpt>
<trkpt lat="32.7261572725" lon="35.23900608">
<ele>244.875</ele>
<time>2011-12-24T10:53:04Z</time>
</trkpt>
<trkpt lat="32.726140266" lon="35.238967942">
<ele>243.4</ele>
<time>2011-12-24T10:53:09Z</time>
</trkpt>
<trkpt lat="32.726138748" lon="35.238908308">
<ele>242.66</ele>
<time>2011-12-24T10:53:14Z</time>
</trkpt>
<trkpt lat="32.72613958" lon="35.2388689375">
<ele>242.225</ele>
<time>2011-12-24T10:53:18Z</time>
</trkpt>
<trkpt lat="32.726168205" lon="35.2388347575">
<ele>242.175</ele>
<time>2011-12-24T10:53:22Z</time>
</trkpt>
<trkpt lat="32.726204836" lon="35.238779402">
<ele>242.06</ele>
<time>2011-12-24T10:53:27Z</time>
</trkpt>
<trkpt lat="32.72621566" lon="35.238731012">
<ele>241.24</ele>
<time>2011-12-24T10:53:32Z</time>
</trkpt>
<trkpt lat="32.72618876" lon="35.2386702975">
<ele>242.47500000000002</ele>
<time>2011-12-24T10:53:36Z</time>
</trkpt>
<trkpt lat="32.726152578" lon="35.238664756">
<ele>243.3</ele>
<time>2011-12-24T10:53:41Z</time>
</trkpt>
<trkpt lat="32.726162858" lon="35.238610544">
<ele>243.56</ele>
<time>2011-12-24T10:53:46Z</time>
</trkpt>
<trkpt lat="32.726171346" lon="35.238590764">
<ele>242.88000000000002</ele>
<time>2011-12-24T10:53:51Z</time>
</trkpt>
<trkpt lat="32.726196222" lon="35.238578216">
<ele>241.16</ele>
<time>2011-12-24T10:53:56Z</time>
</trkpt>
<trkpt lat="32.726238876" lon="35.238530934">
<ele>240.24</ele>
<time>2011-12-24T10:54:01Z</time>
</trkpt>
<trkpt lat="32.7262586125" lon="35.2384688175">
<ele>240.425</ele>
<time>2011-12-24T10:54:05Z</time>
</trkpt>
<trkpt lat="32.726280402" lon="35.238408132">
<ele>241.2</ele>
<time>2011-12-24T10:54:10Z</time>
</trkpt>
<trkpt lat="32.72629485" lon="35.23833691">
<ele>241.82</ele>
<time>2011-12-24T10:54:15Z</time>
</trkpt>
<trkpt lat="32.726297584" lon="35.2383053">
<ele>242.63999999999996</ele>
<time>2011-12-24T10:54:20Z</time>
</trkpt>
<trkpt lat="32.726296912" lon="35.238243504">
<ele>241.95999999999998</ele>
<time>2011-12-24T10:54:25Z</time>
</trkpt>
<trkpt lat="32.72631112" lon="35.2381603825">
<ele>239.7</ele>
<time>2011-12-24T10:54:29Z</time>
</trkpt>
<trkpt lat="32.726301694" lon="35.23809073">
<ele>238.0</ele>
<time>2011-12-24T10:54:34Z</time>
</trkpt>
<trkpt lat="32.726273805" lon="35.23802725">
<ele>237.59999999999997</ele>
<time>2011-12-24T10:54:38Z</time>
</trkpt>
<trkpt lat="32.7262511525" lon="35.237973665">
<ele>237.825</ele>
<time>2011-12-24T10:54:42Z</time>
</trkpt>
<trkpt lat="32.726201348" lon="35.237925726">
<ele>237.85999999999999</ele>
<time>2011-12-24T10:54:47Z</time>
</trkpt>
<trkpt lat="32.72615026" lon="35.237879585">
<ele>239.7</ele>
<time>2011-12-24T10:54:51Z</time>
</trkpt>
<trkpt lat="32.726130265" lon="35.23785674">
<ele>241.175</ele>
<time>2011-12-24T10:54:55Z</time>
</trkpt>
<trkpt lat="32.726103468" lon="35.23778851">
<ele>242.51999999999998</ele>
<time>2011-12-24T10:55:00Z</time>
</trkpt>
<trkpt lat="32.726075266" lon="35.237719996">
<ele>245.35999999999999</ele>
<time>2011-12-24T10:55:05Z</time>
</trkpt>
<trkpt lat="32.7260483525" lon="35.23765627">
<ele>247.575</ele>
<time>2011-12-24T10:55:09Z</time>
</trkpt>
<trkpt lat="32.726000076" lon="35.237620056">
<ele>247.74</ele>
<time>2011-12-24T10:55:14Z</time>
</trkpt>
<trkpt lat="32.7259840825" lon="35.23757567">
<ele>246.79999999999998</ele>
<time>2011-12-24T10:55:18Z</time>
</trkpt>
<trkpt lat="32.725937845" lon="35.237534265">
<ele>246.85000000000002</ele>
<time>2011-12-24T10:55:22Z</time>
</trkpt>
<trkpt lat="32.725885072" lon="35.237491874">
<ele>246.21999999999997</ele>
<time>2011-12-24T10:55:27Z</time>
</trkpt>
<trkpt lat="32.725817666" lon="35.237469576">
<ele>246.4</ele>
<time>2011-12-24T10:55:32Z</time>
</trkpt>
<trkpt lat="32.72574631" lon="35.2374873">
<ele>247.4</ele>
<time>2011-12-24T10:55:37Z</time>
</trkpt>
<trkpt lat="32.7256917525" lon="35.2374946525">
<ele>246.55</ele>
<time>2011-12-24T10:55:41Z</time>
</trkpt>
<trkpt lat="32.725661442" lon="35.237465884">
<ele>245.5</ele>
<time>2011-12-24T10:55:46Z</time>
</trkpt>
<trkpt lat="32.7256198475" lon="35.2374242775">
<ele>245.29999999999998</ele>
<time>2011-12-24T10:55:50Z</time>
</trkpt>
<trkpt lat="32.725574036" lon="35.237412944">
<ele>243.94</ele>
<time>2011-12-24T10:55:55Z</time>
</trkpt>
<trkpt lat="32.725525508" lon="35.237404202">
<ele>245.0</ele>
<time>2011-12-24T10:56:00Z</time>
</trkpt>
<trkpt lat="32.7254807075" lon="35.237404175">
<ele>246.72500000000002</ele>
<time>2011-12-24T10:56:04Z</time>
</trkpt>
<trkpt lat="32.7254341475" lon="35.23739359">
<ele>246.60000000000002</ele>
<time>2011-12-24T10:56:08Z</time>
</trkpt>
<trkpt lat="32.725403755" lon="35.2373672625">
<ele>244.875</ele>
<time>2011-12-24T10:56:12Z</time>
</trkpt>
<trkpt lat="32.7253783575" lon="35.23733688">
<ele>242.75</ele>
<time>2011-12-24T10:56:16Z</time>
</trkpt>
<trkpt lat="32.72534151" lon="35.23729993">
<ele>239.72500000000002</ele>
<time>2011-12-24T10:56:20Z</time>
</trkpt>
<trkpt lat="32.725303374" lon="35.237274408">
<ele>238.64000000000001</ele>
<time>2011-12-24T10:56:25Z</time>
</trkpt>
<trkpt lat="32.7252507125" lon="35.23729137">
<ele>238.925</ele>
<time>2011-12-24T10:56:29Z</time>
</trkpt>
<trkpt lat="32.7251945725" lon="35.23731492">
<ele>240.3</ele>
<time>2011-12-24T10:56:33Z</time>
</trkpt>
<trkpt lat="32.7251693225" lon="35.2373237675">
<ele>240.47500000000002</ele>
<time>2011-12-24T10:56:37Z</time>
</trkpt>
<trkpt lat="32.72512643" lon="35.23730868">
<ele>240.03999999999996</ele>
<time>2011-12-24T10:56:42Z</time>
</trkpt>
<trkpt lat="32.725066476" lon="35.237285806">
<ele>238.38000000000002</ele>
<time>2011-12-24T10:56:47Z</time>
</trkpt>
<trkpt lat="32.725005148" lon="35.237257408">
<ele>237.18</ele>
<time>2011-12-24T10:56:52Z</time>
</trkpt>
<trkpt lat="32.724971532" lon="35.23725751">
<ele>236.82</ele>
<time>2011-12-24T10:56:57Z</time>
</trkpt>
<trkpt lat="32.724949926" lon="35.23724821">
<ele>237.22000000000003</ele>
<time>2011-12-24T10:57:02Z</time>
</trkpt>
<trkpt lat="32.724930524" lon="35.237246712">
<ele>237.56</ele>
<time>2011-12-24T10:57:07Z</time>
</trkpt>
<trkpt lat="32.724922006" lon="35.23724686">
<ele>237.56</ele>
<time>2011-12-24T10:57:12Z</time>
</trkpt>
<trkpt lat="32.7248995575" lon="35.2372418225">
<ele>237.6</ele>
<time>2011-12-24T10:57:16Z</time>
</trkpt>
<trkpt lat="32.724874198" lon="35.23723839">
<ele>237.72000000000003</ele>
<time>2011-12-24T10:57:21Z</time>
</trkpt>
<trkpt lat="32.724789674" lon="35.23723401">
<ele>238.45999999999998</ele>
<time>2011-12-24T10:57:26Z</time>
</trkpt>
<trkpt lat="32.7247158825" lon="35.2372428175">
<ele>237.5</ele>
<time>2011-12-24T10:57:30Z</time>
</trkpt>
<trkpt lat="32.724690115" lon="35.237218455">
<ele>237.9</ele>
<time>2011-12-24T10:57:34Z</time>
</trkpt>
<trkpt lat="32.72463451" lon="35.23721233">
<ele>238.2</ele>
<time>2011-12-24T10:57:39Z</time>
</trkpt>
<trkpt lat="32.72460044" lon="35.23723273">
<ele>237.625</ele>
<time>2011-12-24T10:57:43Z</time>
</trkpt>
<trkpt lat="32.724566775" lon="35.23725595">
<ele>238.05</ele>
<time>2011-12-24T10:57:47Z</time>
</trkpt>
<trkpt lat="32.72450501" lon="35.237290994">
<ele>238.32</ele>
<time>2011-12-24T10:57:52Z</time>
</trkpt>
<trkpt lat="32.7244469375" lon="35.2373292775">
<ele>239.25</ele>
<time>2011-12-24T10:57:56Z</time>
</trkpt>
<trkpt lat="32.724412564" lon="35.237366976">
<ele>240.32</ele>
<time>2011-12-24T10:58:01Z</time>
</trkpt>
<trkpt lat="32.7243725325" lon="35.237397255">
<ele>240.125</ele>
<time>2011-12-24T10:58:05Z</time>
</trkpt>
<trkpt lat="32.724303108" lon="35.23745449">
<ele>238.92000000000002</ele>
<time>2011-12-24T10:58:10Z</time>
</trkpt>
<trkpt lat="32.724228868" lon="35.237480188">
<ele>237.6</ele>
<time>2011-12-24T10:58:15Z</time>
</trkpt>
<trkpt lat="32.72414509" lon="35.237545972">
<ele>236.5</ele>
<time>2011-12-24T10:58:20Z</time>
</trkpt>
<trkpt lat="32.7240782075" lon="35.2375880325">
<ele>233.97500000000002</ele>
<time>2011-12-24T10:58:24Z</time>
</trkpt>
<trkpt lat="32.724016435" lon="35.23763192">
<ele>231.075</ele>
<time>2011-12-24T10:58:28Z</time>
</trkpt>
<trkpt lat="32.723957924" lon="35.237680384">
<ele>228.74</ele>
<time>2011-12-24T10:58:33Z</time>
</trkpt>
<trkpt lat="32.72391432" lon="35.237705825">
<ele>229.22500000000002</ele>
<time>2011-12-24T10:58:37Z</time>
</trkpt>
<trkpt lat="32.723862164" lon="35.237736322">
<ele>228.34</ele>
<time>2011-12-24T10:58:42Z</time>
</trkpt>
<trkpt lat="32.7238366675" lon="35.237784155">
<ele>230.3</ele>
<time>2011-12-24T10:58:46Z</time>
</trkpt>
<trkpt lat="32.72380685" lon="35.2378136325">
<ele>231.025</ele>
<time>2011-12-24T10:58:50Z</time>
</trkpt>
<trkpt lat="32.72377584" lon="35.2378184475">
<ele>231.825</ele>
<time>2011-12-24T10:58:54Z</time>
</trkpt>
<trkpt lat="32.723734455" lon="35.2378618675">
<ele>229.3</ele>
<time>2011-12-24T10:58:58Z</time>
</trkpt>
<trkpt lat="32.7236835" lon="35.237909212">
<ele>229.9</ele>
<time>2011-12-24T10:59:03Z</time>
</trkpt>
<trkpt lat="32.7236346025" lon="35.2379610375">
<ele>229.75</ele>
<time>2011-12-24T10:59:07Z</time>
</trkpt>
<trkpt lat="32.723592976" lon="35.237995342">
<ele>230.45999999999998</ele>
<time>2011-12-24T10:59:12Z</time>
</trkpt>
<trkpt lat="32.7235573775" lon="35.2380232825">
<ele>230.2</ele>
<time>2011-12-24T10:59:16Z</time>
</trkpt>
<trkpt lat="32.723531478" lon="35.238041232">
<ele>231.35999999999999</ele>
<time>2011-12-24T10:59:21Z</time>
</trkpt>
<trkpt lat="32.723492816" lon="35.23809336">
<ele>232.18</ele>
<time>2011-12-24T10:59:26Z</time>
</trkpt>
<trkpt lat="32.7234475575" lon="35.23815906">
<ele>234.25</ele>
<time>2011-12-24T10:59:30Z</time>
</trkpt>
<trkpt lat="32.723395226" lon="35.238215226">
<ele>235.85999999999999</ele>
<time>2011-12-24T10:59:35Z</time>
</trkpt>
<trkpt lat="32.7233491" lon="35.238287325">
<ele>236.925</ele>
<time>2011-12-24T10:59:39Z</time>
</trkpt>
<trkpt lat="32.7233195525" lon="35.238342215">
<ele>237.175</ele>
<time>2011-12-24T10:59:43Z</time>
</trkpt>
<trkpt lat="32.72330114" lon="35.238391205">
<ele>237.7</ele>
<time>2011-12-24T10:59:47Z</time>
</trkpt>
<trkpt lat="32.72328506" lon="35.238437638">
<ele>238.77999999999997</ele>
<time>2011-12-24T10:59:52Z</time>
</trkpt>
<trkpt lat="32.7232445475" lon="35.238484875">
<ele>238.95000000000002</ele>
<time>2011-12-24T10:59:56Z</time>
</trkpt>
<trkpt lat="32.7232212475" lon="35.2385174225">
<ele>238.95</ele>
<time>2011-12-24T11:00:00Z</time>
</trkpt>
<trkpt lat="32.723188395" lon="35.238570845">
<ele>239.75</ele>
<time>2011-12-24T11:00:04Z</time>
</trkpt>
<trkpt lat="32.723178288" lon="35.238599954">
<ele>242.58</ele>
<time>2011-12-24T11:00:09Z</time>
</trkpt>
<trkpt lat="32.723141968" lon="35.238644144">
<ele>241.12000000000003</ele>
<time>2011-12-24T11:00:14Z</time>
</trkpt>
<trkpt lat="32.723114474" lon="35.23868923">
<ele>240.92</ele>
<time>2011-12-24T11:00:19Z</time>
</trkpt>
<trkpt lat="32.723080144" lon="35.238734232">
<ele>241.56</ele>
<time>2011-12-24T11:00:24Z</time>
</trkpt>
<trkpt lat="32.7230445225" lon="35.2387731375">
<ele>242.17499999999998</ele>
<time>2011-12-24T11:00:28Z</time>
</trkpt>
<trkpt lat="32.722988066" lon="35.23880599">
<ele>244.82</ele>
<time>2011-12-24T11:00:33Z</time>
</trkpt>
<trkpt lat="32.722959576" lon="35.23885883">
<ele>245.24</ele>
<time>2011-12-24T11:00:38Z</time>
</trkpt>
<trkpt lat="32.72293534" lon="35.238910592">
<ele>246.07999999999998</ele>
<time>2011-12-24T11:00:43Z</time>
</trkpt>
<trkpt lat="32.72291061" lon="35.23894703">
<ele>245.7</ele>
<time>2011-12-24T11:00:48Z</time>
</trkpt>
<trkpt lat="32.72290121" lon="35.238959152">
<ele>245.2</ele>
<time>2011-12-24T11:00:53Z</time>
</trkpt>
<trkpt lat="32.722901872" lon="35.238965066">
<ele>244.64000000000001</ele>
<time>2011-12-24T11:00:58Z</time>
</trkpt>
<trkpt lat="32.722889162" lon="35.238986272">
<ele>244.45999999999998</ele>
<time>2011-12-24T11:01:03Z</time>
</trkpt>
<trkpt lat="32.722874766" lon="35.239023604">
<ele>244.32</ele>
<time>2011-12-24T11:01:08Z</time>
</trkpt>
<trkpt lat="32.7228560075" lon="35.239065735">
<ele>244.175</ele>
<time>2011-12-24T11:01:12Z</time>
</trkpt>
<trkpt lat="32.722844325" lon="35.239115605">
<ele>244.025</ele>
<time>2011-12-24T11:01:16Z</time>
</trkpt>
<trkpt lat="32.722832668" lon="35.239184472">
<ele>245.45999999999998</ele>
<time>2011-12-24T11:01:21Z</time>
</trkpt>
<trkpt lat="32.72281" lon="35.2392595725">
<ele>244.75</ele>
<time>2011-12-24T11:01:25Z</time>
</trkpt>
<trkpt lat="32.722765862" lon="35.239356234">
<ele>245.56</ele>
<time>2011-12-24T11:01:30Z</time>
</trkpt>
<trkpt lat="32.722739135" lon="35.2394222925">
<ele>246.7</ele>
<time>2011-12-24T11:01:34Z</time>
</trkpt>
<trkpt lat="32.72272659" lon="35.239452698">
<ele>247.08</ele>
<time>2011-12-24T11:01:39Z</time>
</trkpt>
<trkpt lat="32.72271852" lon="35.239479998">
<ele>246.35999999999999</ele>
<time>2011-12-24T11:01:44Z</time>
</trkpt>
<trkpt lat="32.72269528" lon="35.23952204">
<ele>247.21999999999997</ele>
<time>2011-12-24T11:01:49Z</time>
</trkpt>
<trkpt lat="32.7226695475" lon="35.239568045">
<ele>247.39999999999998</ele>
<time>2011-12-24T11:01:53Z</time>
</trkpt>
<trkpt lat="32.722666576" lon="35.2396175">
<ele>247.07999999999998</ele>
<time>2011-12-24T11:01:58Z</time>
</trkpt>
<trkpt lat="32.722677478" lon="35.239619728">
<ele>247.21999999999997</ele>
<time>2011-12-24T11:02:03Z</time>
</trkpt>
<trkpt lat="32.722692252" lon="35.239596154">
<ele>246.51999999999998</ele>
<time>2011-12-24T11:02:08Z</time>
</trkpt>
<trkpt lat="32.722729236" lon="35.239538528">
<ele>248.38000000000002</ele>
<time>2011-12-24T11:02:13Z</time>
</trkpt>
<trkpt lat="32.722766715" lon="35.23951894">
<ele>246.575</ele>
<time>2011-12-24T11:02:17Z</time>
</trkpt>
<trkpt lat="32.72280147" lon="35.239484095">
<ele>246.39999999999998</ele>
<time>2011-12-24T11:02:21Z</time>
</trkpt>
<trkpt lat="32.72283908" lon="35.239448424">
<ele>246.17999999999998</ele>
<time>2011-12-24T11:02:26Z</time>
</trkpt>
<trkpt lat="32.722865648" lon="35.239420628">
<ele>246.5</ele>
<time>2011-12-24T11:02:31Z</time>
</trkpt>
<trkpt lat="32.7229013" lon="35.2394021775">
<ele>246.65</ele>
<time>2011-12-24T11:02:35Z</time>
</trkpt>
<trkpt lat="32.722961652" lon="35.23937588">
<ele>245.10000000000005</ele>
<time>2011-12-24T11:02:40Z</time>
</trkpt>
<trkpt lat="32.723012745" lon="35.239374945">
<ele>244.07500000000002</ele>
<time>2011-12-24T11:02:44Z</time>
</trkpt>
<trkpt lat="32.723035564" lon="35.239424088">
<ele>244.48000000000002</ele>
<time>2011-12-24T11:02:49Z</time>
</trkpt>
<trkpt lat="32.72306357" lon="35.239476874">
<ele>244.6</ele>
<time>2011-12-24T11:02:54Z</time>
</trkpt>
<trkpt lat="32.723069378" lon="35.239513168">
<ele>244.9</ele>
<time>2011-12-24T11:02:59Z</time>
</trkpt>
<trkpt lat="32.72303576" lon="35.23955498">
<ele>245.24</ele>
<time>2011-12-24T11:03:04Z</time>
</trkpt>
<trkpt lat="32.722982786" lon="35.239604456">
<ele>245.7</ele>
<time>2011-12-24T11:03:09Z</time>
</trkpt>
<trkpt lat="32.722947062" lon="35.239661628">
<ele>245.6</ele>
<time>2011-12-24T11:03:14Z</time>
</trkpt>
<trkpt lat="32.7229349925" lon="35.2396807775">
<ele>246.60000000000002</ele>
<time>2011-12-24T11:03:18Z</time>
</trkpt>
<trkpt lat="32.722921918" lon="35.239730982">
<ele>245.84</ele>
<time>2011-12-24T11:03:23Z</time>
</trkpt>
<trkpt lat="32.722903464" lon="35.23979808">
<ele>243.76</ele>
<time>2011-12-24T11:03:28Z</time>
</trkpt>
<trkpt lat="32.722877602" lon="35.239841082">
<ele>241.9</ele>
<time>2011-12-24T11:03:33Z</time>
</trkpt>
<trkpt lat="32.722834998" lon="35.239911226">
<ele>243.16</ele>
<time>2011-12-24T11:03:38Z</time>
</trkpt>
<trkpt lat="32.722795504" lon="35.239955428">
<ele>242.54000000000002</ele>
<time>2011-12-24T11:03:43Z</time>
</trkpt>
<trkpt lat="32.722762802" lon="35.23998391">
<ele>245.43999999999997</ele>
<time>2011-12-24T11:03:48Z</time>
</trkpt>
<trkpt lat="32.722763186" lon="35.24004394">
<ele>245.3</ele>
<time>2011-12-24T11:03:53Z</time>
</trkpt>
<trkpt lat="32.722734306" lon="35.240084598">
<ele>244.88000000000002</ele>
<time>2011-12-24T11:03:58Z</time>
</trkpt>
<trkpt lat="32.7227173025" lon="35.240101025">
<ele>246.12500000000003</ele>
<time>2011-12-24T11:04:02Z</time>
</trkpt>
<trkpt lat="32.72271792" lon="35.240106302">
<ele>246.76000000000005</ele>
<time>2011-12-24T11:04:07Z</time>
</trkpt>
<trkpt lat="32.72271807" lon="35.2401077625">
<ele>246.675</ele>
<time>2011-12-24T11:04:11Z</time>
</trkpt>
<trkpt lat="32.7227167825" lon="35.2401089525">
<ele>246.675</ele>
<time>2011-12-24T11:04:15Z</time>
</trkpt>
<trkpt lat="32.72271678" lon="35.2401096225">
<ele>246.77499999999998</ele>
<time>2011-12-24T11:04:19Z</time>
</trkpt>
<trkpt lat="32.72271138" lon="35.24013084">
<ele>248.26</ele>
<time>2011-12-24T11:04:24Z</time>
</trkpt>
<trkpt lat="32.72268734" lon="35.240191022">
<ele>249.58</ele>
<time>2011-12-24T11:04:29Z</time>
</trkpt>
<trkpt lat="32.722643588" lon="35.24025305">
<ele>251.16</ele>
<time>2011-12-24T11:04:34Z</time>
</trkpt>
<trkpt lat="32.722643722" lon="35.240329372">
<ele>250.38000000000002</ele>
<time>2011-12-24T11:04:39Z</time>
</trkpt>
<trkpt lat="32.7226333525" lon="35.24038127">
<ele>251.2</ele>
<time>2011-12-24T11:04:43Z</time>
</trkpt>
<trkpt lat="32.722640045" lon="35.2404235275">
<ele>251.375</ele>
<time>2011-12-24T11:04:47Z</time>
</trkpt>
<trkpt lat="32.72265111" lon="35.240456948">
<ele>250.33999999999997</ele>
<time>2011-12-24T11:04:52Z</time>
</trkpt>
<trkpt lat="32.72265444" lon="35.2405029925">
<ele>251.075</ele>
<time>2011-12-24T11:04:56Z</time>
</trkpt>
<trkpt lat="32.722649564" lon="35.240549506">
<ele>251.3</ele>
<time>2011-12-24T11:05:01Z</time>
</trkpt>
<trkpt lat="32.7226237625" lon="35.2405753975">
<ele>248.75</ele>
<time>2011-12-24T11:05:05Z</time>
</trkpt>
<trkpt lat="32.72259752" lon="35.2406228275">
<ele>246.95</ele>
<time>2011-12-24T11:05:09Z</time>
</trkpt>
<trkpt lat="32.722591668" lon="35.24069332">
<ele>247.06</ele>
<time>2011-12-24T11:05:14Z</time>
</trkpt>
<trkpt lat="32.722587864" lon="35.240786642">
<ele>247.14000000000001</ele>
<time>2011-12-24T11:05:19Z</time>
</trkpt>
<trkpt lat="32.722592864" lon="35.24085407">
<ele>246.38000000000002</ele>
<time>2011-12-24T11:05:24Z</time>
</trkpt>
<trkpt lat="32.722601628" lon="35.240902822">
<ele>245.85999999999999</ele>
<time>2011-12-24T11:05:29Z</time>
</trkpt>
<trkpt lat="32.722612466" lon="35.240951278">
<ele>246.62000000000003</ele>
<time>2011-12-24T11:05:34Z</time>
</trkpt>
<trkpt lat="32.7226084925" lon="35.2409896525">
<ele>245.475</ele>
<time>2011-12-24T11:05:38Z</time>
</trkpt>
<trkpt lat="32.7226212" lon="35.24103044">
<ele>247.18</ele>
<time>2011-12-24T11:05:43Z</time>
</trkpt>
<trkpt lat="32.72262792" lon="35.24108862">
<ele>249.84</ele>
<time>2011-12-24T11:05:48Z</time>
</trkpt>
<trkpt lat="32.722640712" lon="35.241143284">
<ele>252.94</ele>
<time>2011-12-24T11:05:53Z</time>
</trkpt>
<trkpt lat="32.722656184" lon="35.241198044">
<ele>256.41999999999996</ele>
<time>2011-12-24T11:05:58Z</time>
</trkpt>
<trkpt lat="32.722676068" lon="35.24125106">
<ele>255.33999999999997</ele>
<time>2011-12-24T11:06:03Z</time>
</trkpt>
<trkpt lat="32.722688062" lon="35.241298582">
<ele>256.02</ele>
<time>2011-12-24T11:06:08Z</time>
</trkpt>
<trkpt lat="32.722706508" lon="35.241344818">
<ele>255.66</ele>
<time>2011-12-24T11:06:13Z</time>
</trkpt>
<trkpt lat="32.7227248525" lon="35.24138032">
<ele>255.35</ele>
<time>2011-12-24T11:06:17Z</time>
</trkpt>
<trkpt lat="32.722748784" lon="35.241426078">
<ele>253.57999999999998</ele>
<time>2011-12-24T11:06:22Z</time>
</trkpt>
<trkpt lat="32.7227620225" lon="35.2414795475">
<ele>252.64999999999998</ele>
<time>2011-12-24T11:06:26Z</time>
</trkpt>
<trkpt lat="32.722780962" lon="35.24155628">
<ele>252.74</ele>
<time>2011-12-24T11:06:31Z</time>
</trkpt>
<trkpt lat="32.722820966" lon="35.241636018">
<ele>252.76</ele>
<time>2011-12-24T11:06:36Z</time>
</trkpt>
<trkpt lat="32.722856716" lon="35.24169193">
<ele>252.85999999999999</ele>
<time>2011-12-24T11:06:41Z</time>
</trkpt>
<trkpt lat="32.722855928" lon="35.241757824">
<ele>253.1</ele>
<time>2011-12-24T11:06:46Z</time>
</trkpt>
<trkpt lat="32.7228577125" lon="35.2418050175">
<ele>253.75</ele>
<time>2011-12-24T11:06:50Z</time>
</trkpt>
<trkpt lat="32.722877218" lon="35.241846288">
<ele>255.1</ele>
<time>2011-12-24T11:06:55Z</time>
</trkpt>
<trkpt lat="32.722905596" lon="35.241888486">
<ele>256.94</ele>
<time>2011-12-24T11:07:00Z</time>
</trkpt>
<trkpt lat="32.7229367525" lon="35.2419264775">
<ele>255.89999999999998</ele>
<time>2011-12-24T11:07:04Z</time>
</trkpt>
<trkpt lat="32.722952594" lon="35.241961892">
<ele>255.7</ele>
<time>2011-12-24T11:07:09Z</time>
</trkpt>
<trkpt lat="32.722959018" lon="35.241993414">
<ele>257.21999999999997</ele>
<time>2011-12-24T11:07:14Z</time>
</trkpt>
<trkpt lat="32.722977984" lon="35.242053878">
<ele>257.86</ele>
<time>2011-12-24T11:07:19Z</time>
</trkpt>
<trkpt lat="32.723012196" lon="35.24210181">
<ele>258.58000000000004</ele>
<time>2011-12-24T11:07:24Z</time>
</trkpt>
<trkpt lat="32.723035364" lon="35.242149544">
<ele>258.65999999999997</ele>
<time>2011-12-24T11:07:29Z</time>
</trkpt>
<trkpt lat="32.72305389" lon="35.242210504">
<ele>263.1</ele>
<time>2011-12-24T11:07:34Z</time>
</trkpt>
<trkpt lat="32.723055368" lon="35.242261946">
<ele>268.68</ele>
<time>2011-12-24T11:07:39Z</time>
</trkpt>
<trkpt lat="32.723062658" lon="35.24229354">
<ele>270.00000000000006</ele>
<time>2011-12-24T11:07:44Z</time>
</trkpt>
<trkpt lat="32.72306913" lon="35.2423160275">
<ele>269.0</ele>
<time>2011-12-24T11:07:48Z</time>
</trkpt>
<trkpt lat="32.723061228" lon="35.242354818">
<ele>268.65999999999997</ele>
<time>2011-12-24T11:07:53Z</time>
</trkpt>
<trkpt lat="32.7230491075" lon="35.2423680175">
<ele>269.125</ele>
<time>2011-12-24T11:07:57Z</time>
</trkpt>
<trkpt lat="32.72304518" lon="35.24237379">
<ele>269.14</ele>
<time>2011-12-24T11:08:02Z</time>
</trkpt>
<trkpt lat="32.723044685" lon="35.24237567">
<ele>269.1</ele>
<time>2011-12-24T11:08:06Z</time>
</trkpt>
<trkpt lat="32.723044665" lon="35.24237583">
<ele>269.1</ele>
<time>2011-12-24T11:08:10Z</time>
</trkpt>
<trkpt lat="32.72305385" lon="35.2424056925">
<ele>268.55</ele>
<time>2011-12-24T11:08:14Z</time>
</trkpt>
<trkpt lat="32.723078882" lon="35.242509102">
<ele>266.7</ele>
<time>2011-12-24T11:08:19Z</time>
</trkpt>
<trkpt lat="32.723105004" lon="35.242562152">
<ele>265.46</ele>
<time>2011-12-24T11:08:24Z</time>
</trkpt>
<trkpt lat="32.723137674" lon="35.242607162">
<ele>264.97999999999996</ele>
<time>2011-12-24T11:08:29Z</time>
</trkpt>
<trkpt lat="32.72315164" lon="35.242599368">
<ele>265.98</ele>
<time>2011-12-24T11:08:34Z</time>
</trkpt>
<trkpt lat="32.723170192" lon="35.242583038">
<ele>266.66</ele>
<time>2011-12-24T11:08:39Z</time>
</trkpt>
<trkpt lat="32.723234994" lon="35.24254051">
<ele>266.28000000000003</ele>
<time>2011-12-24T11:08:44Z</time>
</trkpt>
<trkpt lat="32.723275728" lon="35.242478108">
<ele>265.76</ele>
<time>2011-12-24T11:08:49Z</time>
</trkpt>
<trkpt lat="32.723279894" lon="35.242470902">
<ele>264.97999999999996</ele>
<time>2011-12-24T11:08:54Z</time>
</trkpt>
<trkpt lat="32.72328201" lon="35.242475746">
<ele>265.22</ele>
<time>2011-12-24T11:08:59Z</time>
</trkpt>
<trkpt lat="32.723282442" lon="35.24247649">
<ele>265.2</ele>
<time>2011-12-24T11:09:04Z</time>
</trkpt>
<trkpt lat="32.72328145" lon="35.242522372">
<ele>265.23999999999995</ele>
<time>2011-12-24T11:09:09Z</time>
</trkpt>
<trkpt lat="32.723270888" lon="35.242653856">
<ele>262.5</ele>
<time>2011-12-24T11:09:14Z</time>
</trkpt>
<trkpt lat="32.7232668525" lon="35.24273045">
<ele>260.6</ele>
<time>2011-12-24T11:09:18Z</time>
</trkpt>
<trkpt lat="32.723233204" lon="35.24279739">
<ele>260.16</ele>
<time>2011-12-24T11:09:23Z</time>
</trkpt>
<trkpt lat="32.723218008" lon="35.242891978">
<ele>259.62</ele>
<time>2011-12-24T11:09:28Z</time>
</trkpt>
<trkpt lat="32.723233524" lon="35.242977816">
<ele>259.71999999999997</ele>
<time>2011-12-24T11:09:33Z</time>
</trkpt>
<trkpt lat="32.7232298975" lon="35.243048965">
<ele>260.20000000000005</ele>
<time>2011-12-24T11:09:37Z</time>
</trkpt>
<trkpt lat="32.7232235" lon="35.2430920875">
<ele>261.975</ele>
<time>2011-12-24T11:09:41Z</time>
</trkpt>
<trkpt lat="32.723200394" lon="35.243156002">
<ele>263.65999999999997</ele>
<time>2011-12-24T11:09:46Z</time>
</trkpt>
<trkpt lat="32.72317534" lon="35.24319808">
<ele>264.7</ele>
<time>2011-12-24T11:09:51Z</time>
</trkpt>
<trkpt lat="32.72316305" lon="35.24323869">
<ele>265.225</ele>
<time>2011-12-24T11:09:55Z</time>
</trkpt>
<trkpt lat="32.723161144" lon="35.243297682">
<ele>266.12</ele>
<time>2011-12-24T11:10:00Z</time>
</trkpt>
<trkpt lat="32.723160742" lon="35.243345822">
<ele>269.93999999999994</ele>
<time>2011-12-24T11:10:05Z</time>
</trkpt>
<trkpt lat="32.723172138" lon="35.243339356">
<ele>271.7</ele>
<time>2011-12-24T11:10:10Z</time>
</trkpt>
<trkpt lat="32.723172104" lon="35.243339078">
<ele>271.7</ele>
<time>2011-12-24T11:10:15Z</time>
</trkpt>
<trkpt lat="32.723171745" lon="35.2433382175">
<ele>271.65</ele>
<time>2011-12-24T11:10:19Z</time>
</trkpt>
<trkpt lat="32.72317099" lon="35.243343022">
<ele>271.48</ele>
<time>2011-12-24T11:10:24Z</time>
</trkpt>
<trkpt lat="32.7231668025" lon="35.2434035975">
<ele>272.925</ele>
<time>2011-12-24T11:10:28Z</time>
</trkpt>
<trkpt lat="32.723157578" lon="35.243467474">
<ele>270.88</ele>
<time>2011-12-24T11:10:33Z</time>
</trkpt>
<trkpt lat="32.723157052" lon="35.243495316">
<ele>270.21999999999997</ele>
<time>2011-12-24T11:10:38Z</time>
</trkpt>
<trkpt lat="32.723132335" lon="35.2435703375">
<ele>265.75</ele>
<time>2011-12-24T11:10:42Z</time>
</trkpt>
<trkpt lat="32.723110998" lon="35.243629328">
<ele>265.91999999999996</ele>
<time>2011-12-24T11:10:47Z</time>
</trkpt>
<trkpt lat="32.7230986275" lon="35.243682485">
<ele>269.025</ele>
<time>2011-12-24T11:10:51Z</time>
</trkpt>
<trkpt lat="32.723096215" lon="35.2437151575">
<ele>270.15000000000003</ele>
<time>2011-12-24T11:10:55Z</time>
</trkpt>
<trkpt lat="32.723085476" lon="35.24375417">
<ele>271.0</ele>
<time>2011-12-24T11:11:00Z</time>
</trkpt>
<trkpt lat="32.723089014" lon="35.243769668">
<ele>273.09999999999997</ele>
<time>2011-12-24T11:11:05Z</time>
</trkpt>
<trkpt lat="32.7230921725" lon="35.2437802775">
<ele>272.8</ele>
<time>2011-12-24T11:11:09Z</time>
</trkpt>
<trkpt lat="32.72308893" lon="35.243822706">
<ele>271.12</ele>
<time>2011-12-24T11:11:14Z</time>
</trkpt>
<trkpt lat="32.723102185" lon="35.24389296">
<ele>270.4</ele>
<time>2011-12-24T11:11:18Z</time>
</trkpt>
<trkpt lat="32.7230970575" lon="35.2439486575">
<ele>270.625</ele>
<time>2011-12-24T11:11:22Z</time>
</trkpt>
<trkpt lat="32.723049012" lon="35.243976658">
<ele>274.02</ele>
<time>2011-12-24T11:11:27Z</time>
</trkpt>
<trkpt lat="32.7230381075" lon="35.2439923575">
<ele>276.125</ele>
<time>2011-12-24T11:11:31Z</time>
</trkpt>
<trkpt lat="32.7230731725" lon="35.2439906525">
<ele>276.625</ele>
<time>2011-12-24T11:11:35Z</time>
</trkpt>
<trkpt lat="32.7230825775" lon="35.24399161">
<ele>276.825</ele>
<time>2011-12-24T11:11:39Z</time>
</trkpt>
<trkpt lat="32.72307981" lon="35.243999016">
<ele>276.2</ele>
<time>2011-12-24T11:11:44Z</time>
</trkpt>
<trkpt lat="32.72308014" lon="35.244001418">
<ele>276.43999999999994</ele>
<time>2011-12-24T11:11:49Z</time>
</trkpt>
<trkpt lat="32.72308317" lon="35.244002574">
<ele>276.68</ele>
<time>2011-12-24T11:11:54Z</time>
</trkpt>
<trkpt lat="32.723085928" lon="35.244008424">
<ele>277.36</ele>
<time>2011-12-24T11:11:59Z</time>
</trkpt>
<trkpt lat="32.723090185" lon="35.2440125575">
<ele>278.1</ele>
<time>2011-12-24T11:12:03Z</time>
</trkpt>
<trkpt lat="32.72308738" lon="35.24400995">
<ele>278.56</ele>
<time>2011-12-24T11:12:08Z</time>
</trkpt>
<trkpt lat="32.7230879725" lon="35.244011265">
<ele>279.125</ele>
<time>2011-12-24T11:12:12Z</time>
</trkpt>
<trkpt lat="32.723088162" lon="35.244010786">
<ele>279.14</ele>
<time>2011-12-24T11:12:17Z</time>
</trkpt>
<trkpt lat="32.7230882475" lon="35.2440107925">
<ele>279.125</ele>
<time>2011-12-24T11:12:21Z</time>
</trkpt>
<trkpt lat="32.723087532" lon="35.24401237">
<ele>279.0</ele>
<time>2011-12-24T11:12:26Z</time>
</trkpt>
<trkpt lat="32.7230868025" lon="35.2440143775">
<ele>278.8</ele>
<time>2011-12-24T11:12:30Z</time>
</trkpt>
<trkpt lat="32.723086772" lon="35.244014556">
<ele>278.78</ele>
<time>2011-12-24T11:12:35Z</time>
</trkpt>
<trkpt lat="32.723086788" lon="35.244014378">
<ele>278.7</ele>
<time>2011-12-24T11:12:40Z</time>
</trkpt>
<trkpt lat="32.723086746" lon="35.24401421">
<ele>278.7</ele>
<time>2011-12-24T11:12:45Z</time>
</trkpt>
<trkpt lat="32.72308664" lon="35.24401408">
<ele>278.7</ele>
<time>2011-12-24T11:12:49Z</time>
</trkpt>
</trkseg>
</trk>
</gpx>
